<?xml version="1.0" encoding="UTF-8" standalone="no" ?>
<gpx xmlns="http://www.topografix.com/GPX/1/1" xmlns:xsi="http://www.w3.org/2001/XMLSchema-instance" xsi:schemaLocation="http://www.topografix.com/GPX/1/1 http://www.topografix.com/GPX/1/1/gpx.xsd" version="1.1" creator="VisuGPX - https://www.visugpx.com">
  <metadata>
    <name>RANDO ST SIGOLENE 28 KM</name>
    <desc><![CDATA[RANDO SAINT SIGOLENE 28 KM.DEPART ARRIVEE ST SIGOLENE. RAUCOULES]]></desc>
  </metadata>
  <trk>
    <name><![CDATA[30-SEPT-20 16:59:59]]></name>
    <extensions>
      <line xmlns="http://www.topografix.com/GPX/gpx_style/0/2">
        <color>0000FF</color>
        <width>4</width>
      </line>
    </extensions>
    <trkseg>
      <trkpt lat="45.23929" lon="4.23594">
        <ele>828.31</ele>
        <time>2020-09-30T07:12:26Z</time>
      </trkpt>
      <trkpt lat="45.23905" lon="4.23597">
        <ele>819.18</ele>
        <time>2020-09-30T07:12:51Z</time>
      </trkpt>
      <trkpt lat="45.23892" lon="4.23595">
        <ele>818.22</ele>
        <time>2020-09-30T07:13:04Z</time>
      </trkpt>
      <trkpt lat="45.23876" lon="4.23591">
        <ele>814.37</ele>
        <time>2020-09-30T07:13:20Z</time>
      </trkpt>
      <trkpt lat="45.23873" lon="4.23591">
        <ele>813.89</ele>
        <time>2020-09-30T07:13:23Z</time>
      </trkpt>
      <trkpt lat="45.23867" lon="4.23587">
        <ele>811.01</ele>
        <time>2020-09-30T07:13:28Z</time>
      </trkpt>
      <trkpt lat="45.23858" lon="4.23583">
        <ele>814.37</ele>
        <time>2020-09-30T07:13:35Z</time>
      </trkpt>
      <trkpt lat="45.23837" lon="4.23576">
        <ele>815.82</ele>
        <time>2020-09-30T07:13:51Z</time>
      </trkpt>
      <trkpt lat="45.23826" lon="4.23573">
        <ele>817.74</ele>
        <time>2020-09-30T07:14:04Z</time>
      </trkpt>
      <trkpt lat="45.23809" lon="4.23579">
        <ele>817.26</ele>
        <time>2020-09-30T07:14:18Z</time>
      </trkpt>
      <trkpt lat="45.23803" lon="4.23576">
        <ele>818.22</ele>
        <time>2020-09-30T07:14:24Z</time>
      </trkpt>
      <trkpt lat="45.23777" lon="4.2355">
        <ele>819.66</ele>
        <time>2020-09-30T07:14:46Z</time>
      </trkpt>
      <trkpt lat="45.23773" lon="4.23549">
        <ele>819.66</ele>
        <time>2020-09-30T07:14:50Z</time>
      </trkpt>
      <trkpt lat="45.23768" lon="4.2355">
        <ele>819.18</ele>
        <time>2020-09-30T07:14:54Z</time>
      </trkpt>
      <trkpt lat="45.23761" lon="4.23561">
        <ele>818.22</ele>
        <time>2020-09-30T07:15:01Z</time>
      </trkpt>
      <trkpt lat="45.23745" lon="4.23587">
        <ele>817.26</ele>
        <time>2020-09-30T07:15:19Z</time>
      </trkpt>
      <trkpt lat="45.23739" lon="4.23598">
        <ele>818.22</ele>
        <time>2020-09-30T07:15:26Z</time>
      </trkpt>
      <trkpt lat="45.23725" lon="4.23631">
        <ele>817.26</ele>
        <time>2020-09-30T07:15:45Z</time>
      </trkpt>
      <trkpt lat="45.23705" lon="4.23652">
        <ele>814.37</ele>
        <time>2020-09-30T07:16:03Z</time>
      </trkpt>
      <trkpt lat="45.23691" lon="4.23668">
        <ele>812.93</ele>
        <time>2020-09-30T07:16:18Z</time>
      </trkpt>
      <trkpt lat="45.23674" lon="4.2368">
        <ele>810.53</ele>
        <time>2020-09-30T07:16:33Z</time>
      </trkpt>
      <trkpt lat="45.23663" lon="4.23695">
        <ele>808.13</ele>
        <time>2020-09-30T07:16:47Z</time>
      </trkpt>
      <trkpt lat="45.23649" lon="4.23708">
        <ele>806.68</ele>
        <time>2020-09-30T07:17:01Z</time>
      </trkpt>
      <trkpt lat="45.23635" lon="4.23724">
        <ele>805.72</ele>
        <time>2020-09-30T07:17:17Z</time>
      </trkpt>
      <trkpt lat="45.23631" lon="4.23733">
        <ele>805.24</ele>
        <time>2020-09-30T07:17:24Z</time>
      </trkpt>
      <trkpt lat="45.23616" lon="4.23747">
        <ele>804.28</ele>
        <time>2020-09-30T07:17:40Z</time>
      </trkpt>
      <trkpt lat="45.23598" lon="4.23764">
        <ele>801.88</ele>
        <time>2020-09-30T07:17:58Z</time>
      </trkpt>
      <trkpt lat="45.23583" lon="4.2378">
        <ele>799.47</ele>
        <time>2020-09-30T07:18:14Z</time>
      </trkpt>
      <trkpt lat="45.23569" lon="4.23794">
        <ele>799.95</ele>
        <time>2020-09-30T07:18:29Z</time>
      </trkpt>
      <trkpt lat="45.23552" lon="4.23807">
        <ele>798.03</ele>
        <time>2020-09-30T07:18:45Z</time>
      </trkpt>
      <trkpt lat="45.23533" lon="4.23819">
        <ele>797.55</ele>
        <time>2020-09-30T07:19:00Z</time>
      </trkpt>
      <trkpt lat="45.23516" lon="4.23822">
        <ele>797.07</ele>
        <time>2020-09-30T07:19:13Z</time>
      </trkpt>
      <trkpt lat="45.23504" lon="4.23812">
        <ele>797.55</ele>
        <time>2020-09-30T07:19:27Z</time>
      </trkpt>
      <trkpt lat="45.23492" lon="4.23789">
        <ele>798.03</ele>
        <time>2020-09-30T07:19:47Z</time>
      </trkpt>
      <trkpt lat="45.23487" lon="4.23781">
        <ele>797.55</ele>
        <time>2020-09-30T07:20:01Z</time>
      </trkpt>
      <trkpt lat="45.23482" lon="4.23766">
        <ele>799.95</ele>
        <time>2020-09-30T07:20:17Z</time>
      </trkpt>
      <trkpt lat="45.23472" lon="4.23749">
        <ele>798.99</ele>
        <time>2020-09-30T07:20:33Z</time>
      </trkpt>
      <trkpt lat="45.23467" lon="4.23734">
        <ele>799.47</ele>
        <time>2020-09-30T07:20:44Z</time>
      </trkpt>
      <trkpt lat="45.23453" lon="4.23712">
        <ele>798.51</ele>
        <time>2020-09-30T07:21:01Z</time>
      </trkpt>
      <trkpt lat="45.23441" lon="4.23694">
        <ele>798.03</ele>
        <time>2020-09-30T07:21:17Z</time>
      </trkpt>
      <trkpt lat="45.23431" lon="4.23673">
        <ele>798.99</ele>
        <time>2020-09-30T07:21:34Z</time>
      </trkpt>
      <trkpt lat="45.23431" lon="4.23672">
        <ele>798.51</ele>
        <time>2020-09-30T07:21:46Z</time>
      </trkpt>
      <trkpt lat="45.23433" lon="4.2367">
        <ele>800.92</ele>
        <time>2020-09-30T07:22:06Z</time>
      </trkpt>
      <trkpt lat="45.23433" lon="4.2367">
        <ele>800.92</ele>
        <time>2020-09-30T07:22:07Z</time>
      </trkpt>
      <trkpt lat="45.23419" lon="4.23647">
        <ele>803.8</ele>
        <time>2020-09-30T07:22:24Z</time>
      </trkpt>
      <trkpt lat="45.234" lon="4.23618">
        <ele>805.72</ele>
        <time>2020-09-30T07:22:42Z</time>
      </trkpt>
      <trkpt lat="45.23385" lon="4.23583">
        <ele>806.68</ele>
        <time>2020-09-30T07:23:02Z</time>
      </trkpt>
      <trkpt lat="45.23374" lon="4.23544">
        <ele>808.61</ele>
        <time>2020-09-30T07:23:23Z</time>
      </trkpt>
      <trkpt lat="45.23371" lon="4.23507">
        <ele>809.09</ele>
        <time>2020-09-30T07:23:42Z</time>
      </trkpt>
      <trkpt lat="45.23369" lon="4.23466">
        <ele>809.57</ele>
        <time>2020-09-30T07:24:02Z</time>
      </trkpt>
      <trkpt lat="45.23366" lon="4.23421">
        <ele>809.57</ele>
        <time>2020-09-30T07:24:24Z</time>
      </trkpt>
      <trkpt lat="45.23366" lon="4.23377">
        <ele>810.53</ele>
        <time>2020-09-30T07:24:46Z</time>
      </trkpt>
      <trkpt lat="45.23373" lon="4.23345">
        <ele>812.93</ele>
        <time>2020-09-30T07:25:02Z</time>
      </trkpt>
      <trkpt lat="45.23384" lon="4.23314">
        <ele>815.82</ele>
        <time>2020-09-30T07:25:18Z</time>
      </trkpt>
      <trkpt lat="45.23401" lon="4.23275">
        <ele>813.89</ele>
        <time>2020-09-30T07:25:40Z</time>
      </trkpt>
      <trkpt lat="45.23403" lon="4.23231">
        <ele>813.41</ele>
        <time>2020-09-30T07:26:01Z</time>
      </trkpt>
      <trkpt lat="45.23397" lon="4.23189">
        <ele>816.3</ele>
        <time>2020-09-30T07:26:20Z</time>
      </trkpt>
      <trkpt lat="45.23388" lon="4.23155">
        <ele>822.55</ele>
        <time>2020-09-30T07:26:37Z</time>
      </trkpt>
      <trkpt lat="45.23383" lon="4.23129">
        <ele>824.95</ele>
        <time>2020-09-30T07:26:54Z</time>
      </trkpt>
      <trkpt lat="45.23383" lon="4.231">
        <ele>823.51</ele>
        <time>2020-09-30T07:27:10Z</time>
      </trkpt>
      <trkpt lat="45.23362" lon="4.23108">
        <ele>822.06</ele>
        <time>2020-09-30T07:27:28Z</time>
      </trkpt>
      <trkpt lat="45.23337" lon="4.23123">
        <ele>820.14</ele>
        <time>2020-09-30T07:27:46Z</time>
      </trkpt>
      <trkpt lat="45.23322" lon="4.23137">
        <ele>815.34</ele>
        <time>2020-09-30T07:28:00Z</time>
      </trkpt>
      <trkpt lat="45.23304" lon="4.23151">
        <ele>813.41</ele>
        <time>2020-09-30T07:28:17Z</time>
      </trkpt>
      <trkpt lat="45.23281" lon="4.23163">
        <ele>807.64</ele>
        <time>2020-09-30T07:28:35Z</time>
      </trkpt>
      <trkpt lat="45.23256" lon="4.23169">
        <ele>802.84</ele>
        <time>2020-09-30T07:28:51Z</time>
      </trkpt>
      <trkpt lat="45.23232" lon="4.23168">
        <ele>801.4</ele>
        <time>2020-09-30T07:29:09Z</time>
      </trkpt>
      <trkpt lat="45.23216" lon="4.23162">
        <ele>799.95</ele>
        <time>2020-09-30T07:29:21Z</time>
      </trkpt>
      <trkpt lat="45.23197" lon="4.23131">
        <ele>800.44</ele>
        <time>2020-09-30T07:29:41Z</time>
      </trkpt>
      <trkpt lat="45.23187" lon="4.23109">
        <ele>801.4</ele>
        <time>2020-09-30T07:29:56Z</time>
      </trkpt>
      <trkpt lat="45.23174" lon="4.23095">
        <ele>803.32</ele>
        <time>2020-09-30T07:30:09Z</time>
      </trkpt>
      <trkpt lat="45.23154" lon="4.23095">
        <ele>802.36</ele>
        <time>2020-09-30T07:30:23Z</time>
      </trkpt>
      <trkpt lat="45.23134" lon="4.23111">
        <ele>800.92</ele>
        <time>2020-09-30T07:30:40Z</time>
      </trkpt>
      <trkpt lat="45.23116" lon="4.2313">
        <ele>798.99</ele>
        <time>2020-09-30T07:30:57Z</time>
      </trkpt>
      <trkpt lat="45.23104" lon="4.23139">
        <ele>797.55</ele>
        <time>2020-09-30T07:31:09Z</time>
      </trkpt>
      <trkpt lat="45.23075" lon="4.23138">
        <ele>798.51</ele>
        <time>2020-09-30T07:31:27Z</time>
      </trkpt>
      <trkpt lat="45.23059" lon="4.2312">
        <ele>794.67</ele>
        <time>2020-09-30T07:31:42Z</time>
      </trkpt>
      <trkpt lat="45.23049" lon="4.23098">
        <ele>792.26</ele>
        <time>2020-09-30T07:31:58Z</time>
      </trkpt>
      <trkpt lat="45.23032" lon="4.2307">
        <ele>794.67</ele>
        <time>2020-09-30T07:32:17Z</time>
      </trkpt>
      <trkpt lat="45.2301" lon="4.23061">
        <ele>788.42</ele>
        <time>2020-09-30T07:32:34Z</time>
      </trkpt>
      <trkpt lat="45.22987" lon="4.23049">
        <ele>785.05</ele>
        <time>2020-09-30T07:32:51Z</time>
      </trkpt>
      <trkpt lat="45.22964" lon="4.23032">
        <ele>782.17</ele>
        <time>2020-09-30T07:33:08Z</time>
      </trkpt>
      <trkpt lat="45.22938" lon="4.23014">
        <ele>779.29</ele>
        <time>2020-09-30T07:33:27Z</time>
      </trkpt>
      <trkpt lat="45.22919" lon="4.22997">
        <ele>775.44</ele>
        <time>2020-09-30T07:33:46Z</time>
      </trkpt>
      <trkpt lat="45.22912" lon="4.22992">
        <ele>773.52</ele>
        <time>2020-09-30T07:33:53Z</time>
      </trkpt>
      <trkpt lat="45.22895" lon="4.2298">
        <ele>771.6</ele>
        <time>2020-09-30T07:34:10Z</time>
      </trkpt>
      <trkpt lat="45.22887" lon="4.22972">
        <ele>772.08</ele>
        <time>2020-09-30T07:34:25Z</time>
      </trkpt>
      <trkpt lat="45.22884" lon="4.2297">
        <ele>771.11</ele>
        <time>2020-09-30T07:34:48Z</time>
      </trkpt>
      <trkpt lat="45.22882" lon="4.22969">
        <ele>772.56</ele>
        <time>2020-09-30T07:35:01Z</time>
      </trkpt>
      <trkpt lat="45.22882" lon="4.22967">
        <ele>773.04</ele>
        <time>2020-09-30T07:35:05Z</time>
      </trkpt>
      <trkpt lat="45.22884" lon="4.22937">
        <ele>774</ele>
        <time>2020-09-30T07:35:21Z</time>
      </trkpt>
      <trkpt lat="45.22885" lon="4.22902">
        <ele>774</ele>
        <time>2020-09-30T07:35:39Z</time>
      </trkpt>
      <trkpt lat="45.22872" lon="4.22873">
        <ele>774</ele>
        <time>2020-09-30T07:35:57Z</time>
      </trkpt>
      <trkpt lat="45.2286" lon="4.22855">
        <ele>776.4</ele>
        <time>2020-09-30T07:36:12Z</time>
      </trkpt>
      <trkpt lat="45.2284" lon="4.22852">
        <ele>776.88</ele>
        <time>2020-09-30T07:36:27Z</time>
      </trkpt>
      <trkpt lat="45.22829" lon="4.22851">
        <ele>776.4</ele>
        <time>2020-09-30T07:36:35Z</time>
      </trkpt>
      <trkpt lat="45.22804" lon="4.22843">
        <ele>774.96</ele>
        <time>2020-09-30T07:36:54Z</time>
      </trkpt>
      <trkpt lat="45.22788" lon="4.22832">
        <ele>776.4</ele>
        <time>2020-09-30T07:37:10Z</time>
      </trkpt>
      <trkpt lat="45.22775" lon="4.2282">
        <ele>778.32</ele>
        <time>2020-09-30T07:37:24Z</time>
      </trkpt>
      <trkpt lat="45.22755" lon="4.22811">
        <ele>778.81</ele>
        <time>2020-09-30T07:37:38Z</time>
      </trkpt>
      <trkpt lat="45.22736" lon="4.22801">
        <ele>779.29</ele>
        <time>2020-09-30T07:37:53Z</time>
      </trkpt>
      <trkpt lat="45.22711" lon="4.22796">
        <ele>777.36</ele>
        <time>2020-09-30T07:38:10Z</time>
      </trkpt>
      <trkpt lat="45.22691" lon="4.22792">
        <ele>775.44</ele>
        <time>2020-09-30T07:38:25Z</time>
      </trkpt>
      <trkpt lat="45.2267" lon="4.22793">
        <ele>774</ele>
        <time>2020-09-30T07:38:41Z</time>
      </trkpt>
      <trkpt lat="45.22656" lon="4.22795">
        <ele>773.52</ele>
        <time>2020-09-30T07:38:52Z</time>
      </trkpt>
      <trkpt lat="45.2264" lon="4.22795">
        <ele>774</ele>
        <time>2020-09-30T07:39:06Z</time>
      </trkpt>
      <trkpt lat="45.22628" lon="4.22779">
        <ele>774.48</ele>
        <time>2020-09-30T07:39:20Z</time>
      </trkpt>
      <trkpt lat="45.22619" lon="4.22757">
        <ele>772.08</ele>
        <time>2020-09-30T07:39:34Z</time>
      </trkpt>
      <trkpt lat="45.22609" lon="4.22731">
        <ele>770.15</ele>
        <time>2020-09-30T07:39:50Z</time>
      </trkpt>
      <trkpt lat="45.22595" lon="4.22704">
        <ele>767.75</ele>
        <time>2020-09-30T07:40:07Z</time>
      </trkpt>
      <trkpt lat="45.2259" lon="4.22696">
        <ele>768.23</ele>
        <time>2020-09-30T07:40:13Z</time>
      </trkpt>
      <trkpt lat="45.22574" lon="4.22693">
        <ele>768.23</ele>
        <time>2020-09-30T07:40:27Z</time>
      </trkpt>
      <trkpt lat="45.22561" lon="4.22698">
        <ele>770.63</ele>
        <time>2020-09-30T07:40:43Z</time>
      </trkpt>
      <trkpt lat="45.22544" lon="4.22699">
        <ele>774</ele>
        <time>2020-09-30T07:41:01Z</time>
      </trkpt>
      <trkpt lat="45.2253" lon="4.22701">
        <ele>776.4</ele>
        <time>2020-09-30T07:41:16Z</time>
      </trkpt>
      <trkpt lat="45.22518" lon="4.22699">
        <ele>780.25</ele>
        <time>2020-09-30T07:41:25Z</time>
      </trkpt>
      <trkpt lat="45.22491" lon="4.22698">
        <ele>787.94</ele>
        <time>2020-09-30T07:41:43Z</time>
      </trkpt>
      <trkpt lat="45.22477" lon="4.22695">
        <ele>791.78</ele>
        <time>2020-09-30T07:41:57Z</time>
      </trkpt>
      <trkpt lat="45.22473" lon="4.22681">
        <ele>788.9</ele>
        <time>2020-09-30T07:42:11Z</time>
      </trkpt>
      <trkpt lat="45.22474" lon="4.22676">
        <ele>789.86</ele>
        <time>2020-09-30T07:42:23Z</time>
      </trkpt>
      <trkpt lat="45.22473" lon="4.22676">
        <ele>790.82</ele>
        <time>2020-09-30T07:42:38Z</time>
      </trkpt>
      <trkpt lat="45.22472" lon="4.22675">
        <ele>791.3</ele>
        <time>2020-09-30T07:42:53Z</time>
      </trkpt>
      <trkpt lat="45.22474" lon="4.22673">
        <ele>790.82</ele>
        <time>2020-09-30T07:43:07Z</time>
      </trkpt>
      <trkpt lat="45.22478" lon="4.22665">
        <ele>793.22</ele>
        <time>2020-09-30T07:43:24Z</time>
      </trkpt>
      <trkpt lat="45.22483" lon="4.22655">
        <ele>795.15</ele>
        <time>2020-09-30T07:43:36Z</time>
      </trkpt>
      <trkpt lat="45.22493" lon="4.22639">
        <ele>799.47</ele>
        <time>2020-09-30T07:43:53Z</time>
      </trkpt>
      <trkpt lat="45.225" lon="4.22628">
        <ele>800.92</ele>
        <time>2020-09-30T07:44:07Z</time>
      </trkpt>
      <trkpt lat="45.22504" lon="4.22613">
        <ele>800.44</ele>
        <time>2020-09-30T07:44:21Z</time>
      </trkpt>
      <trkpt lat="45.22511" lon="4.226">
        <ele>801.4</ele>
        <time>2020-09-30T07:44:35Z</time>
      </trkpt>
      <trkpt lat="45.22517" lon="4.22582">
        <ele>801.88</ele>
        <time>2020-09-30T07:44:51Z</time>
      </trkpt>
      <trkpt lat="45.22526" lon="4.22558">
        <ele>798.99</ele>
        <time>2020-09-30T07:45:07Z</time>
      </trkpt>
      <trkpt lat="45.22527" lon="4.22525">
        <ele>798.99</ele>
        <time>2020-09-30T07:45:24Z</time>
      </trkpt>
      <trkpt lat="45.22527" lon="4.22516">
        <ele>798.51</ele>
        <time>2020-09-30T07:45:29Z</time>
      </trkpt>
      <trkpt lat="45.22532" lon="4.22492">
        <ele>798.03</ele>
        <time>2020-09-30T07:45:46Z</time>
      </trkpt>
      <trkpt lat="45.22536" lon="4.22468">
        <ele>798.03</ele>
        <time>2020-09-30T07:46:02Z</time>
      </trkpt>
      <trkpt lat="45.22543" lon="4.22443">
        <ele>798.99</ele>
        <time>2020-09-30T07:46:18Z</time>
      </trkpt>
      <trkpt lat="45.2255" lon="4.22419">
        <ele>799.47</ele>
        <time>2020-09-30T07:46:35Z</time>
      </trkpt>
      <trkpt lat="45.22554" lon="4.22404">
        <ele>798.99</ele>
        <time>2020-09-30T07:46:46Z</time>
      </trkpt>
      <trkpt lat="45.22554" lon="4.22398">
        <ele>798.03</ele>
        <time>2020-09-30T07:46:59Z</time>
      </trkpt>
      <trkpt lat="45.22553" lon="4.22397">
        <ele>798.03</ele>
        <time>2020-09-30T07:47:00Z</time>
      </trkpt>
      <trkpt lat="45.22529" lon="4.22397">
        <ele>795.63</ele>
        <time>2020-09-30T07:47:19Z</time>
      </trkpt>
      <trkpt lat="45.22507" lon="4.224">
        <ele>795.15</ele>
        <time>2020-09-30T07:47:36Z</time>
      </trkpt>
      <trkpt lat="45.22485" lon="4.22404">
        <ele>795.15</ele>
        <time>2020-09-30T07:47:52Z</time>
      </trkpt>
      <trkpt lat="45.22461" lon="4.22405">
        <ele>796.59</ele>
        <time>2020-09-30T07:48:12Z</time>
      </trkpt>
      <trkpt lat="45.22451" lon="4.22402">
        <ele>797.55</ele>
        <time>2020-09-30T07:48:21Z</time>
      </trkpt>
      <trkpt lat="45.22431" lon="4.22401">
        <ele>798.51</ele>
        <time>2020-09-30T07:48:37Z</time>
      </trkpt>
      <trkpt lat="45.22412" lon="4.22404">
        <ele>800.92</ele>
        <time>2020-09-30T07:48:54Z</time>
      </trkpt>
      <trkpt lat="45.22393" lon="4.22406">
        <ele>803.32</ele>
        <time>2020-09-30T07:49:11Z</time>
      </trkpt>
      <trkpt lat="45.22378" lon="4.22405">
        <ele>806.2</ele>
        <time>2020-09-30T07:49:26Z</time>
      </trkpt>
      <trkpt lat="45.22365" lon="4.224">
        <ele>807.64</ele>
        <time>2020-09-30T07:49:42Z</time>
      </trkpt>
      <trkpt lat="45.22346" lon="4.22401">
        <ele>806.2</ele>
        <time>2020-09-30T07:49:57Z</time>
      </trkpt>
      <trkpt lat="45.22324" lon="4.22404">
        <ele>803.32</ele>
        <time>2020-09-30T07:50:11Z</time>
      </trkpt>
      <trkpt lat="45.2231" lon="4.22408">
        <ele>804.28</ele>
        <time>2020-09-30T07:50:27Z</time>
      </trkpt>
      <trkpt lat="45.22293" lon="4.22417">
        <ele>806.68</ele>
        <time>2020-09-30T07:50:43Z</time>
      </trkpt>
      <trkpt lat="45.22278" lon="4.22423">
        <ele>808.61</ele>
        <time>2020-09-30T07:50:59Z</time>
      </trkpt>
      <trkpt lat="45.22257" lon="4.22429">
        <ele>811.49</ele>
        <time>2020-09-30T07:51:17Z</time>
      </trkpt>
      <trkpt lat="45.22236" lon="4.22434">
        <ele>811.49</ele>
        <time>2020-09-30T07:51:31Z</time>
      </trkpt>
      <trkpt lat="45.22217" lon="4.22443">
        <ele>814.37</ele>
        <time>2020-09-30T07:51:45Z</time>
      </trkpt>
      <trkpt lat="45.22202" lon="4.22448">
        <ele>812.93</ele>
        <time>2020-09-30T07:52:00Z</time>
      </trkpt>
      <trkpt lat="45.22179" lon="4.2246">
        <ele>815.82</ele>
        <time>2020-09-30T07:52:14Z</time>
      </trkpt>
      <trkpt lat="45.22154" lon="4.22479">
        <ele>813.41</ele>
        <time>2020-09-30T07:52:29Z</time>
      </trkpt>
      <trkpt lat="45.22133" lon="4.22497">
        <ele>811.97</ele>
        <time>2020-09-30T07:52:44Z</time>
      </trkpt>
      <trkpt lat="45.22114" lon="4.22511">
        <ele>808.61</ele>
        <time>2020-09-30T07:53:00Z</time>
      </trkpt>
      <trkpt lat="45.22104" lon="4.2252">
        <ele>804.76</ele>
        <time>2020-09-30T07:53:12Z</time>
      </trkpt>
      <trkpt lat="45.2208" lon="4.2253">
        <ele>796.59</ele>
        <time>2020-09-30T07:53:29Z</time>
      </trkpt>
      <trkpt lat="45.22065" lon="4.22536">
        <ele>794.19</ele>
        <time>2020-09-30T07:53:43Z</time>
      </trkpt>
      <trkpt lat="45.2205" lon="4.22544">
        <ele>791.78</ele>
        <time>2020-09-30T07:53:57Z</time>
      </trkpt>
      <trkpt lat="45.22032" lon="4.22558">
        <ele>789.38</ele>
        <time>2020-09-30T07:54:13Z</time>
      </trkpt>
      <trkpt lat="45.22017" lon="4.22565">
        <ele>786.02</ele>
        <time>2020-09-30T07:54:27Z</time>
      </trkpt>
      <trkpt lat="45.22002" lon="4.22574">
        <ele>785.05</ele>
        <time>2020-09-30T07:54:41Z</time>
      </trkpt>
      <trkpt lat="45.2199" lon="4.22584">
        <ele>783.61</ele>
        <time>2020-09-30T07:54:54Z</time>
      </trkpt>
      <trkpt lat="45.21971" lon="4.22601">
        <ele>782.65</ele>
        <time>2020-09-30T07:55:09Z</time>
      </trkpt>
      <trkpt lat="45.21958" lon="4.22615">
        <ele>781.69</ele>
        <time>2020-09-30T07:55:23Z</time>
      </trkpt>
      <trkpt lat="45.21945" lon="4.22624">
        <ele>781.21</ele>
        <time>2020-09-30T07:55:38Z</time>
      </trkpt>
      <trkpt lat="45.21939" lon="4.22627">
        <ele>778.81</ele>
        <time>2020-09-30T07:55:53Z</time>
      </trkpt>
      <trkpt lat="45.21924" lon="4.22626">
        <ele>776.4</ele>
        <time>2020-09-30T07:56:10Z</time>
      </trkpt>
      <trkpt lat="45.21913" lon="4.22628">
        <ele>772.08</ele>
        <time>2020-09-30T07:56:27Z</time>
      </trkpt>
      <trkpt lat="45.21895" lon="4.22631">
        <ele>770.63</ele>
        <time>2020-09-30T07:56:36Z</time>
      </trkpt>
      <trkpt lat="45.21881" lon="4.2263">
        <ele>767.75</ele>
        <time>2020-09-30T07:56:43Z</time>
      </trkpt>
      <trkpt lat="45.21863" lon="4.22644">
        <ele>760.54</ele>
        <time>2020-09-30T07:56:59Z</time>
      </trkpt>
      <trkpt lat="45.21845" lon="4.22659">
        <ele>758.62</ele>
        <time>2020-09-30T07:57:12Z</time>
      </trkpt>
      <trkpt lat="45.21829" lon="4.22677">
        <ele>755.73</ele>
        <time>2020-09-30T07:57:26Z</time>
      </trkpt>
      <trkpt lat="45.21819" lon="4.22692">
        <ele>755.73</ele>
        <time>2020-09-30T07:57:36Z</time>
      </trkpt>
      <trkpt lat="45.21805" lon="4.22712">
        <ele>753.33</ele>
        <time>2020-09-30T07:57:51Z</time>
      </trkpt>
      <trkpt lat="45.21788" lon="4.22728">
        <ele>753.81</ele>
        <time>2020-09-30T07:58:08Z</time>
      </trkpt>
      <trkpt lat="45.21778" lon="4.22744">
        <ele>752.85</ele>
        <time>2020-09-30T07:58:23Z</time>
      </trkpt>
      <trkpt lat="45.21769" lon="4.22763">
        <ele>752.85</ele>
        <time>2020-09-30T07:58:38Z</time>
      </trkpt>
      <trkpt lat="45.21762" lon="4.22782">
        <ele>754.29</ele>
        <time>2020-09-30T07:58:53Z</time>
      </trkpt>
      <trkpt lat="45.21762" lon="4.22785">
        <ele>754.29</ele>
        <time>2020-09-30T07:58:55Z</time>
      </trkpt>
      <trkpt lat="45.21756" lon="4.22808">
        <ele>753.81</ele>
        <time>2020-09-30T07:59:10Z</time>
      </trkpt>
      <trkpt lat="45.21753" lon="4.22829">
        <ele>755.73</ele>
        <time>2020-09-30T07:59:22Z</time>
      </trkpt>
      <trkpt lat="45.21758" lon="4.22847">
        <ele>752.85</ele>
        <time>2020-09-30T07:59:36Z</time>
      </trkpt>
      <trkpt lat="45.2177" lon="4.22861">
        <ele>740.35</ele>
        <time>2020-09-30T07:59:49Z</time>
      </trkpt>
      <trkpt lat="45.21779" lon="4.22865">
        <ele>738.43</ele>
        <time>2020-09-30T08:00:00Z</time>
      </trkpt>
      <trkpt lat="45.21777" lon="4.22869">
        <ele>740.83</ele>
        <time>2020-09-30T08:00:08Z</time>
      </trkpt>
      <trkpt lat="45.21769" lon="4.22878">
        <ele>745.16</ele>
        <time>2020-09-30T08:00:23Z</time>
      </trkpt>
      <trkpt lat="45.21758" lon="4.22893">
        <ele>736.51</ele>
        <time>2020-09-30T08:00:41Z</time>
      </trkpt>
      <trkpt lat="45.21742" lon="4.22898">
        <ele>727.86</ele>
        <time>2020-09-30T08:00:56Z</time>
      </trkpt>
      <trkpt lat="45.21739" lon="4.22898">
        <ele>728.34</ele>
        <time>2020-09-30T08:00:59Z</time>
      </trkpt>
      <trkpt lat="45.21735" lon="4.22897">
        <ele>728.82</ele>
        <time>2020-09-30T08:01:04Z</time>
      </trkpt>
      <trkpt lat="45.2172" lon="4.22889">
        <ele>727.86</ele>
        <time>2020-09-30T08:01:20Z</time>
      </trkpt>
      <trkpt lat="45.21719" lon="4.22888">
        <ele>727.86</ele>
        <time>2020-09-30T08:01:21Z</time>
      </trkpt>
      <trkpt lat="45.21707" lon="4.22869">
        <ele>726.89</ele>
        <time>2020-09-30T08:01:36Z</time>
      </trkpt>
      <trkpt lat="45.21699" lon="4.22851">
        <ele>724.97</ele>
        <time>2020-09-30T08:01:49Z</time>
      </trkpt>
      <trkpt lat="45.21696" lon="4.22844">
        <ele>723.05</ele>
        <time>2020-09-30T08:01:53Z</time>
      </trkpt>
      <trkpt lat="45.21691" lon="4.22815">
        <ele>716.8</ele>
        <time>2020-09-30T08:02:10Z</time>
      </trkpt>
      <trkpt lat="45.21687" lon="4.22788">
        <ele>713.92</ele>
        <time>2020-09-30T08:02:25Z</time>
      </trkpt>
      <trkpt lat="45.21685" lon="4.22768">
        <ele>711.99</ele>
        <time>2020-09-30T08:02:36Z</time>
      </trkpt>
      <trkpt lat="45.21685" lon="4.22751">
        <ele>710.55</ele>
        <time>2020-09-30T08:02:49Z</time>
      </trkpt>
      <trkpt lat="45.21682" lon="4.22734">
        <ele>709.59</ele>
        <time>2020-09-30T08:03:02Z</time>
      </trkpt>
      <trkpt lat="45.21678" lon="4.22725">
        <ele>705.75</ele>
        <time>2020-09-30T08:03:14Z</time>
      </trkpt>
      <trkpt lat="45.21675" lon="4.22729">
        <ele>700.46</ele>
        <time>2020-09-30T08:03:24Z</time>
      </trkpt>
      <trkpt lat="45.21666" lon="4.22741">
        <ele>694.21</ele>
        <time>2020-09-30T08:03:39Z</time>
      </trkpt>
      <trkpt lat="45.21665" lon="4.22743">
        <ele>693.73</ele>
        <time>2020-09-30T08:03:41Z</time>
      </trkpt>
      <trkpt lat="45.21664" lon="4.22747">
        <ele>692.29</ele>
        <time>2020-09-30T08:03:44Z</time>
      </trkpt>
      <trkpt lat="45.21656" lon="4.22769">
        <ele>686.04</ele>
        <time>2020-09-30T08:03:59Z</time>
      </trkpt>
      <trkpt lat="45.21651" lon="4.22788">
        <ele>683.63</ele>
        <time>2020-09-30T08:04:14Z</time>
      </trkpt>
      <trkpt lat="45.21647" lon="4.22809">
        <ele>686.52</ele>
        <time>2020-09-30T08:04:31Z</time>
      </trkpt>
      <trkpt lat="45.21646" lon="4.22814">
        <ele>686.52</ele>
        <time>2020-09-30T08:04:34Z</time>
      </trkpt>
      <trkpt lat="45.2164" lon="4.22833">
        <ele>686.52</ele>
        <time>2020-09-30T08:04:49Z</time>
      </trkpt>
      <trkpt lat="45.21636" lon="4.22853">
        <ele>687.48</ele>
        <time>2020-09-30T08:05:05Z</time>
      </trkpt>
      <trkpt lat="45.21629" lon="4.22874">
        <ele>687</ele>
        <time>2020-09-30T08:05:19Z</time>
      </trkpt>
      <trkpt lat="45.21625" lon="4.22897">
        <ele>685.08</ele>
        <time>2020-09-30T08:05:31Z</time>
      </trkpt>
      <trkpt lat="45.21623" lon="4.22924">
        <ele>683.15</ele>
        <time>2020-09-30T08:05:49Z</time>
      </trkpt>
      <trkpt lat="45.21628" lon="4.22948">
        <ele>666.33</ele>
        <time>2020-09-30T08:06:05Z</time>
      </trkpt>
      <trkpt lat="45.21631" lon="4.22953">
        <ele>662.49</ele>
        <time>2020-09-30T08:06:22Z</time>
      </trkpt>
      <trkpt lat="45.21633" lon="4.22958">
        <ele>658.16</ele>
        <time>2020-09-30T08:06:35Z</time>
      </trkpt>
      <trkpt lat="45.21629" lon="4.2296">
        <ele>658.16</ele>
        <time>2020-09-30T08:06:48Z</time>
      </trkpt>
      <trkpt lat="45.21628" lon="4.2296">
        <ele>656.24</ele>
        <time>2020-09-30T08:07:04Z</time>
      </trkpt>
      <trkpt lat="45.21626" lon="4.22955">
        <ele>655.76</ele>
        <time>2020-09-30T08:07:18Z</time>
      </trkpt>
      <trkpt lat="45.21617" lon="4.22933">
        <ele>657.68</ele>
        <time>2020-09-30T08:07:36Z</time>
      </trkpt>
      <trkpt lat="45.21608" lon="4.22905">
        <ele>653.83</ele>
        <time>2020-09-30T08:07:50Z</time>
      </trkpt>
      <trkpt lat="45.21602" lon="4.22898">
        <ele>651.43</ele>
        <time>2020-09-30T08:08:04Z</time>
      </trkpt>
      <trkpt lat="45.2159" lon="4.22911">
        <ele>647.59</ele>
        <time>2020-09-30T08:08:21Z</time>
      </trkpt>
      <trkpt lat="45.21576" lon="4.22928">
        <ele>647.1</ele>
        <time>2020-09-30T08:08:40Z</time>
      </trkpt>
      <trkpt lat="45.2157" lon="4.22933">
        <ele>644.7</ele>
        <time>2020-09-30T08:08:53Z</time>
      </trkpt>
      <trkpt lat="45.21569" lon="4.22921">
        <ele>645.66</ele>
        <time>2020-09-30T08:09:07Z</time>
      </trkpt>
      <trkpt lat="45.21573" lon="4.22901">
        <ele>639.89</ele>
        <time>2020-09-30T08:09:23Z</time>
      </trkpt>
      <trkpt lat="45.21574" lon="4.22896">
        <ele>637.97</ele>
        <time>2020-09-30T08:09:30Z</time>
      </trkpt>
      <trkpt lat="45.21576" lon="4.22877">
        <ele>637.49</ele>
        <time>2020-09-30T08:09:45Z</time>
      </trkpt>
      <trkpt lat="45.21577" lon="4.22861">
        <ele>632.68</ele>
        <time>2020-09-30T08:10:01Z</time>
      </trkpt>
      <trkpt lat="45.21577" lon="4.22861">
        <ele>630.28</ele>
        <time>2020-09-30T08:10:19Z</time>
      </trkpt>
      <trkpt lat="45.21571" lon="4.22855">
        <ele>625.47</ele>
        <time>2020-09-30T08:10:36Z</time>
      </trkpt>
      <trkpt lat="45.21566" lon="4.22858">
        <ele>624.03</ele>
        <time>2020-09-30T08:10:52Z</time>
      </trkpt>
      <trkpt lat="45.21565" lon="4.22857">
        <ele>621.63</ele>
        <time>2020-09-30T08:11:07Z</time>
      </trkpt>
      <trkpt lat="45.21563" lon="4.22857">
        <ele>618.75</ele>
        <time>2020-09-30T08:11:29Z</time>
      </trkpt>
      <trkpt lat="45.21562" lon="4.22854">
        <ele>616.34</ele>
        <time>2020-09-30T08:11:56Z</time>
      </trkpt>
      <trkpt lat="45.21561" lon="4.22854">
        <ele>614.9</ele>
        <time>2020-09-30T08:12:15Z</time>
      </trkpt>
      <trkpt lat="45.2156" lon="4.22855">
        <ele>614.42</ele>
        <time>2020-09-30T08:12:34Z</time>
      </trkpt>
      <trkpt lat="45.21552" lon="4.22867">
        <ele>617.78</ele>
        <time>2020-09-30T08:12:51Z</time>
      </trkpt>
      <trkpt lat="45.21537" lon="4.22884">
        <ele>618.26</ele>
        <time>2020-09-30T08:13:08Z</time>
      </trkpt>
      <trkpt lat="45.21535" lon="4.22887">
        <ele>618.26</ele>
        <time>2020-09-30T08:13:10Z</time>
      </trkpt>
      <trkpt lat="45.21525" lon="4.22897">
        <ele>618.26</ele>
        <time>2020-09-30T08:13:26Z</time>
      </trkpt>
      <trkpt lat="45.21514" lon="4.22899">
        <ele>617.78</ele>
        <time>2020-09-30T08:13:43Z</time>
      </trkpt>
      <trkpt lat="45.21507" lon="4.22899">
        <ele>620.19</ele>
        <time>2020-09-30T08:13:57Z</time>
      </trkpt>
      <trkpt lat="45.21502" lon="4.22899">
        <ele>623.55</ele>
        <time>2020-09-30T08:14:10Z</time>
      </trkpt>
      <trkpt lat="45.21494" lon="4.229">
        <ele>629.32</ele>
        <time>2020-09-30T08:14:23Z</time>
      </trkpt>
      <trkpt lat="45.21492" lon="4.22897">
        <ele>632.2</ele>
        <time>2020-09-30T08:14:36Z</time>
      </trkpt>
      <trkpt lat="45.21488" lon="4.22888">
        <ele>636.53</ele>
        <time>2020-09-30T08:14:53Z</time>
      </trkpt>
      <trkpt lat="45.21489" lon="4.22877">
        <ele>636.53</ele>
        <time>2020-09-30T08:15:07Z</time>
      </trkpt>
      <trkpt lat="45.21494" lon="4.22864">
        <ele>637.97</ele>
        <time>2020-09-30T08:15:17Z</time>
      </trkpt>
      <trkpt lat="45.21494" lon="4.22834">
        <ele>635.09</ele>
        <time>2020-09-30T08:15:32Z</time>
      </trkpt>
      <trkpt lat="45.21493" lon="4.22817">
        <ele>634.13</ele>
        <time>2020-09-30T08:15:49Z</time>
      </trkpt>
      <trkpt lat="45.21492" lon="4.22812">
        <ele>634.61</ele>
        <time>2020-09-30T08:16:02Z</time>
      </trkpt>
      <trkpt lat="45.21491" lon="4.22787">
        <ele>637.49</ele>
        <time>2020-09-30T08:16:17Z</time>
      </trkpt>
      <trkpt lat="45.21492" lon="4.2276">
        <ele>639.89</ele>
        <time>2020-09-30T08:16:34Z</time>
      </trkpt>
      <trkpt lat="45.21486" lon="4.22739">
        <ele>644.7</ele>
        <time>2020-09-30T08:16:50Z</time>
      </trkpt>
      <trkpt lat="45.21481" lon="4.2272">
        <ele>649.51</ele>
        <time>2020-09-30T08:17:07Z</time>
      </trkpt>
      <trkpt lat="45.21477" lon="4.22706">
        <ele>656.24</ele>
        <time>2020-09-30T08:17:21Z</time>
      </trkpt>
      <trkpt lat="45.2147" lon="4.22692">
        <ele>662.97</ele>
        <time>2020-09-30T08:17:35Z</time>
      </trkpt>
      <trkpt lat="45.21465" lon="4.22671">
        <ele>668.25</ele>
        <time>2020-09-30T08:17:52Z</time>
      </trkpt>
      <trkpt lat="45.21461" lon="4.22661">
        <ele>671.14</ele>
        <time>2020-09-30T08:18:05Z</time>
      </trkpt>
      <trkpt lat="45.21454" lon="4.22645">
        <ele>675.46</ele>
        <time>2020-09-30T08:18:20Z</time>
      </trkpt>
      <trkpt lat="45.21444" lon="4.22636">
        <ele>677.87</ele>
        <time>2020-09-30T08:18:38Z</time>
      </trkpt>
      <trkpt lat="45.21434" lon="4.2262">
        <ele>674.98</ele>
        <time>2020-09-30T08:18:57Z</time>
      </trkpt>
      <trkpt lat="45.2142" lon="4.22612">
        <ele>678.35</ele>
        <time>2020-09-30T08:19:13Z</time>
      </trkpt>
      <trkpt lat="45.21404" lon="4.22602">
        <ele>681.71</ele>
        <time>2020-09-30T08:19:27Z</time>
      </trkpt>
      <trkpt lat="45.21386" lon="4.2259">
        <ele>684.6</ele>
        <time>2020-09-30T08:19:43Z</time>
      </trkpt>
      <trkpt lat="45.21365" lon="4.2258">
        <ele>683.15</ele>
        <time>2020-09-30T08:20:00Z</time>
      </trkpt>
      <trkpt lat="45.2135" lon="4.22576">
        <ele>681.23</ele>
        <time>2020-09-30T08:20:16Z</time>
      </trkpt>
      <trkpt lat="45.21328" lon="4.22573">
        <ele>679.79</ele>
        <time>2020-09-30T08:20:33Z</time>
      </trkpt>
      <trkpt lat="45.21309" lon="4.22576">
        <ele>677.39</ele>
        <time>2020-09-30T08:20:50Z</time>
      </trkpt>
      <trkpt lat="45.21302" lon="4.22574">
        <ele>676.42</ele>
        <time>2020-09-30T08:21:01Z</time>
      </trkpt>
      <trkpt lat="45.21302" lon="4.22576">
        <ele>675.94</ele>
        <time>2020-09-30T08:21:12Z</time>
      </trkpt>
      <trkpt lat="45.21303" lon="4.22576">
        <ele>675.94</ele>
        <time>2020-09-30T08:21:32Z</time>
      </trkpt>
      <trkpt lat="45.21303" lon="4.22576">
        <ele>677.39</ele>
        <time>2020-09-30T08:21:50Z</time>
      </trkpt>
      <trkpt lat="45.21303" lon="4.22576">
        <ele>676.91</ele>
        <time>2020-09-30T08:22:00Z</time>
      </trkpt>
      <trkpt lat="45.21303" lon="4.22576">
        <ele>676.91</ele>
        <time>2020-09-30T08:22:05Z</time>
      </trkpt>
      <trkpt lat="45.21305" lon="4.22573">
        <ele>676.91</ele>
        <time>2020-09-30T08:22:24Z</time>
      </trkpt>
      <trkpt lat="45.21304" lon="4.22574">
        <ele>676.42</ele>
        <time>2020-09-30T08:22:33Z</time>
      </trkpt>
      <trkpt lat="45.21305" lon="4.22577">
        <ele>676.42</ele>
        <time>2020-09-30T08:22:44Z</time>
      </trkpt>
      <trkpt lat="45.21305" lon="4.22577">
        <ele>675.94</ele>
        <time>2020-09-30T08:23:07Z</time>
      </trkpt>
      <trkpt lat="45.21304" lon="4.22577">
        <ele>675.94</ele>
        <time>2020-09-30T08:23:35Z</time>
      </trkpt>
      <trkpt lat="45.21305" lon="4.22576">
        <ele>675.46</ele>
        <time>2020-09-30T08:23:49Z</time>
      </trkpt>
      <trkpt lat="45.21304" lon="4.22575">
        <ele>674.02</ele>
        <time>2020-09-30T08:24:00Z</time>
      </trkpt>
      <trkpt lat="45.21304" lon="4.22578">
        <ele>674.5</ele>
        <time>2020-09-30T08:24:20Z</time>
      </trkpt>
      <trkpt lat="45.21305" lon="4.22579">
        <ele>674.5</ele>
        <time>2020-09-30T08:24:31Z</time>
      </trkpt>
      <trkpt lat="45.21303" lon="4.22578">
        <ele>675.46</ele>
        <time>2020-09-30T08:24:44Z</time>
      </trkpt>
      <trkpt lat="45.21303" lon="4.22579">
        <ele>675.46</ele>
        <time>2020-09-30T08:25:04Z</time>
      </trkpt>
      <trkpt lat="45.21303" lon="4.2258">
        <ele>675.46</ele>
        <time>2020-09-30T08:25:26Z</time>
      </trkpt>
      <trkpt lat="45.21303" lon="4.22579">
        <ele>675.94</ele>
        <time>2020-09-30T08:25:43Z</time>
      </trkpt>
      <trkpt lat="45.21303" lon="4.22579">
        <ele>675.46</ele>
        <time>2020-09-30T08:26:02Z</time>
      </trkpt>
      <trkpt lat="45.21302" lon="4.22578">
        <ele>674.98</ele>
        <time>2020-09-30T08:26:28Z</time>
      </trkpt>
      <trkpt lat="45.21302" lon="4.2258">
        <ele>674.5</ele>
        <time>2020-09-30T08:26:38Z</time>
      </trkpt>
      <trkpt lat="45.21293" lon="4.22584">
        <ele>675.94</ele>
        <time>2020-09-30T08:26:52Z</time>
      </trkpt>
      <trkpt lat="45.21288" lon="4.22591">
        <ele>677.39</ele>
        <time>2020-09-30T08:27:04Z</time>
      </trkpt>
      <trkpt lat="45.2129" lon="4.22587">
        <ele>677.39</ele>
        <time>2020-09-30T08:27:11Z</time>
      </trkpt>
      <trkpt lat="45.21291" lon="4.22585">
        <ele>676.91</ele>
        <time>2020-09-30T08:27:13Z</time>
      </trkpt>
      <trkpt lat="45.21296" lon="4.2258">
        <ele>675.94</ele>
        <time>2020-09-30T08:27:18Z</time>
      </trkpt>
      <trkpt lat="45.21295" lon="4.22573">
        <ele>675.46</ele>
        <time>2020-09-30T08:27:29Z</time>
      </trkpt>
      <trkpt lat="45.21291" lon="4.22571">
        <ele>674.98</ele>
        <time>2020-09-30T08:27:33Z</time>
      </trkpt>
      <trkpt lat="45.21272" lon="4.22567">
        <ele>673.06</ele>
        <time>2020-09-30T08:27:50Z</time>
      </trkpt>
      <trkpt lat="45.21271" lon="4.22566">
        <ele>673.06</ele>
        <time>2020-09-30T08:27:51Z</time>
      </trkpt>
      <trkpt lat="45.21266" lon="4.22566">
        <ele>672.1</ele>
        <time>2020-09-30T08:27:58Z</time>
      </trkpt>
      <trkpt lat="45.21272" lon="4.22565">
        <ele>672.1</ele>
        <time>2020-09-30T08:28:05Z</time>
      </trkpt>
      <trkpt lat="45.21289" lon="4.22569">
        <ele>673.54</ele>
        <time>2020-09-30T08:28:21Z</time>
      </trkpt>
      <trkpt lat="45.21299" lon="4.22576">
        <ele>674.5</ele>
        <time>2020-09-30T08:28:31Z</time>
      </trkpt>
      <trkpt lat="45.21293" lon="4.22583">
        <ele>675.94</ele>
        <time>2020-09-30T08:28:38Z</time>
      </trkpt>
      <trkpt lat="45.21295" lon="4.22591">
        <ele>677.39</ele>
        <time>2020-09-30T08:28:46Z</time>
      </trkpt>
      <trkpt lat="45.21306" lon="4.22598">
        <ele>679.31</ele>
        <time>2020-09-30T08:29:00Z</time>
      </trkpt>
      <trkpt lat="45.21315" lon="4.2261">
        <ele>683.63</ele>
        <time>2020-09-30T08:29:13Z</time>
      </trkpt>
      <trkpt lat="45.21318" lon="4.22624">
        <ele>687</ele>
        <time>2020-09-30T08:29:25Z</time>
      </trkpt>
      <trkpt lat="45.21324" lon="4.22644">
        <ele>688.92</ele>
        <time>2020-09-30T08:29:40Z</time>
      </trkpt>
      <trkpt lat="45.21332" lon="4.22661">
        <ele>689.88</ele>
        <time>2020-09-30T08:29:54Z</time>
      </trkpt>
      <trkpt lat="45.21339" lon="4.22675">
        <ele>693.25</ele>
        <time>2020-09-30T08:30:07Z</time>
      </trkpt>
      <trkpt lat="45.21343" lon="4.2269">
        <ele>694.69</ele>
        <time>2020-09-30T08:30:20Z</time>
      </trkpt>
      <trkpt lat="45.21348" lon="4.22702">
        <ele>696.61</ele>
        <time>2020-09-30T08:30:30Z</time>
      </trkpt>
      <trkpt lat="45.21352" lon="4.22713">
        <ele>697.09</ele>
        <time>2020-09-30T08:30:38Z</time>
      </trkpt>
      <trkpt lat="45.21358" lon="4.22729">
        <ele>699.5</ele>
        <time>2020-09-30T08:30:52Z</time>
      </trkpt>
      <trkpt lat="45.21365" lon="4.22748">
        <ele>703.34</ele>
        <time>2020-09-30T08:31:07Z</time>
      </trkpt>
      <trkpt lat="45.21365" lon="4.22749">
        <ele>704.3</ele>
        <time>2020-09-30T08:31:08Z</time>
      </trkpt>
      <trkpt lat="45.21366" lon="4.22755">
        <ele>706.23</ele>
        <time>2020-09-30T08:31:13Z</time>
      </trkpt>
      <trkpt lat="45.21367" lon="4.2277">
        <ele>710.07</ele>
        <time>2020-09-30T08:31:26Z</time>
      </trkpt>
      <trkpt lat="45.21367" lon="4.22782">
        <ele>713.92</ele>
        <time>2020-09-30T08:31:37Z</time>
      </trkpt>
      <trkpt lat="45.21362" lon="4.22796">
        <ele>716.32</ele>
        <time>2020-09-30T08:31:50Z</time>
      </trkpt>
      <trkpt lat="45.21358" lon="4.22808">
        <ele>721.61</ele>
        <time>2020-09-30T08:32:06Z</time>
      </trkpt>
      <trkpt lat="45.21354" lon="4.2282">
        <ele>723.53</ele>
        <time>2020-09-30T08:32:20Z</time>
      </trkpt>
      <trkpt lat="45.21351" lon="4.22828">
        <ele>724.49</ele>
        <time>2020-09-30T08:32:31Z</time>
      </trkpt>
      <trkpt lat="45.21345" lon="4.22843">
        <ele>727.86</ele>
        <time>2020-09-30T08:32:46Z</time>
      </trkpt>
      <trkpt lat="45.21335" lon="4.22862">
        <ele>729.3</ele>
        <time>2020-09-30T08:33:02Z</time>
      </trkpt>
      <trkpt lat="45.21328" lon="4.22879">
        <ele>732.66</ele>
        <time>2020-09-30T08:33:18Z</time>
      </trkpt>
      <trkpt lat="45.21323" lon="4.22898">
        <ele>735.55</ele>
        <time>2020-09-30T08:33:33Z</time>
      </trkpt>
      <trkpt lat="45.21318" lon="4.22916">
        <ele>736.99</ele>
        <time>2020-09-30T08:33:47Z</time>
      </trkpt>
      <trkpt lat="45.21318" lon="4.22918">
        <ele>736.99</ele>
        <time>2020-09-30T08:33:49Z</time>
      </trkpt>
      <trkpt lat="45.21313" lon="4.22937">
        <ele>736.99</ele>
        <time>2020-09-30T08:34:04Z</time>
      </trkpt>
      <trkpt lat="45.21308" lon="4.22956">
        <ele>737.95</ele>
        <time>2020-09-30T08:34:18Z</time>
      </trkpt>
      <trkpt lat="45.21307" lon="4.22965">
        <ele>737.47</ele>
        <time>2020-09-30T08:34:24Z</time>
      </trkpt>
      <trkpt lat="45.21307" lon="4.2297">
        <ele>737.95</ele>
        <time>2020-09-30T08:34:28Z</time>
      </trkpt>
      <trkpt lat="45.21305" lon="4.22997">
        <ele>739.39</ele>
        <time>2020-09-30T08:34:46Z</time>
      </trkpt>
      <trkpt lat="45.21302" lon="4.23019">
        <ele>738.91</ele>
        <time>2020-09-30T08:35:01Z</time>
      </trkpt>
      <trkpt lat="45.213" lon="4.23031">
        <ele>739.39</ele>
        <time>2020-09-30T08:35:13Z</time>
      </trkpt>
      <trkpt lat="45.21299" lon="4.23038">
        <ele>739.87</ele>
        <time>2020-09-30T08:35:19Z</time>
      </trkpt>
      <trkpt lat="45.21298" lon="4.23058">
        <ele>742.28</ele>
        <time>2020-09-30T08:35:35Z</time>
      </trkpt>
      <trkpt lat="45.21294" lon="4.23083">
        <ele>748.04</ele>
        <time>2020-09-30T08:35:52Z</time>
      </trkpt>
      <trkpt lat="45.21292" lon="4.23102">
        <ele>753.33</ele>
        <time>2020-09-30T08:36:08Z</time>
      </trkpt>
      <trkpt lat="45.21289" lon="4.23117">
        <ele>759.1</ele>
        <time>2020-09-30T08:36:21Z</time>
      </trkpt>
      <trkpt lat="45.21285" lon="4.23132">
        <ele>761.02</ele>
        <time>2020-09-30T08:36:33Z</time>
      </trkpt>
      <trkpt lat="45.21283" lon="4.23145">
        <ele>761.5</ele>
        <time>2020-09-30T08:36:42Z</time>
      </trkpt>
      <trkpt lat="45.21281" lon="4.23165">
        <ele>763.42</ele>
        <time>2020-09-30T08:36:56Z</time>
      </trkpt>
      <trkpt lat="45.21279" lon="4.23181">
        <ele>764.87</ele>
        <time>2020-09-30T08:37:11Z</time>
      </trkpt>
      <trkpt lat="45.21279" lon="4.23191">
        <ele>765.83</ele>
        <time>2020-09-30T08:37:20Z</time>
      </trkpt>
      <trkpt lat="45.21278" lon="4.23198">
        <ele>765.35</ele>
        <time>2020-09-30T08:37:25Z</time>
      </trkpt>
      <trkpt lat="45.21274" lon="4.23225">
        <ele>761.02</ele>
        <time>2020-09-30T08:37:44Z</time>
      </trkpt>
      <trkpt lat="45.21271" lon="4.23239">
        <ele>760.54</ele>
        <time>2020-09-30T08:37:54Z</time>
      </trkpt>
      <trkpt lat="45.21271" lon="4.23241">
        <ele>760.54</ele>
        <time>2020-09-30T08:37:56Z</time>
      </trkpt>
      <trkpt lat="45.21266" lon="4.23267">
        <ele>759.1</ele>
        <time>2020-09-30T08:38:11Z</time>
      </trkpt>
      <trkpt lat="45.21265" lon="4.23285">
        <ele>761.02</ele>
        <time>2020-09-30T08:38:24Z</time>
      </trkpt>
      <trkpt lat="45.21263" lon="4.23305">
        <ele>763.42</ele>
        <time>2020-09-30T08:38:39Z</time>
      </trkpt>
      <trkpt lat="45.21263" lon="4.23307">
        <ele>763.42</ele>
        <time>2020-09-30T08:38:40Z</time>
      </trkpt>
      <trkpt lat="45.21263" lon="4.23311">
        <ele>763.9</ele>
        <time>2020-09-30T08:38:43Z</time>
      </trkpt>
      <trkpt lat="45.21262" lon="4.23333">
        <ele>766.79</ele>
        <time>2020-09-30T08:38:59Z</time>
      </trkpt>
      <trkpt lat="45.21259" lon="4.23353">
        <ele>769.19</ele>
        <time>2020-09-30T08:39:13Z</time>
      </trkpt>
      <trkpt lat="45.21259" lon="4.23375">
        <ele>771.11</ele>
        <time>2020-09-30T08:39:28Z</time>
      </trkpt>
      <trkpt lat="45.2126" lon="4.23393">
        <ele>774</ele>
        <time>2020-09-30T08:39:40Z</time>
      </trkpt>
      <trkpt lat="45.21257" lon="4.23409">
        <ele>774.96</ele>
        <time>2020-09-30T08:39:54Z</time>
      </trkpt>
      <trkpt lat="45.21256" lon="4.23414">
        <ele>775.44</ele>
        <time>2020-09-30T08:40:07Z</time>
      </trkpt>
      <trkpt lat="45.21257" lon="4.23414">
        <ele>775.44</ele>
        <time>2020-09-30T08:40:22Z</time>
      </trkpt>
      <trkpt lat="45.21256" lon="4.23414">
        <ele>775.92</ele>
        <time>2020-09-30T08:40:43Z</time>
      </trkpt>
      <trkpt lat="45.21256" lon="4.23415">
        <ele>775.44</ele>
        <time>2020-09-30T08:41:00Z</time>
      </trkpt>
      <trkpt lat="45.21256" lon="4.23416">
        <ele>775.44</ele>
        <time>2020-09-30T08:41:16Z</time>
      </trkpt>
      <trkpt lat="45.21254" lon="4.23426">
        <ele>775.92</ele>
        <time>2020-09-30T08:41:37Z</time>
      </trkpt>
      <trkpt lat="45.21248" lon="4.23442">
        <ele>775.92</ele>
        <time>2020-09-30T08:41:50Z</time>
      </trkpt>
      <trkpt lat="45.21241" lon="4.23462">
        <ele>778.32</ele>
        <time>2020-09-30T08:42:05Z</time>
      </trkpt>
      <trkpt lat="45.21233" lon="4.23481">
        <ele>779.77</ele>
        <time>2020-09-30T08:42:20Z</time>
      </trkpt>
      <trkpt lat="45.21232" lon="4.23482">
        <ele>780.25</ele>
        <time>2020-09-30T08:42:21Z</time>
      </trkpt>
      <trkpt lat="45.21226" lon="4.23491">
        <ele>781.69</ele>
        <time>2020-09-30T08:42:34Z</time>
      </trkpt>
      <trkpt lat="45.21208" lon="4.23507">
        <ele>783.61</ele>
        <time>2020-09-30T08:42:51Z</time>
      </trkpt>
      <trkpt lat="45.21195" lon="4.23514">
        <ele>786.02</ele>
        <time>2020-09-30T08:43:03Z</time>
      </trkpt>
      <trkpt lat="45.21181" lon="4.23524">
        <ele>788.42</ele>
        <time>2020-09-30T08:43:19Z</time>
      </trkpt>
      <trkpt lat="45.21175" lon="4.23526">
        <ele>788.9</ele>
        <time>2020-09-30T08:43:24Z</time>
      </trkpt>
      <trkpt lat="45.21158" lon="4.23535">
        <ele>790.82</ele>
        <time>2020-09-30T08:43:39Z</time>
      </trkpt>
      <trkpt lat="45.21144" lon="4.23538">
        <ele>793.22</ele>
        <time>2020-09-30T08:43:54Z</time>
      </trkpt>
      <trkpt lat="45.21133" lon="4.23541">
        <ele>795.15</ele>
        <time>2020-09-30T08:44:05Z</time>
      </trkpt>
      <trkpt lat="45.21126" lon="4.23541">
        <ele>796.59</ele>
        <time>2020-09-30T08:44:17Z</time>
      </trkpt>
      <trkpt lat="45.21107" lon="4.23547">
        <ele>797.07</ele>
        <time>2020-09-30T08:44:34Z</time>
      </trkpt>
      <trkpt lat="45.21089" lon="4.23556">
        <ele>798.03</ele>
        <time>2020-09-30T08:44:49Z</time>
      </trkpt>
      <trkpt lat="45.21065" lon="4.23564">
        <ele>798.51</ele>
        <time>2020-09-30T08:45:07Z</time>
      </trkpt>
      <trkpt lat="45.21049" lon="4.23564">
        <ele>798.99</ele>
        <time>2020-09-30T08:45:18Z</time>
      </trkpt>
      <trkpt lat="45.21043" lon="4.23562">
        <ele>799.47</ele>
        <time>2020-09-30T08:45:23Z</time>
      </trkpt>
      <trkpt lat="45.21034" lon="4.2356">
        <ele>799.47</ele>
        <time>2020-09-30T08:45:30Z</time>
      </trkpt>
      <trkpt lat="45.21017" lon="4.23557">
        <ele>800.44</ele>
        <time>2020-09-30T08:45:43Z</time>
      </trkpt>
      <trkpt lat="45.20999" lon="4.23558">
        <ele>802.84</ele>
        <time>2020-09-30T08:45:58Z</time>
      </trkpt>
      <trkpt lat="45.20997" lon="4.23559">
        <ele>803.32</ele>
        <time>2020-09-30T08:46:00Z</time>
      </trkpt>
      <trkpt lat="45.20993" lon="4.23557">
        <ele>803.8</ele>
        <time>2020-09-30T08:46:11Z</time>
      </trkpt>
      <trkpt lat="45.20993" lon="4.23558">
        <ele>803.8</ele>
        <time>2020-09-30T08:46:13Z</time>
      </trkpt>
      <trkpt lat="45.20991" lon="4.2356">
        <ele>803.8</ele>
        <time>2020-09-30T08:46:15Z</time>
      </trkpt>
      <trkpt lat="45.20969" lon="4.23563">
        <ele>805.72</ele>
        <time>2020-09-30T08:46:30Z</time>
      </trkpt>
      <trkpt lat="45.20946" lon="4.23562">
        <ele>806.2</ele>
        <time>2020-09-30T08:46:45Z</time>
      </trkpt>
      <trkpt lat="45.2094" lon="4.23562">
        <ele>805.72</ele>
        <time>2020-09-30T08:46:50Z</time>
      </trkpt>
      <trkpt lat="45.20921" lon="4.23557">
        <ele>804.76</ele>
        <time>2020-09-30T08:47:04Z</time>
      </trkpt>
      <trkpt lat="45.20903" lon="4.23552">
        <ele>805.72</ele>
        <time>2020-09-30T08:47:19Z</time>
      </trkpt>
      <trkpt lat="45.20885" lon="4.23554">
        <ele>807.16</ele>
        <time>2020-09-30T08:47:32Z</time>
      </trkpt>
      <trkpt lat="45.20862" lon="4.23557">
        <ele>807.64</ele>
        <time>2020-09-30T08:47:49Z</time>
      </trkpt>
      <trkpt lat="45.20841" lon="4.23563">
        <ele>807.16</ele>
        <time>2020-09-30T08:48:06Z</time>
      </trkpt>
      <trkpt lat="45.20819" lon="4.23578">
        <ele>805.24</ele>
        <time>2020-09-30T08:48:25Z</time>
      </trkpt>
      <trkpt lat="45.20802" lon="4.23594">
        <ele>804.76</ele>
        <time>2020-09-30T08:48:42Z</time>
      </trkpt>
      <trkpt lat="45.20797" lon="4.23597">
        <ele>804.76</ele>
        <time>2020-09-30T08:48:46Z</time>
      </trkpt>
      <trkpt lat="45.20778" lon="4.23617">
        <ele>804.76</ele>
        <time>2020-09-30T08:49:05Z</time>
      </trkpt>
      <trkpt lat="45.20761" lon="4.23637">
        <ele>805.24</ele>
        <time>2020-09-30T08:49:23Z</time>
      </trkpt>
      <trkpt lat="45.20755" lon="4.23643">
        <ele>806.2</ele>
        <time>2020-09-30T08:49:29Z</time>
      </trkpt>
      <trkpt lat="45.20745" lon="4.23651">
        <ele>804.76</ele>
        <time>2020-09-30T08:49:43Z</time>
      </trkpt>
      <trkpt lat="45.20735" lon="4.2366">
        <ele>805.24</ele>
        <time>2020-09-30T08:49:56Z</time>
      </trkpt>
      <trkpt lat="45.20734" lon="4.2366">
        <ele>804.76</ele>
        <time>2020-09-30T08:50:01Z</time>
      </trkpt>
      <trkpt lat="45.2073" lon="4.23658">
        <ele>804.76</ele>
        <time>2020-09-30T08:50:05Z</time>
      </trkpt>
      <trkpt lat="45.20727" lon="4.23659">
        <ele>805.24</ele>
        <time>2020-09-30T08:50:07Z</time>
      </trkpt>
      <trkpt lat="45.2071" lon="4.23676">
        <ele>807.64</ele>
        <time>2020-09-30T08:50:23Z</time>
      </trkpt>
      <trkpt lat="45.20694" lon="4.23698">
        <ele>807.64</ele>
        <time>2020-09-30T08:50:39Z</time>
      </trkpt>
      <trkpt lat="45.20676" lon="4.23729">
        <ele>804.28</ele>
        <time>2020-09-30T08:51:00Z</time>
      </trkpt>
      <trkpt lat="45.20664" lon="4.23755">
        <ele>802.84</ele>
        <time>2020-09-30T08:51:17Z</time>
      </trkpt>
      <trkpt lat="45.20654" lon="4.23781">
        <ele>808.13</ele>
        <time>2020-09-30T08:51:34Z</time>
      </trkpt>
      <trkpt lat="45.20643" lon="4.23808">
        <ele>811.01</ele>
        <time>2020-09-30T08:51:51Z</time>
      </trkpt>
      <trkpt lat="45.20634" lon="4.23832">
        <ele>814.85</ele>
        <time>2020-09-30T08:52:07Z</time>
      </trkpt>
      <trkpt lat="45.20622" lon="4.23845">
        <ele>815.82</ele>
        <time>2020-09-30T08:52:19Z</time>
      </trkpt>
      <trkpt lat="45.20611" lon="4.23871">
        <ele>813.89</ele>
        <time>2020-09-30T08:52:35Z</time>
      </trkpt>
      <trkpt lat="45.20609" lon="4.23877">
        <ele>813.89</ele>
        <time>2020-09-30T08:52:38Z</time>
      </trkpt>
      <trkpt lat="45.20599" lon="4.23911">
        <ele>809.57</ele>
        <time>2020-09-30T08:52:58Z</time>
      </trkpt>
      <trkpt lat="45.20596" lon="4.23939">
        <ele>809.57</ele>
        <time>2020-09-30T08:53:13Z</time>
      </trkpt>
      <trkpt lat="45.20594" lon="4.23946">
        <ele>809.57</ele>
        <time>2020-09-30T08:53:17Z</time>
      </trkpt>
      <trkpt lat="45.20589" lon="4.23959">
        <ele>809.57</ele>
        <time>2020-09-30T08:53:25Z</time>
      </trkpt>
      <trkpt lat="45.20584" lon="4.23968">
        <ele>810.53</ele>
        <time>2020-09-30T08:53:31Z</time>
      </trkpt>
      <trkpt lat="45.20581" lon="4.23973">
        <ele>811.01</ele>
        <time>2020-09-30T08:53:35Z</time>
      </trkpt>
      <trkpt lat="45.20568" lon="4.23998">
        <ele>811.49</ele>
        <time>2020-09-30T08:53:52Z</time>
      </trkpt>
      <trkpt lat="45.20556" lon="4.24022">
        <ele>811.01</ele>
        <time>2020-09-30T08:54:09Z</time>
      </trkpt>
      <trkpt lat="45.20553" lon="4.2403">
        <ele>810.53</ele>
        <time>2020-09-30T08:54:14Z</time>
      </trkpt>
      <trkpt lat="45.20553" lon="4.24059">
        <ele>811.97</ele>
        <time>2020-09-30T08:54:31Z</time>
      </trkpt>
      <trkpt lat="45.20555" lon="4.24071">
        <ele>812.93</ele>
        <time>2020-09-30T08:54:39Z</time>
      </trkpt>
      <trkpt lat="45.20557" lon="4.24089">
        <ele>813.89</ele>
        <time>2020-09-30T08:54:51Z</time>
      </trkpt>
      <trkpt lat="45.20562" lon="4.24118">
        <ele>815.82</ele>
        <time>2020-09-30T08:55:09Z</time>
      </trkpt>
      <trkpt lat="45.20574" lon="4.24144">
        <ele>816.3</ele>
        <time>2020-09-30T08:55:27Z</time>
      </trkpt>
      <trkpt lat="45.20591" lon="4.24166">
        <ele>817.26</ele>
        <time>2020-09-30T08:55:45Z</time>
      </trkpt>
      <trkpt lat="45.20608" lon="4.2419">
        <ele>818.22</ele>
        <time>2020-09-30T08:56:04Z</time>
      </trkpt>
      <trkpt lat="45.20619" lon="4.24218">
        <ele>820.62</ele>
        <time>2020-09-30T08:56:23Z</time>
      </trkpt>
      <trkpt lat="45.20628" lon="4.24245">
        <ele>823.03</ele>
        <time>2020-09-30T08:56:41Z</time>
      </trkpt>
      <trkpt lat="45.20638" lon="4.24274">
        <ele>825.91</ele>
        <time>2020-09-30T08:57:00Z</time>
      </trkpt>
      <trkpt lat="45.20646" lon="4.24304">
        <ele>826.87</ele>
        <time>2020-09-30T08:57:19Z</time>
      </trkpt>
      <trkpt lat="45.2065" lon="4.24333">
        <ele>828.79</ele>
        <time>2020-09-30T08:57:37Z</time>
      </trkpt>
      <trkpt lat="45.20654" lon="4.24359">
        <ele>831.68</ele>
        <time>2020-09-30T08:57:54Z</time>
      </trkpt>
      <trkpt lat="45.2066" lon="4.24383">
        <ele>832.64</ele>
        <time>2020-09-30T08:58:11Z</time>
      </trkpt>
      <trkpt lat="45.20662" lon="4.2439">
        <ele>832.64</ele>
        <time>2020-09-30T08:58:16Z</time>
      </trkpt>
      <trkpt lat="45.20654" lon="4.2441">
        <ele>835.52</ele>
        <time>2020-09-30T08:58:32Z</time>
      </trkpt>
      <trkpt lat="45.20645" lon="4.24434">
        <ele>838.41</ele>
        <time>2020-09-30T08:58:50Z</time>
      </trkpt>
      <trkpt lat="45.20636" lon="4.24454">
        <ele>840.81</ele>
        <time>2020-09-30T08:59:07Z</time>
      </trkpt>
      <trkpt lat="45.20628" lon="4.24474">
        <ele>842.73</ele>
        <time>2020-09-30T08:59:23Z</time>
      </trkpt>
      <trkpt lat="45.20617" lon="4.24495">
        <ele>843.21</ele>
        <time>2020-09-30T08:59:38Z</time>
      </trkpt>
      <trkpt lat="45.20606" lon="4.24517">
        <ele>845.62</ele>
        <time>2020-09-30T08:59:55Z</time>
      </trkpt>
      <trkpt lat="45.20595" lon="4.24529">
        <ele>846.58</ele>
        <time>2020-09-30T09:00:09Z</time>
      </trkpt>
      <trkpt lat="45.20591" lon="4.24538">
        <ele>847.06</ele>
        <time>2020-09-30T09:00:18Z</time>
      </trkpt>
      <trkpt lat="45.20577" lon="4.24559">
        <ele>852.83</ele>
        <time>2020-09-30T09:00:37Z</time>
      </trkpt>
      <trkpt lat="45.20576" lon="4.24561">
        <ele>853.79</ele>
        <time>2020-09-30T09:00:39Z</time>
      </trkpt>
      <trkpt lat="45.20566" lon="4.2457">
        <ele>857.63</ele>
        <time>2020-09-30T09:00:49Z</time>
      </trkpt>
      <trkpt lat="45.20545" lon="4.24577">
        <ele>859.08</ele>
        <time>2020-09-30T09:01:06Z</time>
      </trkpt>
      <trkpt lat="45.20528" lon="4.2458">
        <ele>859.08</ele>
        <time>2020-09-30T09:01:23Z</time>
      </trkpt>
      <trkpt lat="45.2052" lon="4.24579">
        <ele>860.04</ele>
        <time>2020-09-30T09:01:31Z</time>
      </trkpt>
      <trkpt lat="45.20513" lon="4.24578">
        <ele>860.52</ele>
        <time>2020-09-30T09:01:36Z</time>
      </trkpt>
      <trkpt lat="45.20491" lon="4.24577">
        <ele>862.92</ele>
        <time>2020-09-30T09:01:53Z</time>
      </trkpt>
      <trkpt lat="45.2048" lon="4.24586">
        <ele>864.84</ele>
        <time>2020-09-30T09:02:06Z</time>
      </trkpt>
      <trkpt lat="45.20461" lon="4.24594">
        <ele>867.25</ele>
        <time>2020-09-30T09:02:22Z</time>
      </trkpt>
      <trkpt lat="45.20444" lon="4.24597">
        <ele>868.21</ele>
        <time>2020-09-30T09:02:38Z</time>
      </trkpt>
      <trkpt lat="45.20431" lon="4.246">
        <ele>869.17</ele>
        <time>2020-09-30T09:02:51Z</time>
      </trkpt>
      <trkpt lat="45.20418" lon="4.24601">
        <ele>871.09</ele>
        <time>2020-09-30T09:03:06Z</time>
      </trkpt>
      <trkpt lat="45.20407" lon="4.24598">
        <ele>873.5</ele>
        <time>2020-09-30T09:03:19Z</time>
      </trkpt>
      <trkpt lat="45.20388" lon="4.24595">
        <ele>876.38</ele>
        <time>2020-09-30T09:03:34Z</time>
      </trkpt>
      <trkpt lat="45.20376" lon="4.246">
        <ele>880.22</ele>
        <time>2020-09-30T09:03:48Z</time>
      </trkpt>
      <trkpt lat="45.20365" lon="4.24608">
        <ele>885.03</ele>
        <time>2020-09-30T09:04:00Z</time>
      </trkpt>
      <trkpt lat="45.20354" lon="4.24617">
        <ele>889.36</ele>
        <time>2020-09-30T09:04:12Z</time>
      </trkpt>
      <trkpt lat="45.20345" lon="4.24625">
        <ele>890.8</ele>
        <time>2020-09-30T09:04:27Z</time>
      </trkpt>
      <trkpt lat="45.20329" lon="4.24638">
        <ele>894.64</ele>
        <time>2020-09-30T09:04:41Z</time>
      </trkpt>
      <trkpt lat="45.20317" lon="4.24656">
        <ele>896.57</ele>
        <time>2020-09-30T09:04:54Z</time>
      </trkpt>
      <trkpt lat="45.20305" lon="4.24669">
        <ele>897.05</ele>
        <time>2020-09-30T09:05:08Z</time>
      </trkpt>
      <trkpt lat="45.20298" lon="4.24673">
        <ele>897.05</ele>
        <time>2020-09-30T09:05:22Z</time>
      </trkpt>
      <trkpt lat="45.20282" lon="4.24684">
        <ele>899.45</ele>
        <time>2020-09-30T09:05:35Z</time>
      </trkpt>
      <trkpt lat="45.20259" lon="4.24703">
        <ele>900.89</ele>
        <time>2020-09-30T09:05:48Z</time>
      </trkpt>
      <trkpt lat="45.20242" lon="4.24721">
        <ele>899.93</ele>
        <time>2020-09-30T09:06:02Z</time>
      </trkpt>
      <trkpt lat="45.20227" lon="4.24744">
        <ele>902.82</ele>
        <time>2020-09-30T09:06:18Z</time>
      </trkpt>
      <trkpt lat="45.20219" lon="4.24753">
        <ele>903.78</ele>
        <time>2020-09-30T09:06:26Z</time>
      </trkpt>
      <trkpt lat="45.20217" lon="4.24759">
        <ele>902.33</ele>
        <time>2020-09-30T09:06:30Z</time>
      </trkpt>
      <trkpt lat="45.2021" lon="4.24779">
        <ele>898.01</ele>
        <time>2020-09-30T09:06:43Z</time>
      </trkpt>
      <trkpt lat="45.20202" lon="4.24791">
        <ele>898.01</ele>
        <time>2020-09-30T09:06:51Z</time>
      </trkpt>
      <trkpt lat="45.20196" lon="4.24803">
        <ele>897.05</ele>
        <time>2020-09-30T09:06:58Z</time>
      </trkpt>
      <trkpt lat="45.20184" lon="4.24827">
        <ele>889.84</ele>
        <time>2020-09-30T09:07:15Z</time>
      </trkpt>
      <trkpt lat="45.20183" lon="4.2483">
        <ele>887.43</ele>
        <time>2020-09-30T09:07:21Z</time>
      </trkpt>
      <trkpt lat="45.20177" lon="4.24843">
        <ele>883.59</ele>
        <time>2020-09-30T09:07:31Z</time>
      </trkpt>
      <trkpt lat="45.20177" lon="4.24845">
        <ele>878.78</ele>
        <time>2020-09-30T09:07:41Z</time>
      </trkpt>
      <trkpt lat="45.2017" lon="4.24846">
        <ele>877.82</ele>
        <time>2020-09-30T09:07:49Z</time>
      </trkpt>
      <trkpt lat="45.2017" lon="4.24851">
        <ele>876.86</ele>
        <time>2020-09-30T09:07:53Z</time>
      </trkpt>
      <trkpt lat="45.20155" lon="4.24891">
        <ele>872.05</ele>
        <time>2020-09-30T09:08:15Z</time>
      </trkpt>
      <trkpt lat="45.20135" lon="4.24905">
        <ele>871.09</ele>
        <time>2020-09-30T09:08:31Z</time>
      </trkpt>
      <trkpt lat="45.20117" lon="4.24902">
        <ele>869.65</ele>
        <time>2020-09-30T09:08:47Z</time>
      </trkpt>
      <trkpt lat="45.20097" lon="4.24893">
        <ele>868.21</ele>
        <time>2020-09-30T09:09:03Z</time>
      </trkpt>
      <trkpt lat="45.2007" lon="4.24889">
        <ele>865.8</ele>
        <time>2020-09-30T09:09:22Z</time>
      </trkpt>
      <trkpt lat="45.20039" lon="4.24886">
        <ele>864.36</ele>
        <time>2020-09-30T09:09:43Z</time>
      </trkpt>
      <trkpt lat="45.20013" lon="4.24889">
        <ele>862.92</ele>
        <time>2020-09-30T09:10:03Z</time>
      </trkpt>
      <trkpt lat="45.19991" lon="4.24888">
        <ele>862.92</ele>
        <time>2020-09-30T09:10:19Z</time>
      </trkpt>
      <trkpt lat="45.19988" lon="4.24888">
        <ele>862.92</ele>
        <time>2020-09-30T09:10:21Z</time>
      </trkpt>
      <trkpt lat="45.19982" lon="4.24895">
        <ele>862.92</ele>
        <time>2020-09-30T09:10:29Z</time>
      </trkpt>
      <trkpt lat="45.19982" lon="4.24901">
        <ele>861.96</ele>
        <time>2020-09-30T09:10:33Z</time>
      </trkpt>
      <trkpt lat="45.19997" lon="4.24925">
        <ele>859.08</ele>
        <time>2020-09-30T09:10:50Z</time>
      </trkpt>
      <trkpt lat="45.20011" lon="4.24943">
        <ele>856.67</ele>
        <time>2020-09-30T09:11:05Z</time>
      </trkpt>
      <trkpt lat="45.20031" lon="4.24958">
        <ele>853.79</ele>
        <time>2020-09-30T09:11:22Z</time>
      </trkpt>
      <trkpt lat="45.20046" lon="4.24966">
        <ele>852.83</ele>
        <time>2020-09-30T09:11:36Z</time>
      </trkpt>
      <trkpt lat="45.20059" lon="4.24989">
        <ele>852.35</ele>
        <time>2020-09-30T09:11:52Z</time>
      </trkpt>
      <trkpt lat="45.2006" lon="4.24997">
        <ele>851.87</ele>
        <time>2020-09-30T09:11:57Z</time>
      </trkpt>
      <trkpt lat="45.20059" lon="4.25004">
        <ele>851.38</ele>
        <time>2020-09-30T09:12:01Z</time>
      </trkpt>
      <trkpt lat="45.20062" lon="4.2502">
        <ele>851.87</ele>
        <time>2020-09-30T09:12:11Z</time>
      </trkpt>
      <trkpt lat="45.20072" lon="4.25027">
        <ele>849.94</ele>
        <time>2020-09-30T09:12:21Z</time>
      </trkpt>
      <trkpt lat="45.20073" lon="4.25029">
        <ele>849.46</ele>
        <time>2020-09-30T09:12:23Z</time>
      </trkpt>
      <trkpt lat="45.2006" lon="4.25047">
        <ele>845.62</ele>
        <time>2020-09-30T09:12:39Z</time>
      </trkpt>
      <trkpt lat="45.20048" lon="4.25061">
        <ele>843.21</ele>
        <time>2020-09-30T09:12:53Z</time>
      </trkpt>
      <trkpt lat="45.20035" lon="4.25078">
        <ele>842.73</ele>
        <time>2020-09-30T09:13:09Z</time>
      </trkpt>
      <trkpt lat="45.20034" lon="4.2508">
        <ele>842.73</ele>
        <time>2020-09-30T09:13:10Z</time>
      </trkpt>
      <trkpt lat="45.20019" lon="4.25097">
        <ele>842.25</ele>
        <time>2020-09-30T09:13:26Z</time>
      </trkpt>
      <trkpt lat="45.20015" lon="4.25103">
        <ele>841.77</ele>
        <time>2020-09-30T09:13:32Z</time>
      </trkpt>
      <trkpt lat="45.2001" lon="4.2513">
        <ele>840.33</ele>
        <time>2020-09-30T09:13:48Z</time>
      </trkpt>
      <trkpt lat="45.20009" lon="4.25139">
        <ele>839.37</ele>
        <time>2020-09-30T09:13:54Z</time>
      </trkpt>
      <trkpt lat="45.20013" lon="4.25171">
        <ele>836</ele>
        <time>2020-09-30T09:14:11Z</time>
      </trkpt>
      <trkpt lat="45.20016" lon="4.25199">
        <ele>836</ele>
        <time>2020-09-30T09:14:28Z</time>
      </trkpt>
      <trkpt lat="45.20016" lon="4.25203">
        <ele>836</ele>
        <time>2020-09-30T09:14:31Z</time>
      </trkpt>
      <trkpt lat="45.20015" lon="4.25205">
        <ele>836</ele>
        <time>2020-09-30T09:14:33Z</time>
      </trkpt>
      <trkpt lat="45.20017" lon="4.25213">
        <ele>836</ele>
        <time>2020-09-30T09:14:44Z</time>
      </trkpt>
      <trkpt lat="45.20016" lon="4.25215">
        <ele>836.48</ele>
        <time>2020-09-30T09:14:46Z</time>
      </trkpt>
      <trkpt lat="45.20015" lon="4.25218">
        <ele>836.48</ele>
        <time>2020-09-30T09:14:48Z</time>
      </trkpt>
      <trkpt lat="45.20005" lon="4.25225">
        <ele>837.45</ele>
        <time>2020-09-30T09:14:59Z</time>
      </trkpt>
      <trkpt lat="45.19996" lon="4.2523">
        <ele>837.93</ele>
        <time>2020-09-30T09:15:11Z</time>
      </trkpt>
      <trkpt lat="45.19993" lon="4.2524">
        <ele>841.29</ele>
        <time>2020-09-30T09:15:25Z</time>
      </trkpt>
      <trkpt lat="45.19993" lon="4.25243">
        <ele>841.77</ele>
        <time>2020-09-30T09:15:40Z</time>
      </trkpt>
      <trkpt lat="45.19993" lon="4.2525">
        <ele>842.73</ele>
        <time>2020-09-30T09:15:47Z</time>
      </trkpt>
      <trkpt lat="45.19992" lon="4.25257">
        <ele>843.21</ele>
        <time>2020-09-30T09:15:52Z</time>
      </trkpt>
      <trkpt lat="45.19992" lon="4.2526">
        <ele>844.18</ele>
        <time>2020-09-30T09:15:55Z</time>
      </trkpt>
      <trkpt lat="45.19991" lon="4.25267">
        <ele>845.14</ele>
        <time>2020-09-30T09:16:00Z</time>
      </trkpt>
      <trkpt lat="45.1999" lon="4.25276">
        <ele>845.62</ele>
        <time>2020-09-30T09:16:08Z</time>
      </trkpt>
      <trkpt lat="45.1999" lon="4.25279">
        <ele>845.62</ele>
        <time>2020-09-30T09:16:11Z</time>
      </trkpt>
      <trkpt lat="45.19989" lon="4.25282">
        <ele>846.1</ele>
        <time>2020-09-30T09:16:14Z</time>
      </trkpt>
      <trkpt lat="45.19983" lon="4.25302">
        <ele>848.5</ele>
        <time>2020-09-30T09:16:30Z</time>
      </trkpt>
      <trkpt lat="45.1998" lon="4.25311">
        <ele>848.5</ele>
        <time>2020-09-30T09:16:37Z</time>
      </trkpt>
      <trkpt lat="45.19974" lon="4.25334">
        <ele>848.5</ele>
        <time>2020-09-30T09:16:55Z</time>
      </trkpt>
      <trkpt lat="45.19971" lon="4.25351">
        <ele>849.94</ele>
        <time>2020-09-30T09:17:08Z</time>
      </trkpt>
      <trkpt lat="45.19969" lon="4.25367">
        <ele>851.87</ele>
        <time>2020-09-30T09:17:21Z</time>
      </trkpt>
      <trkpt lat="45.19968" lon="4.25388">
        <ele>852.83</ele>
        <time>2020-09-30T09:17:37Z</time>
      </trkpt>
      <trkpt lat="45.19967" lon="4.25392">
        <ele>852.83</ele>
        <time>2020-09-30T09:17:40Z</time>
      </trkpt>
      <trkpt lat="45.19965" lon="4.25398">
        <ele>853.31</ele>
        <time>2020-09-30T09:17:45Z</time>
      </trkpt>
      <trkpt lat="45.19967" lon="4.25416">
        <ele>855.23</ele>
        <time>2020-09-30T09:17:59Z</time>
      </trkpt>
      <trkpt lat="45.1997" lon="4.25435">
        <ele>856.67</ele>
        <time>2020-09-30T09:18:13Z</time>
      </trkpt>
      <trkpt lat="45.1997" lon="4.25439">
        <ele>857.63</ele>
        <time>2020-09-30T09:18:16Z</time>
      </trkpt>
      <trkpt lat="45.19972" lon="4.25463">
        <ele>859.08</ele>
        <time>2020-09-30T09:18:32Z</time>
      </trkpt>
      <trkpt lat="45.19973" lon="4.25467">
        <ele>859.56</ele>
        <time>2020-09-30T09:18:35Z</time>
      </trkpt>
      <trkpt lat="45.19974" lon="4.2547">
        <ele>859.56</ele>
        <time>2020-09-30T09:18:37Z</time>
      </trkpt>
      <trkpt lat="45.19975" lon="4.2548">
        <ele>860.04</ele>
        <time>2020-09-30T09:18:44Z</time>
      </trkpt>
      <trkpt lat="45.19975" lon="4.25485">
        <ele>860.52</ele>
        <time>2020-09-30T09:18:48Z</time>
      </trkpt>
      <trkpt lat="45.19975" lon="4.25492">
        <ele>861</ele>
        <time>2020-09-30T09:18:53Z</time>
      </trkpt>
      <trkpt lat="45.19978" lon="4.25503">
        <ele>861.48</ele>
        <time>2020-09-30T09:19:05Z</time>
      </trkpt>
      <trkpt lat="45.19983" lon="4.25503">
        <ele>862.44</ele>
        <time>2020-09-30T09:19:16Z</time>
      </trkpt>
      <trkpt lat="45.19988" lon="4.255">
        <ele>862.44</ele>
        <time>2020-09-30T09:19:28Z</time>
      </trkpt>
      <trkpt lat="45.19998" lon="4.25498">
        <ele>861.48</ele>
        <time>2020-09-30T09:19:42Z</time>
      </trkpt>
      <trkpt lat="45.20004" lon="4.25498">
        <ele>861</ele>
        <time>2020-09-30T09:19:53Z</time>
      </trkpt>
      <trkpt lat="45.20005" lon="4.25497">
        <ele>861.96</ele>
        <time>2020-09-30T09:20:08Z</time>
      </trkpt>
      <trkpt lat="45.20006" lon="4.25497">
        <ele>862.44</ele>
        <time>2020-09-30T09:20:26Z</time>
      </trkpt>
      <trkpt lat="45.20007" lon="4.25496">
        <ele>862.92</ele>
        <time>2020-09-30T09:20:44Z</time>
      </trkpt>
      <trkpt lat="45.20009" lon="4.25496">
        <ele>862.92</ele>
        <time>2020-09-30T09:20:59Z</time>
      </trkpt>
      <trkpt lat="45.20009" lon="4.25496">
        <ele>862.44</ele>
        <time>2020-09-30T09:21:17Z</time>
      </trkpt>
      <trkpt lat="45.20009" lon="4.25496">
        <ele>861.96</ele>
        <time>2020-09-30T09:21:25Z</time>
      </trkpt>
      <trkpt lat="45.20019" lon="4.25492">
        <ele>861.48</ele>
        <time>2020-09-30T09:21:33Z</time>
      </trkpt>
      <trkpt lat="45.20041" lon="4.25479">
        <ele>857.63</ele>
        <time>2020-09-30T09:21:52Z</time>
      </trkpt>
      <trkpt lat="45.20062" lon="4.25469">
        <ele>857.15</ele>
        <time>2020-09-30T09:22:09Z</time>
      </trkpt>
      <trkpt lat="45.20078" lon="4.25464">
        <ele>856.19</ele>
        <time>2020-09-30T09:22:25Z</time>
      </trkpt>
      <trkpt lat="45.20092" lon="4.25459">
        <ele>856.67</ele>
        <time>2020-09-30T09:22:36Z</time>
      </trkpt>
      <trkpt lat="45.20098" lon="4.25455">
        <ele>856.19</ele>
        <time>2020-09-30T09:22:41Z</time>
      </trkpt>
      <trkpt lat="45.20115" lon="4.25447">
        <ele>853.31</ele>
        <time>2020-09-30T09:22:57Z</time>
      </trkpt>
      <trkpt lat="45.20117" lon="4.25446">
        <ele>852.35</ele>
        <time>2020-09-30T09:22:59Z</time>
      </trkpt>
      <trkpt lat="45.20129" lon="4.25439">
        <ele>851.38</ele>
        <time>2020-09-30T09:23:12Z</time>
      </trkpt>
      <trkpt lat="45.20131" lon="4.25439">
        <ele>851.38</ele>
        <time>2020-09-30T09:23:14Z</time>
      </trkpt>
      <trkpt lat="45.20134" lon="4.25436">
        <ele>850.9</ele>
        <time>2020-09-30T09:23:18Z</time>
      </trkpt>
      <trkpt lat="45.2014" lon="4.25433">
        <ele>848.98</ele>
        <time>2020-09-30T09:23:26Z</time>
      </trkpt>
      <trkpt lat="45.20143" lon="4.25431">
        <ele>849.46</ele>
        <time>2020-09-30T09:23:29Z</time>
      </trkpt>
      <trkpt lat="45.20146" lon="4.2543">
        <ele>849.46</ele>
        <time>2020-09-30T09:23:32Z</time>
      </trkpt>
      <trkpt lat="45.20158" lon="4.25425">
        <ele>849.46</ele>
        <time>2020-09-30T09:23:44Z</time>
      </trkpt>
      <trkpt lat="45.2016" lon="4.25424">
        <ele>849.46</ele>
        <time>2020-09-30T09:23:46Z</time>
      </trkpt>
      <trkpt lat="45.20173" lon="4.25422">
        <ele>849.94</ele>
        <time>2020-09-30T09:24:01Z</time>
      </trkpt>
      <trkpt lat="45.20182" lon="4.25421">
        <ele>851.38</ele>
        <time>2020-09-30T09:24:12Z</time>
      </trkpt>
      <trkpt lat="45.20189" lon="4.25422">
        <ele>852.35</ele>
        <time>2020-09-30T09:24:19Z</time>
      </trkpt>
      <trkpt lat="45.20195" lon="4.2543">
        <ele>848.5</ele>
        <time>2020-09-30T09:24:31Z</time>
      </trkpt>
      <trkpt lat="45.20197" lon="4.25436">
        <ele>848.98</ele>
        <time>2020-09-30T09:24:42Z</time>
      </trkpt>
      <trkpt lat="45.202" lon="4.25452">
        <ele>851.87</ele>
        <time>2020-09-30T09:24:54Z</time>
      </trkpt>
      <trkpt lat="45.20202" lon="4.2547">
        <ele>851.38</ele>
        <time>2020-09-30T09:25:06Z</time>
      </trkpt>
      <trkpt lat="45.20202" lon="4.25475">
        <ele>850.9</ele>
        <time>2020-09-30T09:25:08Z</time>
      </trkpt>
      <trkpt lat="45.20201" lon="4.25484">
        <ele>848.5</ele>
        <time>2020-09-30T09:25:12Z</time>
      </trkpt>
      <trkpt lat="45.202" lon="4.25496">
        <ele>846.1</ele>
        <time>2020-09-30T09:25:17Z</time>
      </trkpt>
      <trkpt lat="45.202" lon="4.25526">
        <ele>840.81</ele>
        <time>2020-09-30T09:25:31Z</time>
      </trkpt>
      <trkpt lat="45.20199" lon="4.25556">
        <ele>837.93</ele>
        <time>2020-09-30T09:25:45Z</time>
      </trkpt>
      <trkpt lat="45.20199" lon="4.25587">
        <ele>836.96</ele>
        <time>2020-09-30T09:25:59Z</time>
      </trkpt>
      <trkpt lat="45.20199" lon="4.25591">
        <ele>836.48</ele>
        <time>2020-09-30T09:26:01Z</time>
      </trkpt>
      <trkpt lat="45.20207" lon="4.25614">
        <ele>835.04</ele>
        <time>2020-09-30T09:26:16Z</time>
      </trkpt>
      <trkpt lat="45.20219" lon="4.25643">
        <ele>827.83</ele>
        <time>2020-09-30T09:26:33Z</time>
      </trkpt>
      <trkpt lat="45.2022" lon="4.25655">
        <ele>827.35</ele>
        <time>2020-09-30T09:26:40Z</time>
      </trkpt>
      <trkpt lat="45.20216" lon="4.25678">
        <ele>829.76</ele>
        <time>2020-09-30T09:26:54Z</time>
      </trkpt>
      <trkpt lat="45.20212" lon="4.25689">
        <ele>828.79</ele>
        <time>2020-09-30T09:27:00Z</time>
      </trkpt>
      <trkpt lat="45.20209" lon="4.25708">
        <ele>829.27</ele>
        <time>2020-09-30T09:27:09Z</time>
      </trkpt>
      <trkpt lat="45.20222" lon="4.25732">
        <ele>826.87</ele>
        <time>2020-09-30T09:27:24Z</time>
      </trkpt>
      <trkpt lat="45.2024" lon="4.25752">
        <ele>824.95</ele>
        <time>2020-09-30T09:27:41Z</time>
      </trkpt>
      <trkpt lat="45.20257" lon="4.25769">
        <ele>823.99</ele>
        <time>2020-09-30T09:27:57Z</time>
      </trkpt>
      <trkpt lat="45.20272" lon="4.25777">
        <ele>821.58</ele>
        <time>2020-09-30T09:28:12Z</time>
      </trkpt>
      <trkpt lat="45.20282" lon="4.25784">
        <ele>822.06</ele>
        <time>2020-09-30T09:28:25Z</time>
      </trkpt>
      <trkpt lat="45.20283" lon="4.25785">
        <ele>822.55</ele>
        <time>2020-09-30T09:28:27Z</time>
      </trkpt>
      <trkpt lat="45.20292" lon="4.2579">
        <ele>823.03</ele>
        <time>2020-09-30T09:28:38Z</time>
      </trkpt>
      <trkpt lat="45.20301" lon="4.25797">
        <ele>825.91</ele>
        <time>2020-09-30T09:28:51Z</time>
      </trkpt>
      <trkpt lat="45.20312" lon="4.25808">
        <ele>827.83</ele>
        <time>2020-09-30T09:29:05Z</time>
      </trkpt>
      <trkpt lat="45.20325" lon="4.25827">
        <ele>831.68</ele>
        <time>2020-09-30T09:29:22Z</time>
      </trkpt>
      <trkpt lat="45.20337" lon="4.25845">
        <ele>834.08</ele>
        <time>2020-09-30T09:29:37Z</time>
      </trkpt>
      <trkpt lat="45.20349" lon="4.25867">
        <ele>834.08</ele>
        <time>2020-09-30T09:29:55Z</time>
      </trkpt>
      <trkpt lat="45.20353" lon="4.25875">
        <ele>833.6</ele>
        <time>2020-09-30T09:30:01Z</time>
      </trkpt>
      <trkpt lat="45.20362" lon="4.25896">
        <ele>836.48</ele>
        <time>2020-09-30T09:30:16Z</time>
      </trkpt>
      <trkpt lat="45.20362" lon="4.25894">
        <ele>836.96</ele>
        <time>2020-09-30T09:30:21Z</time>
      </trkpt>
      <trkpt lat="45.20365" lon="4.25904">
        <ele>836.96</ele>
        <time>2020-09-30T09:30:27Z</time>
      </trkpt>
      <trkpt lat="45.20372" lon="4.25928">
        <ele>838.89</ele>
        <time>2020-09-30T09:30:42Z</time>
      </trkpt>
      <trkpt lat="45.20381" lon="4.25951">
        <ele>841.29</ele>
        <time>2020-09-30T09:30:58Z</time>
      </trkpt>
      <trkpt lat="45.20386" lon="4.2597">
        <ele>842.25</ele>
        <time>2020-09-30T09:31:11Z</time>
      </trkpt>
      <trkpt lat="45.20387" lon="4.25984">
        <ele>843.69</ele>
        <time>2020-09-30T09:31:25Z</time>
      </trkpt>
      <trkpt lat="45.20391" lon="4.26011">
        <ele>846.58</ele>
        <time>2020-09-30T09:31:40Z</time>
      </trkpt>
      <trkpt lat="45.20395" lon="4.26045">
        <ele>848.02</ele>
        <time>2020-09-30T09:31:59Z</time>
      </trkpt>
      <trkpt lat="45.20402" lon="4.26074">
        <ele>847.54</ele>
        <time>2020-09-30T09:32:17Z</time>
      </trkpt>
      <trkpt lat="45.20402" lon="4.26077">
        <ele>847.54</ele>
        <time>2020-09-30T09:32:19Z</time>
      </trkpt>
      <trkpt lat="45.20412" lon="4.26097">
        <ele>848.5</ele>
        <time>2020-09-30T09:32:35Z</time>
      </trkpt>
      <trkpt lat="45.20417" lon="4.26108">
        <ele>850.42</ele>
        <time>2020-09-30T09:32:44Z</time>
      </trkpt>
      <trkpt lat="45.20423" lon="4.26111">
        <ele>850.9</ele>
        <time>2020-09-30T09:32:49Z</time>
      </trkpt>
      <trkpt lat="45.20442" lon="4.26124">
        <ele>849.46</ele>
        <time>2020-09-30T09:33:07Z</time>
      </trkpt>
      <trkpt lat="45.2045" lon="4.26137">
        <ele>850.9</ele>
        <time>2020-09-30T09:33:21Z</time>
      </trkpt>
      <trkpt lat="45.20454" lon="4.26144">
        <ele>852.83</ele>
        <time>2020-09-30T09:33:27Z</time>
      </trkpt>
      <trkpt lat="45.20453" lon="4.26158">
        <ele>857.63</ele>
        <time>2020-09-30T09:33:39Z</time>
      </trkpt>
      <trkpt lat="45.2045" lon="4.26179">
        <ele>861.48</ele>
        <time>2020-09-30T09:33:54Z</time>
      </trkpt>
      <trkpt lat="45.20446" lon="4.26184">
        <ele>862.44</ele>
        <time>2020-09-30T09:34:06Z</time>
      </trkpt>
      <trkpt lat="45.20442" lon="4.2619">
        <ele>862.92</ele>
        <time>2020-09-30T09:34:11Z</time>
      </trkpt>
      <trkpt lat="45.20437" lon="4.26205">
        <ele>865.8</ele>
        <time>2020-09-30T09:34:24Z</time>
      </trkpt>
      <trkpt lat="45.20435" lon="4.26223">
        <ele>868.69</ele>
        <time>2020-09-30T09:34:38Z</time>
      </trkpt>
      <trkpt lat="45.20435" lon="4.26232">
        <ele>869.65</ele>
        <time>2020-09-30T09:34:44Z</time>
      </trkpt>
      <trkpt lat="45.20439" lon="4.2624">
        <ele>869.65</ele>
        <time>2020-09-30T09:34:49Z</time>
      </trkpt>
      <trkpt lat="45.20445" lon="4.26255">
        <ele>865.32</ele>
        <time>2020-09-30T09:35:02Z</time>
      </trkpt>
      <trkpt lat="45.20455" lon="4.26265">
        <ele>860.04</ele>
        <time>2020-09-30T09:35:16Z</time>
      </trkpt>
      <trkpt lat="45.20465" lon="4.26274">
        <ele>856.67</ele>
        <time>2020-09-30T09:35:29Z</time>
      </trkpt>
      <trkpt lat="45.20478" lon="4.26286">
        <ele>854.27</ele>
        <time>2020-09-30T09:35:45Z</time>
      </trkpt>
      <trkpt lat="45.20485" lon="4.263">
        <ele>855.23</ele>
        <time>2020-09-30T09:35:58Z</time>
      </trkpt>
      <trkpt lat="45.20492" lon="4.26311">
        <ele>859.08</ele>
        <time>2020-09-30T09:36:10Z</time>
      </trkpt>
      <trkpt lat="45.20496" lon="4.26317">
        <ele>859.08</ele>
        <time>2020-09-30T09:36:16Z</time>
      </trkpt>
      <trkpt lat="45.2051" lon="4.26342">
        <ele>850.9</ele>
        <time>2020-09-30T09:36:31Z</time>
      </trkpt>
      <trkpt lat="45.20514" lon="4.26347">
        <ele>848.98</ele>
        <time>2020-09-30T09:36:35Z</time>
      </trkpt>
      <trkpt lat="45.20517" lon="4.26355">
        <ele>846.1</ele>
        <time>2020-09-30T09:36:40Z</time>
      </trkpt>
      <trkpt lat="45.20524" lon="4.26359">
        <ele>841.77</ele>
        <time>2020-09-30T09:36:46Z</time>
      </trkpt>
      <trkpt lat="45.20533" lon="4.26359">
        <ele>837.93</ele>
        <time>2020-09-30T09:36:52Z</time>
      </trkpt>
      <trkpt lat="45.20544" lon="4.26356">
        <ele>835.52</ele>
        <time>2020-09-30T09:37:02Z</time>
      </trkpt>
      <trkpt lat="45.20563" lon="4.26349">
        <ele>831.2</ele>
        <time>2020-09-30T09:37:18Z</time>
      </trkpt>
      <trkpt lat="45.20564" lon="4.26349">
        <ele>830.72</ele>
        <time>2020-09-30T09:37:20Z</time>
      </trkpt>
      <trkpt lat="45.20579" lon="4.2634">
        <ele>826.39</ele>
        <time>2020-09-30T09:37:36Z</time>
      </trkpt>
      <trkpt lat="45.20592" lon="4.26333">
        <ele>823.51</ele>
        <time>2020-09-30T09:37:49Z</time>
      </trkpt>
      <trkpt lat="45.20604" lon="4.26329">
        <ele>822.06</ele>
        <time>2020-09-30T09:37:59Z</time>
      </trkpt>
      <trkpt lat="45.20613" lon="4.26326">
        <ele>821.58</ele>
        <time>2020-09-30T09:38:05Z</time>
      </trkpt>
      <trkpt lat="45.20634" lon="4.26324">
        <ele>821.1</ele>
        <time>2020-09-30T09:38:22Z</time>
      </trkpt>
      <trkpt lat="45.20652" lon="4.2633">
        <ele>820.14</ele>
        <time>2020-09-30T09:38:36Z</time>
      </trkpt>
      <trkpt lat="45.20659" lon="4.26336">
        <ele>820.62</ele>
        <time>2020-09-30T09:38:45Z</time>
      </trkpt>
      <trkpt lat="45.20659" lon="4.26341">
        <ele>819.66</ele>
        <time>2020-09-30T09:38:51Z</time>
      </trkpt>
      <trkpt lat="45.2065" lon="4.26348">
        <ele>822.06</ele>
        <time>2020-09-30T09:39:05Z</time>
      </trkpt>
      <trkpt lat="45.20649" lon="4.26352">
        <ele>823.51</ele>
        <time>2020-09-30T09:39:10Z</time>
      </trkpt>
      <trkpt lat="45.20646" lon="4.26367">
        <ele>827.35</ele>
        <time>2020-09-30T09:39:22Z</time>
      </trkpt>
      <trkpt lat="45.20648" lon="4.26375">
        <ele>827.35</ele>
        <time>2020-09-30T09:39:28Z</time>
      </trkpt>
      <trkpt lat="45.20649" lon="4.26383">
        <ele>826.39</ele>
        <time>2020-09-30T09:39:33Z</time>
      </trkpt>
      <trkpt lat="45.2065" lon="4.2639">
        <ele>824.95</ele>
        <time>2020-09-30T09:39:38Z</time>
      </trkpt>
      <trkpt lat="45.20654" lon="4.26408">
        <ele>820.62</ele>
        <time>2020-09-30T09:39:53Z</time>
      </trkpt>
      <trkpt lat="45.20655" lon="4.26413">
        <ele>820.14</ele>
        <time>2020-09-30T09:39:57Z</time>
      </trkpt>
      <trkpt lat="45.20653" lon="4.26439">
        <ele>813.89</ele>
        <time>2020-09-30T09:40:14Z</time>
      </trkpt>
      <trkpt lat="45.20652" lon="4.26464">
        <ele>810.05</ele>
        <time>2020-09-30T09:40:27Z</time>
      </trkpt>
      <trkpt lat="45.2065" lon="4.26468">
        <ele>809.57</ele>
        <time>2020-09-30T09:40:31Z</time>
      </trkpt>
      <trkpt lat="45.20642" lon="4.26479">
        <ele>810.53</ele>
        <time>2020-09-30T09:40:40Z</time>
      </trkpt>
      <trkpt lat="45.20626" lon="4.2649">
        <ele>812.45</ele>
        <time>2020-09-30T09:40:55Z</time>
      </trkpt>
      <trkpt lat="45.20609" lon="4.26502">
        <ele>815.34</ele>
        <time>2020-09-30T09:41:11Z</time>
      </trkpt>
      <trkpt lat="45.20592" lon="4.2651">
        <ele>818.22</ele>
        <time>2020-09-30T09:41:25Z</time>
      </trkpt>
      <trkpt lat="45.20583" lon="4.26516">
        <ele>822.06</ele>
        <time>2020-09-30T09:41:34Z</time>
      </trkpt>
      <trkpt lat="45.20578" lon="4.26519">
        <ele>823.51</ele>
        <time>2020-09-30T09:41:38Z</time>
      </trkpt>
      <trkpt lat="45.20566" lon="4.26527">
        <ele>823.03</ele>
        <time>2020-09-30T09:41:51Z</time>
      </trkpt>
      <trkpt lat="45.20558" lon="4.26531">
        <ele>825.43</ele>
        <time>2020-09-30T09:41:58Z</time>
      </trkpt>
      <trkpt lat="45.20552" lon="4.26532">
        <ele>826.39</ele>
        <time>2020-09-30T09:42:02Z</time>
      </trkpt>
      <trkpt lat="45.20531" lon="4.2654">
        <ele>822.55</ele>
        <time>2020-09-30T09:42:18Z</time>
      </trkpt>
      <trkpt lat="45.20516" lon="4.2655">
        <ele>823.51</ele>
        <time>2020-09-30T09:42:33Z</time>
      </trkpt>
      <trkpt lat="45.20508" lon="4.26553">
        <ele>824.95</ele>
        <time>2020-09-30T09:42:41Z</time>
      </trkpt>
      <trkpt lat="45.20505" lon="4.26554">
        <ele>825.91</ele>
        <time>2020-09-30T09:42:44Z</time>
      </trkpt>
      <trkpt lat="45.20502" lon="4.26554">
        <ele>825.43</ele>
        <time>2020-09-30T09:42:47Z</time>
      </trkpt>
      <trkpt lat="45.20481" lon="4.26552">
        <ele>822.06</ele>
        <time>2020-09-30T09:43:02Z</time>
      </trkpt>
      <trkpt lat="45.2047" lon="4.26554">
        <ele>819.66</ele>
        <time>2020-09-30T09:43:10Z</time>
      </trkpt>
      <trkpt lat="45.20468" lon="4.26555">
        <ele>819.66</ele>
        <time>2020-09-30T09:43:12Z</time>
      </trkpt>
      <trkpt lat="45.20466" lon="4.26557">
        <ele>819.66</ele>
        <time>2020-09-30T09:43:14Z</time>
      </trkpt>
      <trkpt lat="45.20459" lon="4.26558">
        <ele>817.74</ele>
        <time>2020-09-30T09:43:18Z</time>
      </trkpt>
      <trkpt lat="45.20438" lon="4.26563">
        <ele>801.4</ele>
        <time>2020-09-30T09:43:33Z</time>
      </trkpt>
      <trkpt lat="45.20431" lon="4.26584">
        <ele>796.11</ele>
        <time>2020-09-30T09:43:47Z</time>
      </trkpt>
      <trkpt lat="45.20428" lon="4.26601">
        <ele>790.82</ele>
        <time>2020-09-30T09:44:01Z</time>
      </trkpt>
      <trkpt lat="45.20427" lon="4.26607">
        <ele>790.34</ele>
        <time>2020-09-30T09:44:06Z</time>
      </trkpt>
      <trkpt lat="45.20426" lon="4.26614">
        <ele>788.42</ele>
        <time>2020-09-30T09:44:11Z</time>
      </trkpt>
      <trkpt lat="45.20426" lon="4.26621">
        <ele>787.94</ele>
        <time>2020-09-30T09:44:16Z</time>
      </trkpt>
      <trkpt lat="45.20422" lon="4.26634">
        <ele>784.09</ele>
        <time>2020-09-30T09:44:27Z</time>
      </trkpt>
      <trkpt lat="45.20418" lon="4.2664">
        <ele>783.61</ele>
        <time>2020-09-30T09:44:32Z</time>
      </trkpt>
      <trkpt lat="45.20404" lon="4.26655">
        <ele>783.13</ele>
        <time>2020-09-30T09:44:46Z</time>
      </trkpt>
      <trkpt lat="45.20395" lon="4.26666">
        <ele>782.17</ele>
        <time>2020-09-30T09:44:57Z</time>
      </trkpt>
      <trkpt lat="45.2039" lon="4.2667">
        <ele>781.69</ele>
        <time>2020-09-30T09:45:04Z</time>
      </trkpt>
      <trkpt lat="45.20386" lon="4.26673">
        <ele>781.21</ele>
        <time>2020-09-30T09:45:08Z</time>
      </trkpt>
      <trkpt lat="45.20383" lon="4.26678">
        <ele>781.21</ele>
        <time>2020-09-30T09:45:11Z</time>
      </trkpt>
      <trkpt lat="45.2037" lon="4.26684">
        <ele>780.25</ele>
        <time>2020-09-30T09:45:22Z</time>
      </trkpt>
      <trkpt lat="45.20355" lon="4.26699">
        <ele>784.57</ele>
        <time>2020-09-30T09:45:35Z</time>
      </trkpt>
      <trkpt lat="45.20353" lon="4.26701">
        <ele>785.05</ele>
        <time>2020-09-30T09:45:37Z</time>
      </trkpt>
      <trkpt lat="45.20333" lon="4.26717">
        <ele>786.5</ele>
        <time>2020-09-30T09:45:54Z</time>
      </trkpt>
      <trkpt lat="45.20314" lon="4.26725">
        <ele>780.73</ele>
        <time>2020-09-30T09:46:08Z</time>
      </trkpt>
      <trkpt lat="45.20295" lon="4.26746">
        <ele>780.73</ele>
        <time>2020-09-30T09:46:26Z</time>
      </trkpt>
      <trkpt lat="45.2029" lon="4.26753">
        <ele>783.13</ele>
        <time>2020-09-30T09:46:33Z</time>
      </trkpt>
      <trkpt lat="45.20284" lon="4.26758">
        <ele>782.65</ele>
        <time>2020-09-30T09:46:39Z</time>
      </trkpt>
      <trkpt lat="45.20278" lon="4.26759">
        <ele>783.13</ele>
        <time>2020-09-30T09:46:44Z</time>
      </trkpt>
      <trkpt lat="45.2026" lon="4.26769">
        <ele>785.05</ele>
        <time>2020-09-30T09:47:00Z</time>
      </trkpt>
      <trkpt lat="45.20246" lon="4.26782">
        <ele>789.38</ele>
        <time>2020-09-30T09:47:14Z</time>
      </trkpt>
      <trkpt lat="45.20232" lon="4.26796">
        <ele>791.78</ele>
        <time>2020-09-30T09:47:27Z</time>
      </trkpt>
      <trkpt lat="45.2022" lon="4.26806">
        <ele>799.47</ele>
        <time>2020-09-30T09:47:40Z</time>
      </trkpt>
      <trkpt lat="45.20215" lon="4.2681">
        <ele>802.36</ele>
        <time>2020-09-30T09:47:44Z</time>
      </trkpt>
      <trkpt lat="45.20212" lon="4.26812">
        <ele>803.8</ele>
        <time>2020-09-30T09:47:47Z</time>
      </trkpt>
      <trkpt lat="45.20208" lon="4.26814">
        <ele>804.76</ele>
        <time>2020-09-30T09:47:50Z</time>
      </trkpt>
      <trkpt lat="45.20199" lon="4.2682">
        <ele>802.84</ele>
        <time>2020-09-30T09:48:02Z</time>
      </trkpt>
      <trkpt lat="45.20184" lon="4.26815">
        <ele>799.95</ele>
        <time>2020-09-30T09:48:14Z</time>
      </trkpt>
      <trkpt lat="45.20172" lon="4.26816">
        <ele>798.99</ele>
        <time>2020-09-30T09:48:27Z</time>
      </trkpt>
      <trkpt lat="45.20148" lon="4.2681">
        <ele>792.74</ele>
        <time>2020-09-30T09:48:41Z</time>
      </trkpt>
      <trkpt lat="45.20139" lon="4.26814">
        <ele>791.3</ele>
        <time>2020-09-30T09:48:49Z</time>
      </trkpt>
      <trkpt lat="45.20128" lon="4.26826">
        <ele>790.82</ele>
        <time>2020-09-30T09:48:59Z</time>
      </trkpt>
      <trkpt lat="45.20118" lon="4.26839">
        <ele>791.78</ele>
        <time>2020-09-30T09:49:10Z</time>
      </trkpt>
      <trkpt lat="45.2011" lon="4.26855">
        <ele>794.19</ele>
        <time>2020-09-30T09:49:20Z</time>
      </trkpt>
      <trkpt lat="45.20099" lon="4.26875">
        <ele>795.15</ele>
        <time>2020-09-30T09:49:34Z</time>
      </trkpt>
      <trkpt lat="45.20087" lon="4.26894">
        <ele>795.15</ele>
        <time>2020-09-30T09:49:49Z</time>
      </trkpt>
      <trkpt lat="45.20073" lon="4.26902">
        <ele>796.59</ele>
        <time>2020-09-30T09:50:02Z</time>
      </trkpt>
      <trkpt lat="45.20057" lon="4.26908">
        <ele>795.15</ele>
        <time>2020-09-30T09:50:15Z</time>
      </trkpt>
      <trkpt lat="45.20051" lon="4.26909">
        <ele>789.38</ele>
        <time>2020-09-30T09:50:30Z</time>
      </trkpt>
      <trkpt lat="45.20048" lon="4.26907">
        <ele>788.9</ele>
        <time>2020-09-30T09:50:41Z</time>
      </trkpt>
      <trkpt lat="45.20047" lon="4.26907">
        <ele>789.38</ele>
        <time>2020-09-30T09:50:45Z</time>
      </trkpt>
      <trkpt lat="45.2005" lon="4.26916">
        <ele>786.5</ele>
        <time>2020-09-30T09:50:54Z</time>
      </trkpt>
      <trkpt lat="45.20047" lon="4.26923">
        <ele>785.53</ele>
        <time>2020-09-30T09:50:59Z</time>
      </trkpt>
      <trkpt lat="45.20032" lon="4.2694">
        <ele>785.53</ele>
        <time>2020-09-30T09:51:15Z</time>
      </trkpt>
      <trkpt lat="45.20023" lon="4.26947">
        <ele>784.57</ele>
        <time>2020-09-30T09:51:26Z</time>
      </trkpt>
      <trkpt lat="45.20022" lon="4.26947">
        <ele>784.57</ele>
        <time>2020-09-30T09:51:27Z</time>
      </trkpt>
      <trkpt lat="45.2002" lon="4.26948">
        <ele>784.09</ele>
        <time>2020-09-30T09:51:29Z</time>
      </trkpt>
      <trkpt lat="45.20017" lon="4.26965">
        <ele>784.09</ele>
        <time>2020-09-30T09:51:45Z</time>
      </trkpt>
      <trkpt lat="45.20016" lon="4.26971">
        <ele>784.57</ele>
        <time>2020-09-30T09:51:50Z</time>
      </trkpt>
      <trkpt lat="45.20016" lon="4.26984">
        <ele>785.53</ele>
        <time>2020-09-30T09:51:59Z</time>
      </trkpt>
      <trkpt lat="45.20017" lon="4.27002">
        <ele>785.05</ele>
        <time>2020-09-30T09:52:09Z</time>
      </trkpt>
      <trkpt lat="45.20014" lon="4.27012">
        <ele>783.13</ele>
        <time>2020-09-30T09:52:15Z</time>
      </trkpt>
      <trkpt lat="45.20013" lon="4.27016">
        <ele>782.65</ele>
        <time>2020-09-30T09:52:18Z</time>
      </trkpt>
      <trkpt lat="45.20012" lon="4.27018">
        <ele>782.17</ele>
        <time>2020-09-30T09:52:20Z</time>
      </trkpt>
      <trkpt lat="45.2001" lon="4.27024">
        <ele>781.21</ele>
        <time>2020-09-30T09:52:24Z</time>
      </trkpt>
      <trkpt lat="45.20003" lon="4.27042">
        <ele>778.32</ele>
        <time>2020-09-30T09:52:40Z</time>
      </trkpt>
      <trkpt lat="45.20001" lon="4.27044">
        <ele>777.84</ele>
        <time>2020-09-30T09:52:43Z</time>
      </trkpt>
      <trkpt lat="45.19987" lon="4.27052">
        <ele>770.15</ele>
        <time>2020-09-30T09:52:57Z</time>
      </trkpt>
      <trkpt lat="45.19983" lon="4.27054">
        <ele>768.71</ele>
        <time>2020-09-30T09:53:02Z</time>
      </trkpt>
      <trkpt lat="45.19972" lon="4.27064">
        <ele>768.71</ele>
        <time>2020-09-30T09:53:16Z</time>
      </trkpt>
      <trkpt lat="45.19969" lon="4.27067">
        <ele>769.67</ele>
        <time>2020-09-30T09:53:19Z</time>
      </trkpt>
      <trkpt lat="45.19967" lon="4.27071">
        <ele>770.63</ele>
        <time>2020-09-30T09:53:23Z</time>
      </trkpt>
      <trkpt lat="45.19968" lon="4.27077">
        <ele>771.11</ele>
        <time>2020-09-30T09:53:28Z</time>
      </trkpt>
      <trkpt lat="45.19969" lon="4.27085">
        <ele>771.6</ele>
        <time>2020-09-30T09:53:33Z</time>
      </trkpt>
      <trkpt lat="45.19968" lon="4.27088">
        <ele>772.56</ele>
        <time>2020-09-30T09:53:35Z</time>
      </trkpt>
      <trkpt lat="45.19969" lon="4.27092">
        <ele>773.52</ele>
        <time>2020-09-30T09:53:38Z</time>
      </trkpt>
      <trkpt lat="45.1997" lon="4.27105">
        <ele>771.11</ele>
        <time>2020-09-30T09:53:48Z</time>
      </trkpt>
      <trkpt lat="45.19975" lon="4.2712">
        <ele>771.11</ele>
        <time>2020-09-30T09:54:00Z</time>
      </trkpt>
      <trkpt lat="45.19979" lon="4.27137">
        <ele>774.96</ele>
        <time>2020-09-30T09:54:11Z</time>
      </trkpt>
      <trkpt lat="45.19985" lon="4.27161">
        <ele>777.84</ele>
        <time>2020-09-30T09:54:26Z</time>
      </trkpt>
      <trkpt lat="45.19985" lon="4.27178">
        <ele>775.44</ele>
        <time>2020-09-30T09:54:39Z</time>
      </trkpt>
      <trkpt lat="45.19984" lon="4.27181">
        <ele>774.48</ele>
        <time>2020-09-30T09:54:41Z</time>
      </trkpt>
      <trkpt lat="45.19982" lon="4.27187">
        <ele>773.04</ele>
        <time>2020-09-30T09:54:44Z</time>
      </trkpt>
      <trkpt lat="45.19982" lon="4.272">
        <ele>770.63</ele>
        <time>2020-09-30T09:54:50Z</time>
      </trkpt>
      <trkpt lat="45.19983" lon="4.27228">
        <ele>765.83</ele>
        <time>2020-09-30T09:55:05Z</time>
      </trkpt>
      <trkpt lat="45.19983" lon="4.27235">
        <ele>764.87</ele>
        <time>2020-09-30T09:55:09Z</time>
      </trkpt>
      <trkpt lat="45.19983" lon="4.27246">
        <ele>764.39</ele>
        <time>2020-09-30T09:55:15Z</time>
      </trkpt>
      <trkpt lat="45.19985" lon="4.27281">
        <ele>764.39</ele>
        <time>2020-09-30T09:55:33Z</time>
      </trkpt>
      <trkpt lat="45.19992" lon="4.27302">
        <ele>767.27</ele>
        <time>2020-09-30T09:55:48Z</time>
      </trkpt>
      <trkpt lat="45.19993" lon="4.27314">
        <ele>763.9</ele>
        <time>2020-09-30T09:56:02Z</time>
      </trkpt>
      <trkpt lat="45.19992" lon="4.27317">
        <ele>759.58</ele>
        <time>2020-09-30T09:56:17Z</time>
      </trkpt>
      <trkpt lat="45.19992" lon="4.27316">
        <ele>759.1</ele>
        <time>2020-09-30T09:56:31Z</time>
      </trkpt>
      <trkpt lat="45.19991" lon="4.27318">
        <ele>759.1</ele>
        <time>2020-09-30T09:56:33Z</time>
      </trkpt>
      <trkpt lat="45.19986" lon="4.27338">
        <ele>760.54</ele>
        <time>2020-09-30T09:56:50Z</time>
      </trkpt>
      <trkpt lat="45.19984" lon="4.27339">
        <ele>760.54</ele>
        <time>2020-09-30T09:56:52Z</time>
      </trkpt>
      <trkpt lat="45.19976" lon="4.27354">
        <ele>760.06</ele>
        <time>2020-09-30T09:57:05Z</time>
      </trkpt>
      <trkpt lat="45.19961" lon="4.27373">
        <ele>761.5</ele>
        <time>2020-09-30T09:57:21Z</time>
      </trkpt>
      <trkpt lat="45.19948" lon="4.2739">
        <ele>762.94</ele>
        <time>2020-09-30T09:57:35Z</time>
      </trkpt>
      <trkpt lat="45.19931" lon="4.27409">
        <ele>764.87</ele>
        <time>2020-09-30T09:57:54Z</time>
      </trkpt>
      <trkpt lat="45.19914" lon="4.27426">
        <ele>764.87</ele>
        <time>2020-09-30T09:58:09Z</time>
      </trkpt>
      <trkpt lat="45.199" lon="4.27432">
        <ele>763.9</ele>
        <time>2020-09-30T09:58:23Z</time>
      </trkpt>
      <trkpt lat="45.19879" lon="4.2744">
        <ele>763.9</ele>
        <time>2020-09-30T09:58:41Z</time>
      </trkpt>
      <trkpt lat="45.19868" lon="4.27446">
        <ele>762.94</ele>
        <time>2020-09-30T09:58:51Z</time>
      </trkpt>
      <trkpt lat="45.19862" lon="4.2745">
        <ele>762.46</ele>
        <time>2020-09-30T09:58:56Z</time>
      </trkpt>
      <trkpt lat="45.19839" lon="4.27456">
        <ele>761.98</ele>
        <time>2020-09-30T09:59:14Z</time>
      </trkpt>
      <trkpt lat="45.19818" lon="4.2746">
        <ele>762.46</ele>
        <time>2020-09-30T09:59:31Z</time>
      </trkpt>
      <trkpt lat="45.19811" lon="4.27476">
        <ele>762.46</ele>
        <time>2020-09-30T09:59:44Z</time>
      </trkpt>
      <trkpt lat="45.19812" lon="4.27486">
        <ele>762.46</ele>
        <time>2020-09-30T09:59:52Z</time>
      </trkpt>
      <trkpt lat="45.19811" lon="4.27511">
        <ele>763.9</ele>
        <time>2020-09-30T10:00:07Z</time>
      </trkpt>
      <trkpt lat="45.19805" lon="4.27529">
        <ele>763.42</ele>
        <time>2020-09-30T10:00:18Z</time>
      </trkpt>
      <trkpt lat="45.1981" lon="4.27555">
        <ele>763.9</ele>
        <time>2020-09-30T10:00:34Z</time>
      </trkpt>
      <trkpt lat="45.19826" lon="4.27581">
        <ele>762.46</ele>
        <time>2020-09-30T10:00:53Z</time>
      </trkpt>
      <trkpt lat="45.19831" lon="4.27593">
        <ele>762.46</ele>
        <time>2020-09-30T10:01:07Z</time>
      </trkpt>
      <trkpt lat="45.19833" lon="4.27595">
        <ele>760.06</ele>
        <time>2020-09-30T10:01:17Z</time>
      </trkpt>
      <trkpt lat="45.19828" lon="4.27594">
        <ele>760.54</ele>
        <time>2020-09-30T10:01:29Z</time>
      </trkpt>
      <trkpt lat="45.19826" lon="4.27597">
        <ele>760.54</ele>
        <time>2020-09-30T10:01:32Z</time>
      </trkpt>
      <trkpt lat="45.19809" lon="4.27606">
        <ele>758.62</ele>
        <time>2020-09-30T10:01:48Z</time>
      </trkpt>
      <trkpt lat="45.19789" lon="4.27622">
        <ele>758.14</ele>
        <time>2020-09-30T10:02:05Z</time>
      </trkpt>
      <trkpt lat="45.19764" lon="4.27628">
        <ele>758.62</ele>
        <time>2020-09-30T10:02:24Z</time>
      </trkpt>
      <trkpt lat="45.19744" lon="4.27646">
        <ele>755.25</ele>
        <time>2020-09-30T10:02:43Z</time>
      </trkpt>
      <trkpt lat="45.19739" lon="4.27657">
        <ele>755.73</ele>
        <time>2020-09-30T10:02:51Z</time>
      </trkpt>
      <trkpt lat="45.19737" lon="4.27671">
        <ele>757.18</ele>
        <time>2020-09-30T10:02:59Z</time>
      </trkpt>
      <trkpt lat="45.19732" lon="4.27688">
        <ele>756.21</ele>
        <time>2020-09-30T10:03:09Z</time>
      </trkpt>
      <trkpt lat="45.19726" lon="4.27703">
        <ele>756.69</ele>
        <time>2020-09-30T10:03:19Z</time>
      </trkpt>
      <trkpt lat="45.19725" lon="4.27709">
        <ele>755.73</ele>
        <time>2020-09-30T10:03:23Z</time>
      </trkpt>
      <trkpt lat="45.1972" lon="4.27732">
        <ele>756.69</ele>
        <time>2020-09-30T10:03:36Z</time>
      </trkpt>
      <trkpt lat="45.19712" lon="4.27757">
        <ele>756.21</ele>
        <time>2020-09-30T10:03:50Z</time>
      </trkpt>
      <trkpt lat="45.19702" lon="4.27775">
        <ele>758.14</ele>
        <time>2020-09-30T10:04:02Z</time>
      </trkpt>
      <trkpt lat="45.19694" lon="4.2779">
        <ele>758.62</ele>
        <time>2020-09-30T10:04:13Z</time>
      </trkpt>
      <trkpt lat="45.19687" lon="4.27807">
        <ele>758.14</ele>
        <time>2020-09-30T10:04:24Z</time>
      </trkpt>
      <trkpt lat="45.19681" lon="4.27818">
        <ele>758.14</ele>
        <time>2020-09-30T10:04:31Z</time>
      </trkpt>
      <trkpt lat="45.19678" lon="4.27823">
        <ele>757.66</ele>
        <time>2020-09-30T10:04:35Z</time>
      </trkpt>
      <trkpt lat="45.19674" lon="4.27831">
        <ele>757.18</ele>
        <time>2020-09-30T10:04:40Z</time>
      </trkpt>
      <trkpt lat="45.19665" lon="4.27842">
        <ele>759.1</ele>
        <time>2020-09-30T10:04:50Z</time>
      </trkpt>
      <trkpt lat="45.19663" lon="4.27842">
        <ele>759.58</ele>
        <time>2020-09-30T10:04:52Z</time>
      </trkpt>
      <trkpt lat="45.1965" lon="4.27846">
        <ele>763.9</ele>
        <time>2020-09-30T10:05:05Z</time>
      </trkpt>
      <trkpt lat="45.19639" lon="4.27848">
        <ele>767.27</ele>
        <time>2020-09-30T10:05:17Z</time>
      </trkpt>
      <trkpt lat="45.19623" lon="4.27853">
        <ele>771.11</ele>
        <time>2020-09-30T10:05:31Z</time>
      </trkpt>
      <trkpt lat="45.19609" lon="4.27855">
        <ele>777.36</ele>
        <time>2020-09-30T10:05:44Z</time>
      </trkpt>
      <trkpt lat="45.19597" lon="4.27848">
        <ele>781.21</ele>
        <time>2020-09-30T10:05:57Z</time>
      </trkpt>
      <trkpt lat="45.19578" lon="4.27844">
        <ele>783.13</ele>
        <time>2020-09-30T10:06:12Z</time>
      </trkpt>
      <trkpt lat="45.19571" lon="4.27842">
        <ele>784.09</ele>
        <time>2020-09-30T10:06:18Z</time>
      </trkpt>
      <trkpt lat="45.1956" lon="4.27837">
        <ele>786.98</ele>
        <time>2020-09-30T10:06:30Z</time>
      </trkpt>
      <trkpt lat="45.19547" lon="4.27836">
        <ele>790.82</ele>
        <time>2020-09-30T10:06:41Z</time>
      </trkpt>
      <trkpt lat="45.19541" lon="4.27835">
        <ele>792.74</ele>
        <time>2020-09-30T10:06:47Z</time>
      </trkpt>
      <trkpt lat="45.19528" lon="4.27839">
        <ele>795.63</ele>
        <time>2020-09-30T10:06:57Z</time>
      </trkpt>
      <trkpt lat="45.19524" lon="4.27839">
        <ele>796.59</ele>
        <time>2020-09-30T10:07:00Z</time>
      </trkpt>
      <trkpt lat="45.19507" lon="4.27842">
        <ele>798.51</ele>
        <time>2020-09-30T10:07:14Z</time>
      </trkpt>
      <trkpt lat="45.19503" lon="4.27843">
        <ele>799.47</ele>
        <time>2020-09-30T10:07:18Z</time>
      </trkpt>
      <trkpt lat="45.19491" lon="4.27848">
        <ele>800.92</ele>
        <time>2020-09-30T10:07:29Z</time>
      </trkpt>
      <trkpt lat="45.1947" lon="4.27853">
        <ele>802.36</ele>
        <time>2020-09-30T10:07:44Z</time>
      </trkpt>
      <trkpt lat="45.19459" lon="4.27851">
        <ele>802.84</ele>
        <time>2020-09-30T10:07:54Z</time>
      </trkpt>
      <trkpt lat="45.19455" lon="4.27851">
        <ele>803.32</ele>
        <time>2020-09-30T10:07:57Z</time>
      </trkpt>
      <trkpt lat="45.19439" lon="4.27853">
        <ele>801.88</ele>
        <time>2020-09-30T10:08:09Z</time>
      </trkpt>
      <trkpt lat="45.1943" lon="4.27859">
        <ele>801.88</ele>
        <time>2020-09-30T10:08:17Z</time>
      </trkpt>
      <trkpt lat="45.19417" lon="4.27867">
        <ele>803.32</ele>
        <time>2020-09-30T10:08:30Z</time>
      </trkpt>
      <trkpt lat="45.194" lon="4.27875">
        <ele>803.8</ele>
        <time>2020-09-30T10:08:43Z</time>
      </trkpt>
      <trkpt lat="45.19389" lon="4.27887">
        <ele>800.44</ele>
        <time>2020-09-30T10:08:56Z</time>
      </trkpt>
      <trkpt lat="45.19381" lon="4.27902">
        <ele>801.4</ele>
        <time>2020-09-30T10:09:08Z</time>
      </trkpt>
      <trkpt lat="45.19376" lon="4.27909">
        <ele>801.4</ele>
        <time>2020-09-30T10:09:13Z</time>
      </trkpt>
      <trkpt lat="45.19368" lon="4.27936">
        <ele>798.51</ele>
        <time>2020-09-30T10:09:26Z</time>
      </trkpt>
      <trkpt lat="45.19352" lon="4.27952">
        <ele>796.11</ele>
        <time>2020-09-30T10:09:41Z</time>
      </trkpt>
      <trkpt lat="45.1935" lon="4.27953">
        <ele>796.11</ele>
        <time>2020-09-30T10:09:43Z</time>
      </trkpt>
      <trkpt lat="45.19337" lon="4.27959">
        <ele>798.03</ele>
        <time>2020-09-30T10:09:57Z</time>
      </trkpt>
      <trkpt lat="45.19332" lon="4.27959">
        <ele>800.44</ele>
        <time>2020-09-30T10:10:03Z</time>
      </trkpt>
      <trkpt lat="45.19327" lon="4.27958">
        <ele>801.88</ele>
        <time>2020-09-30T10:10:08Z</time>
      </trkpt>
      <trkpt lat="45.19322" lon="4.27959">
        <ele>801.88</ele>
        <time>2020-09-30T10:10:12Z</time>
      </trkpt>
      <trkpt lat="45.19305" lon="4.27956">
        <ele>803.8</ele>
        <time>2020-09-30T10:10:27Z</time>
      </trkpt>
      <trkpt lat="45.19303" lon="4.27956">
        <ele>803.8</ele>
        <time>2020-09-30T10:10:29Z</time>
      </trkpt>
      <trkpt lat="45.19288" lon="4.27952">
        <ele>806.68</ele>
        <time>2020-09-30T10:10:44Z</time>
      </trkpt>
      <trkpt lat="45.19283" lon="4.27951">
        <ele>808.13</ele>
        <time>2020-09-30T10:10:51Z</time>
      </trkpt>
      <trkpt lat="45.19274" lon="4.27951">
        <ele>811.01</ele>
        <time>2020-09-30T10:10:59Z</time>
      </trkpt>
      <trkpt lat="45.19263" lon="4.27953">
        <ele>812.45</ele>
        <time>2020-09-30T10:11:07Z</time>
      </trkpt>
      <trkpt lat="45.1925" lon="4.27957">
        <ele>815.82</ele>
        <time>2020-09-30T10:11:20Z</time>
      </trkpt>
      <trkpt lat="45.1925" lon="4.27958">
        <ele>815.82</ele>
        <time>2020-09-30T10:11:23Z</time>
      </trkpt>
      <trkpt lat="45.19245" lon="4.2796">
        <ele>815.82</ele>
        <time>2020-09-30T10:11:27Z</time>
      </trkpt>
      <trkpt lat="45.19231" lon="4.27966">
        <ele>816.78</ele>
        <time>2020-09-30T10:11:38Z</time>
      </trkpt>
      <trkpt lat="45.19212" lon="4.27975">
        <ele>815.82</ele>
        <time>2020-09-30T10:11:52Z</time>
      </trkpt>
      <trkpt lat="45.19208" lon="4.27978">
        <ele>815.82</ele>
        <time>2020-09-30T10:11:55Z</time>
      </trkpt>
      <trkpt lat="45.19196" lon="4.27987">
        <ele>812.93</ele>
        <time>2020-09-30T10:12:05Z</time>
      </trkpt>
      <trkpt lat="45.19188" lon="4.27995">
        <ele>811.49</ele>
        <time>2020-09-30T10:12:12Z</time>
      </trkpt>
      <trkpt lat="45.19181" lon="4.28005">
        <ele>810.53</ele>
        <time>2020-09-30T10:12:19Z</time>
      </trkpt>
      <trkpt lat="45.19173" lon="4.28014">
        <ele>809.57</ele>
        <time>2020-09-30T10:12:27Z</time>
      </trkpt>
      <trkpt lat="45.19171" lon="4.28016">
        <ele>809.09</ele>
        <time>2020-09-30T10:12:29Z</time>
      </trkpt>
      <trkpt lat="45.19168" lon="4.28021">
        <ele>809.09</ele>
        <time>2020-09-30T10:12:33Z</time>
      </trkpt>
      <trkpt lat="45.19165" lon="4.28025">
        <ele>809.09</ele>
        <time>2020-09-30T10:12:36Z</time>
      </trkpt>
      <trkpt lat="45.1916" lon="4.28036">
        <ele>808.13</ele>
        <time>2020-09-30T10:12:43Z</time>
      </trkpt>
      <trkpt lat="45.19152" lon="4.28049">
        <ele>808.61</ele>
        <time>2020-09-30T10:12:54Z</time>
      </trkpt>
      <trkpt lat="45.19142" lon="4.28066">
        <ele>807.64</ele>
        <time>2020-09-30T10:13:09Z</time>
      </trkpt>
      <trkpt lat="45.19138" lon="4.28076">
        <ele>808.61</ele>
        <time>2020-09-30T10:13:21Z</time>
      </trkpt>
      <trkpt lat="45.19127" lon="4.28089">
        <ele>810.53</ele>
        <time>2020-09-30T10:13:36Z</time>
      </trkpt>
      <trkpt lat="45.19117" lon="4.28104">
        <ele>811.97</ele>
        <time>2020-09-30T10:13:50Z</time>
      </trkpt>
      <trkpt lat="45.19112" lon="4.2811">
        <ele>811.97</ele>
        <time>2020-09-30T10:13:57Z</time>
      </trkpt>
      <trkpt lat="45.19107" lon="4.28118">
        <ele>811.97</ele>
        <time>2020-09-30T10:14:05Z</time>
      </trkpt>
      <trkpt lat="45.19102" lon="4.28123">
        <ele>811.97</ele>
        <time>2020-09-30T10:14:11Z</time>
      </trkpt>
      <trkpt lat="45.19087" lon="4.28141">
        <ele>815.82</ele>
        <time>2020-09-30T10:14:28Z</time>
      </trkpt>
      <trkpt lat="45.19072" lon="4.28156">
        <ele>816.3</ele>
        <time>2020-09-30T10:14:44Z</time>
      </trkpt>
      <trkpt lat="45.19051" lon="4.28162">
        <ele>817.26</ele>
        <time>2020-09-30T10:15:02Z</time>
      </trkpt>
      <trkpt lat="45.19045" lon="4.28162">
        <ele>817.26</ele>
        <time>2020-09-30T10:15:08Z</time>
      </trkpt>
      <trkpt lat="45.19035" lon="4.28159">
        <ele>816.3</ele>
        <time>2020-09-30T10:15:22Z</time>
      </trkpt>
      <trkpt lat="45.19033" lon="4.28159">
        <ele>815.82</ele>
        <time>2020-09-30T10:15:35Z</time>
      </trkpt>
      <trkpt lat="45.19026" lon="4.28162">
        <ele>816.78</ele>
        <time>2020-09-30T10:15:47Z</time>
      </trkpt>
      <trkpt lat="45.1902" lon="4.28167">
        <ele>817.26</ele>
        <time>2020-09-30T10:15:59Z</time>
      </trkpt>
      <trkpt lat="45.19015" lon="4.28173">
        <ele>815.82</ele>
        <time>2020-09-30T10:16:10Z</time>
      </trkpt>
      <trkpt lat="45.19008" lon="4.28178">
        <ele>816.3</ele>
        <time>2020-09-30T10:16:23Z</time>
      </trkpt>
      <trkpt lat="45.19008" lon="4.28182">
        <ele>814.85</ele>
        <time>2020-09-30T10:16:33Z</time>
      </trkpt>
      <trkpt lat="45.19005" lon="4.28186">
        <ele>814.85</ele>
        <time>2020-09-30T10:16:41Z</time>
      </trkpt>
      <trkpt lat="45.19003" lon="4.28188">
        <ele>814.37</ele>
        <time>2020-09-30T10:16:43Z</time>
      </trkpt>
      <trkpt lat="45.18999" lon="4.28209">
        <ele>813.41</ele>
        <time>2020-09-30T10:16:58Z</time>
      </trkpt>
      <trkpt lat="45.18998" lon="4.28225">
        <ele>812.93</ele>
        <time>2020-09-30T10:17:08Z</time>
      </trkpt>
      <trkpt lat="45.18998" lon="4.28234">
        <ele>811.49</ele>
        <time>2020-09-30T10:17:17Z</time>
      </trkpt>
      <trkpt lat="45.18999" lon="4.28243">
        <ele>811.01</ele>
        <time>2020-09-30T10:17:25Z</time>
      </trkpt>
      <trkpt lat="45.19009" lon="4.28262">
        <ele>810.05</ele>
        <time>2020-09-30T10:17:41Z</time>
      </trkpt>
      <trkpt lat="45.19011" lon="4.28263">
        <ele>810.05</ele>
        <time>2020-09-30T10:17:43Z</time>
      </trkpt>
      <trkpt lat="45.19012" lon="4.2827">
        <ele>809.57</ele>
        <time>2020-09-30T10:17:48Z</time>
      </trkpt>
      <trkpt lat="45.19022" lon="4.28287">
        <ele>810.05</ele>
        <time>2020-09-30T10:18:05Z</time>
      </trkpt>
      <trkpt lat="45.19028" lon="4.28309">
        <ele>814.37</ele>
        <time>2020-09-30T10:18:22Z</time>
      </trkpt>
      <trkpt lat="45.1903" lon="4.28312">
        <ele>815.34</ele>
        <time>2020-09-30T10:18:33Z</time>
      </trkpt>
      <trkpt lat="45.19028" lon="4.28313">
        <ele>815.34</ele>
        <time>2020-09-30T10:18:44Z</time>
      </trkpt>
      <trkpt lat="45.19028" lon="4.28316">
        <ele>815.82</ele>
        <time>2020-09-30T10:18:47Z</time>
      </trkpt>
      <trkpt lat="45.19027" lon="4.28319">
        <ele>815.34</ele>
        <time>2020-09-30T10:18:58Z</time>
      </trkpt>
      <trkpt lat="45.19028" lon="4.28321">
        <ele>815.34</ele>
        <time>2020-09-30T10:19:07Z</time>
      </trkpt>
      <trkpt lat="45.1903" lon="4.28343">
        <ele>818.7</ele>
        <time>2020-09-30T10:19:22Z</time>
      </trkpt>
      <trkpt lat="45.1903" lon="4.28346">
        <ele>818.7</ele>
        <time>2020-09-30T10:19:31Z</time>
      </trkpt>
      <trkpt lat="45.19031" lon="4.28353">
        <ele>819.66</ele>
        <time>2020-09-30T10:19:36Z</time>
      </trkpt>
      <trkpt lat="45.19036" lon="4.28381">
        <ele>822.55</ele>
        <time>2020-09-30T10:19:51Z</time>
      </trkpt>
      <trkpt lat="45.19037" lon="4.28394">
        <ele>824.47</ele>
        <time>2020-09-30T10:19:58Z</time>
      </trkpt>
      <trkpt lat="45.19036" lon="4.28404">
        <ele>825.43</ele>
        <time>2020-09-30T10:20:03Z</time>
      </trkpt>
      <trkpt lat="45.19033" lon="4.28416">
        <ele>825.43</ele>
        <time>2020-09-30T10:20:09Z</time>
      </trkpt>
      <trkpt lat="45.19022" lon="4.28445">
        <ele>822.06</ele>
        <time>2020-09-30T10:20:25Z</time>
      </trkpt>
      <trkpt lat="45.19025" lon="4.28477">
        <ele>820.14</ele>
        <time>2020-09-30T10:20:41Z</time>
      </trkpt>
      <trkpt lat="45.19029" lon="4.28503">
        <ele>820.62</ele>
        <time>2020-09-30T10:20:57Z</time>
      </trkpt>
      <trkpt lat="45.19024" lon="4.28525">
        <ele>822.55</ele>
        <time>2020-09-30T10:21:12Z</time>
      </trkpt>
      <trkpt lat="45.19016" lon="4.28554">
        <ele>824.95</ele>
        <time>2020-09-30T10:21:31Z</time>
      </trkpt>
      <trkpt lat="45.19011" lon="4.28577">
        <ele>826.39</ele>
        <time>2020-09-30T10:21:45Z</time>
      </trkpt>
      <trkpt lat="45.19007" lon="4.28602">
        <ele>827.35</ele>
        <time>2020-09-30T10:22:00Z</time>
      </trkpt>
      <trkpt lat="45.19005" lon="4.2862">
        <ele>828.79</ele>
        <time>2020-09-30T10:22:11Z</time>
      </trkpt>
      <trkpt lat="45.19001" lon="4.28643">
        <ele>831.68</ele>
        <time>2020-09-30T10:22:26Z</time>
      </trkpt>
      <trkpt lat="45.18999" lon="4.28652">
        <ele>832.64</ele>
        <time>2020-09-30T10:22:39Z</time>
      </trkpt>
      <trkpt lat="45.18994" lon="4.28672">
        <ele>835.52</ele>
        <time>2020-09-30T10:22:51Z</time>
      </trkpt>
      <trkpt lat="45.1899" lon="4.28694">
        <ele>840.33</ele>
        <time>2020-09-30T10:23:06Z</time>
      </trkpt>
      <trkpt lat="45.18985" lon="4.2871">
        <ele>842.25</ele>
        <time>2020-09-30T10:23:18Z</time>
      </trkpt>
      <trkpt lat="45.18985" lon="4.28734">
        <ele>843.21</ele>
        <time>2020-09-30T10:23:32Z</time>
      </trkpt>
      <trkpt lat="45.18987" lon="4.28754">
        <ele>844.66</ele>
        <time>2020-09-30T10:23:43Z</time>
      </trkpt>
      <trkpt lat="45.18986" lon="4.28763">
        <ele>842.73</ele>
        <time>2020-09-30T10:23:55Z</time>
      </trkpt>
      <trkpt lat="45.18985" lon="4.2877">
        <ele>841.77</ele>
        <time>2020-09-30T10:24:10Z</time>
      </trkpt>
      <trkpt lat="45.18986" lon="4.28769">
        <ele>842.25</ele>
        <time>2020-09-30T10:24:20Z</time>
      </trkpt>
      <trkpt lat="45.18986" lon="4.28768">
        <ele>841.29</ele>
        <time>2020-09-30T10:24:32Z</time>
      </trkpt>
      <trkpt lat="45.18986" lon="4.28769">
        <ele>841.77</ele>
        <time>2020-09-30T10:24:44Z</time>
      </trkpt>
      <trkpt lat="45.18986" lon="4.28768">
        <ele>841.29</ele>
        <time>2020-09-30T10:24:58Z</time>
      </trkpt>
      <trkpt lat="45.18977" lon="4.2879">
        <ele>844.18</ele>
        <time>2020-09-30T10:25:13Z</time>
      </trkpt>
      <trkpt lat="45.1896" lon="4.28813">
        <ele>847.06</ele>
        <time>2020-09-30T10:25:31Z</time>
      </trkpt>
      <trkpt lat="45.18948" lon="4.28829">
        <ele>847.06</ele>
        <time>2020-09-30T10:25:45Z</time>
      </trkpt>
      <trkpt lat="45.18942" lon="4.28837">
        <ele>847.54</ele>
        <time>2020-09-30T10:25:52Z</time>
      </trkpt>
      <trkpt lat="45.18926" lon="4.28862">
        <ele>848.02</ele>
        <time>2020-09-30T10:26:12Z</time>
      </trkpt>
      <trkpt lat="45.18918" lon="4.28876">
        <ele>849.46</ele>
        <time>2020-09-30T10:26:26Z</time>
      </trkpt>
      <trkpt lat="45.18918" lon="4.28879">
        <ele>848.98</ele>
        <time>2020-09-30T10:26:39Z</time>
      </trkpt>
      <trkpt lat="45.18918" lon="4.28879">
        <ele>849.46</ele>
        <time>2020-09-30T10:26:42Z</time>
      </trkpt>
      <trkpt lat="45.18922" lon="4.2887">
        <ele>848.98</ele>
        <time>2020-09-30T10:26:49Z</time>
      </trkpt>
      <trkpt lat="45.1893" lon="4.28862">
        <ele>846.58</ele>
        <time>2020-09-30T10:27:04Z</time>
      </trkpt>
      <trkpt lat="45.18931" lon="4.28863">
        <ele>845.62</ele>
        <time>2020-09-30T10:27:28Z</time>
      </trkpt>
      <trkpt lat="45.18932" lon="4.28863">
        <ele>844.66</ele>
        <time>2020-09-30T10:28:01Z</time>
      </trkpt>
      <trkpt lat="45.18932" lon="4.28862">
        <ele>845.14</ele>
        <time>2020-09-30T10:28:18Z</time>
      </trkpt>
      <trkpt lat="45.18928" lon="4.28867">
        <ele>846.1</ele>
        <time>2020-09-30T10:28:25Z</time>
      </trkpt>
      <trkpt lat="45.18925" lon="4.28873">
        <ele>847.54</ele>
        <time>2020-09-30T10:28:29Z</time>
      </trkpt>
      <trkpt lat="45.18923" lon="4.28892">
        <ele>851.38</ele>
        <time>2020-09-30T10:28:43Z</time>
      </trkpt>
      <trkpt lat="45.18925" lon="4.28915">
        <ele>852.83</ele>
        <time>2020-09-30T10:29:00Z</time>
      </trkpt>
      <trkpt lat="45.18927" lon="4.28918">
        <ele>853.31</ele>
        <time>2020-09-30T10:29:14Z</time>
      </trkpt>
      <trkpt lat="45.18927" lon="4.28918">
        <ele>853.31</ele>
        <time>2020-09-30T10:29:20Z</time>
      </trkpt>
      <trkpt lat="45.18925" lon="4.28918">
        <ele>853.79</ele>
        <time>2020-09-30T10:29:28Z</time>
      </trkpt>
      <trkpt lat="45.18925" lon="4.28918">
        <ele>853.31</ele>
        <time>2020-09-30T10:29:52Z</time>
      </trkpt>
      <trkpt lat="45.18924" lon="4.28918">
        <ele>852.83</ele>
        <time>2020-09-30T10:30:19Z</time>
      </trkpt>
      <trkpt lat="45.18923" lon="4.28919">
        <ele>852.35</ele>
        <time>2020-09-30T10:30:49Z</time>
      </trkpt>
      <trkpt lat="45.18923" lon="4.28919">
        <ele>852.35</ele>
        <time>2020-09-30T10:31:33Z</time>
      </trkpt>
      <trkpt lat="45.18923" lon="4.28918">
        <ele>851.87</ele>
        <time>2020-09-30T10:32:03Z</time>
      </trkpt>
      <trkpt lat="45.18923" lon="4.28918">
        <ele>850.9</ele>
        <time>2020-09-30T10:32:34Z</time>
      </trkpt>
      <trkpt lat="45.18923" lon="4.28918">
        <ele>850.9</ele>
        <time>2020-09-30T10:33:07Z</time>
      </trkpt>
      <trkpt lat="45.18923" lon="4.28918">
        <ele>849.94</ele>
        <time>2020-09-30T10:33:37Z</time>
      </trkpt>
      <trkpt lat="45.18922" lon="4.28917">
        <ele>849.94</ele>
        <time>2020-09-30T10:34:07Z</time>
      </trkpt>
      <trkpt lat="45.18922" lon="4.28918">
        <ele>849.46</ele>
        <time>2020-09-30T10:34:39Z</time>
      </trkpt>
      <trkpt lat="45.18921" lon="4.28918">
        <ele>849.46</ele>
        <time>2020-09-30T10:35:10Z</time>
      </trkpt>
      <trkpt lat="45.18921" lon="4.28919">
        <ele>849.46</ele>
        <time>2020-09-30T10:35:43Z</time>
      </trkpt>
      <trkpt lat="45.18921" lon="4.2892">
        <ele>850.9</ele>
        <time>2020-09-30T10:36:18Z</time>
      </trkpt>
      <trkpt lat="45.18921" lon="4.2892">
        <ele>850.42</ele>
        <time>2020-09-30T10:36:49Z</time>
      </trkpt>
      <trkpt lat="45.1892" lon="4.2892">
        <ele>849.94</ele>
        <time>2020-09-30T10:37:22Z</time>
      </trkpt>
      <trkpt lat="45.18921" lon="4.2892">
        <ele>849.94</ele>
        <time>2020-09-30T10:37:48Z</time>
      </trkpt>
      <trkpt lat="45.18921" lon="4.28919">
        <ele>849.94</ele>
        <time>2020-09-30T10:38:10Z</time>
      </trkpt>
      <trkpt lat="45.18921" lon="4.2892">
        <ele>849.94</ele>
        <time>2020-09-30T10:38:33Z</time>
      </trkpt>
      <trkpt lat="45.18921" lon="4.28919">
        <ele>849.94</ele>
        <time>2020-09-30T10:38:56Z</time>
      </trkpt>
      <trkpt lat="45.18921" lon="4.2892">
        <ele>850.42</ele>
        <time>2020-09-30T10:39:22Z</time>
      </trkpt>
      <trkpt lat="45.18921" lon="4.28919">
        <ele>850.9</ele>
        <time>2020-09-30T10:39:43Z</time>
      </trkpt>
      <trkpt lat="45.18921" lon="4.28918">
        <ele>851.38</ele>
        <time>2020-09-30T10:40:13Z</time>
      </trkpt>
      <trkpt lat="45.18921" lon="4.28918">
        <ele>851.38</ele>
        <time>2020-09-30T10:40:43Z</time>
      </trkpt>
      <trkpt lat="45.18922" lon="4.28918">
        <ele>850.9</ele>
        <time>2020-09-30T10:41:13Z</time>
      </trkpt>
      <trkpt lat="45.18922" lon="4.28919">
        <ele>850.9</ele>
        <time>2020-09-30T10:41:42Z</time>
      </trkpt>
      <trkpt lat="45.18921" lon="4.28919">
        <ele>850.9</ele>
        <time>2020-09-30T10:42:10Z</time>
      </trkpt>
      <trkpt lat="45.18922" lon="4.28918">
        <ele>850.9</ele>
        <time>2020-09-30T10:42:39Z</time>
      </trkpt>
      <trkpt lat="45.18922" lon="4.28918">
        <ele>850.42</ele>
        <time>2020-09-30T10:43:09Z</time>
      </trkpt>
      <trkpt lat="45.18923" lon="4.28917">
        <ele>850.9</ele>
        <time>2020-09-30T10:43:44Z</time>
      </trkpt>
      <trkpt lat="45.18924" lon="4.28917">
        <ele>850.9</ele>
        <time>2020-09-30T10:44:16Z</time>
      </trkpt>
      <trkpt lat="45.18924" lon="4.28917">
        <ele>850.9</ele>
        <time>2020-09-30T10:44:45Z</time>
      </trkpt>
      <trkpt lat="45.18924" lon="4.28918">
        <ele>850.9</ele>
        <time>2020-09-30T10:45:23Z</time>
      </trkpt>
      <trkpt lat="45.18923" lon="4.28917">
        <ele>851.87</ele>
        <time>2020-09-30T10:45:55Z</time>
      </trkpt>
      <trkpt lat="45.18923" lon="4.28917">
        <ele>852.35</ele>
        <time>2020-09-30T10:46:28Z</time>
      </trkpt>
      <trkpt lat="45.18923" lon="4.28917">
        <ele>852.35</ele>
        <time>2020-09-30T10:47:01Z</time>
      </trkpt>
      <trkpt lat="45.18923" lon="4.28917">
        <ele>852.35</ele>
        <time>2020-09-30T10:47:27Z</time>
      </trkpt>
      <trkpt lat="45.18923" lon="4.28917">
        <ele>851.87</ele>
        <time>2020-09-30T10:48:04Z</time>
      </trkpt>
      <trkpt lat="45.18923" lon="4.28919">
        <ele>850.9</ele>
        <time>2020-09-30T10:48:41Z</time>
      </trkpt>
      <trkpt lat="45.18923" lon="4.28918">
        <ele>850.9</ele>
        <time>2020-09-30T10:49:09Z</time>
      </trkpt>
      <trkpt lat="45.18923" lon="4.28917">
        <ele>850.42</ele>
        <time>2020-09-30T10:49:33Z</time>
      </trkpt>
      <trkpt lat="45.18923" lon="4.28917">
        <ele>850.42</ele>
        <time>2020-09-30T10:50:03Z</time>
      </trkpt>
      <trkpt lat="45.18924" lon="4.28917">
        <ele>850.42</ele>
        <time>2020-09-30T10:50:30Z</time>
      </trkpt>
      <trkpt lat="45.18924" lon="4.28917">
        <ele>850.42</ele>
        <time>2020-09-30T10:50:58Z</time>
      </trkpt>
      <trkpt lat="45.18924" lon="4.28918">
        <ele>849.94</ele>
        <time>2020-09-30T10:51:20Z</time>
      </trkpt>
      <trkpt lat="45.18924" lon="4.28918">
        <ele>850.42</ele>
        <time>2020-09-30T10:51:47Z</time>
      </trkpt>
      <trkpt lat="45.18924" lon="4.28917">
        <ele>850.9</ele>
        <time>2020-09-30T10:52:11Z</time>
      </trkpt>
      <trkpt lat="45.18925" lon="4.28918">
        <ele>851.38</ele>
        <time>2020-09-30T10:52:38Z</time>
      </trkpt>
      <trkpt lat="45.18924" lon="4.28919">
        <ele>851.87</ele>
        <time>2020-09-30T10:53:16Z</time>
      </trkpt>
      <trkpt lat="45.18925" lon="4.28919">
        <ele>851.38</ele>
        <time>2020-09-30T10:53:55Z</time>
      </trkpt>
      <trkpt lat="45.18925" lon="4.28919">
        <ele>851.87</ele>
        <time>2020-09-30T10:54:28Z</time>
      </trkpt>
      <trkpt lat="45.18925" lon="4.28919">
        <ele>852.35</ele>
        <time>2020-09-30T10:55:02Z</time>
      </trkpt>
      <trkpt lat="45.18926" lon="4.28919">
        <ele>851.87</ele>
        <time>2020-09-30T10:55:34Z</time>
      </trkpt>
      <trkpt lat="45.18926" lon="4.28919">
        <ele>852.83</ele>
        <time>2020-09-30T10:56:06Z</time>
      </trkpt>
      <trkpt lat="45.18926" lon="4.28919">
        <ele>853.79</ele>
        <time>2020-09-30T10:56:35Z</time>
      </trkpt>
      <trkpt lat="45.18926" lon="4.28919">
        <ele>854.27</ele>
        <time>2020-09-30T10:57:03Z</time>
      </trkpt>
      <trkpt lat="45.18926" lon="4.2892">
        <ele>853.79</ele>
        <time>2020-09-30T10:57:27Z</time>
      </trkpt>
      <trkpt lat="45.18925" lon="4.28921">
        <ele>854.27</ele>
        <time>2020-09-30T10:57:57Z</time>
      </trkpt>
      <trkpt lat="45.18925" lon="4.28919">
        <ele>854.27</ele>
        <time>2020-09-30T10:58:21Z</time>
      </trkpt>
      <trkpt lat="45.18925" lon="4.28919">
        <ele>854.75</ele>
        <time>2020-09-30T10:58:44Z</time>
      </trkpt>
      <trkpt lat="45.18924" lon="4.28919">
        <ele>853.79</ele>
        <time>2020-09-30T10:59:09Z</time>
      </trkpt>
      <trkpt lat="45.18924" lon="4.28918">
        <ele>853.79</ele>
        <time>2020-09-30T10:59:36Z</time>
      </trkpt>
      <trkpt lat="45.18924" lon="4.28919">
        <ele>853.31</ele>
        <time>2020-09-30T11:00:05Z</time>
      </trkpt>
      <trkpt lat="45.18924" lon="4.28919">
        <ele>853.31</ele>
        <time>2020-09-30T11:00:30Z</time>
      </trkpt>
      <trkpt lat="45.18924" lon="4.28919">
        <ele>853.31</ele>
        <time>2020-09-30T11:00:55Z</time>
      </trkpt>
      <trkpt lat="45.18924" lon="4.2892">
        <ele>853.79</ele>
        <time>2020-09-30T11:01:39Z</time>
      </trkpt>
      <trkpt lat="45.18924" lon="4.2892">
        <ele>853.79</ele>
        <time>2020-09-30T11:02:06Z</time>
      </trkpt>
      <trkpt lat="45.18925" lon="4.28918">
        <ele>854.27</ele>
        <time>2020-09-30T11:02:38Z</time>
      </trkpt>
      <trkpt lat="45.18925" lon="4.28918">
        <ele>853.79</ele>
        <time>2020-09-30T11:03:07Z</time>
      </trkpt>
      <trkpt lat="45.18924" lon="4.28918">
        <ele>853.31</ele>
        <time>2020-09-30T11:03:39Z</time>
      </trkpt>
      <trkpt lat="45.18925" lon="4.28918">
        <ele>853.31</ele>
        <time>2020-09-30T11:04:06Z</time>
      </trkpt>
      <trkpt lat="45.18924" lon="4.28916">
        <ele>853.31</ele>
        <time>2020-09-30T11:04:43Z</time>
      </trkpt>
      <trkpt lat="45.18924" lon="4.28916">
        <ele>853.31</ele>
        <time>2020-09-30T11:05:08Z</time>
      </trkpt>
      <trkpt lat="45.18924" lon="4.28917">
        <ele>853.31</ele>
        <time>2020-09-30T11:05:35Z</time>
      </trkpt>
      <trkpt lat="45.18924" lon="4.28917">
        <ele>852.83</ele>
        <time>2020-09-30T11:06:12Z</time>
      </trkpt>
      <trkpt lat="45.18924" lon="4.28917">
        <ele>852.35</ele>
        <time>2020-09-30T11:06:35Z</time>
      </trkpt>
      <trkpt lat="45.18925" lon="4.28916">
        <ele>851.87</ele>
        <time>2020-09-30T11:07:14Z</time>
      </trkpt>
      <trkpt lat="45.18925" lon="4.28916">
        <ele>851.38</ele>
        <time>2020-09-30T11:07:55Z</time>
      </trkpt>
      <trkpt lat="45.18925" lon="4.28916">
        <ele>851.38</ele>
        <time>2020-09-30T11:08:40Z</time>
      </trkpt>
      <trkpt lat="45.18925" lon="4.28917">
        <ele>852.35</ele>
        <time>2020-09-30T11:09:21Z</time>
      </trkpt>
      <trkpt lat="45.18924" lon="4.28918">
        <ele>852.83</ele>
        <time>2020-09-30T11:10:01Z</time>
      </trkpt>
      <trkpt lat="45.18925" lon="4.28917">
        <ele>852.83</ele>
        <time>2020-09-30T11:10:33Z</time>
      </trkpt>
      <trkpt lat="45.18924" lon="4.28918">
        <ele>852.83</ele>
        <time>2020-09-30T11:11:03Z</time>
      </trkpt>
      <trkpt lat="45.18923" lon="4.2892">
        <ele>852.35</ele>
        <time>2020-09-30T11:11:34Z</time>
      </trkpt>
      <trkpt lat="45.18923" lon="4.2892">
        <ele>852.83</ele>
        <time>2020-09-30T11:11:58Z</time>
      </trkpt>
      <trkpt lat="45.18922" lon="4.28922">
        <ele>852.83</ele>
        <time>2020-09-30T11:12:26Z</time>
      </trkpt>
      <trkpt lat="45.18923" lon="4.28921">
        <ele>852.35</ele>
        <time>2020-09-30T11:12:44Z</time>
      </trkpt>
      <trkpt lat="45.18925" lon="4.28919">
        <ele>851.38</ele>
        <time>2020-09-30T11:13:01Z</time>
      </trkpt>
      <trkpt lat="45.18925" lon="4.28918">
        <ele>851.38</ele>
        <time>2020-09-30T11:13:13Z</time>
      </trkpt>
      <trkpt lat="45.18925" lon="4.28917">
        <ele>851.87</ele>
        <time>2020-09-30T11:13:33Z</time>
      </trkpt>
      <trkpt lat="45.18923" lon="4.2892">
        <ele>852.35</ele>
        <time>2020-09-30T11:13:37Z</time>
      </trkpt>
      <trkpt lat="45.18922" lon="4.28923">
        <ele>852.35</ele>
        <time>2020-09-30T11:13:39Z</time>
      </trkpt>
      <trkpt lat="45.1891" lon="4.28939">
        <ele>853.79</ele>
        <time>2020-09-30T11:13:55Z</time>
      </trkpt>
      <trkpt lat="45.1891" lon="4.28937">
        <ele>853.79</ele>
        <time>2020-09-30T11:14:04Z</time>
      </trkpt>
      <trkpt lat="45.18915" lon="4.28929">
        <ele>853.31</ele>
        <time>2020-09-30T11:14:20Z</time>
      </trkpt>
      <trkpt lat="45.18914" lon="4.2893">
        <ele>853.31</ele>
        <time>2020-09-30T11:14:24Z</time>
      </trkpt>
      <trkpt lat="45.18907" lon="4.28936">
        <ele>852.83</ele>
        <time>2020-09-30T11:14:40Z</time>
      </trkpt>
      <trkpt lat="45.18905" lon="4.28936">
        <ele>852.35</ele>
        <time>2020-09-30T11:14:55Z</time>
      </trkpt>
      <trkpt lat="45.1889" lon="4.28944">
        <ele>853.79</ele>
        <time>2020-09-30T11:15:12Z</time>
      </trkpt>
      <trkpt lat="45.1889" lon="4.28945">
        <ele>854.27</ele>
        <time>2020-09-30T11:15:13Z</time>
      </trkpt>
      <trkpt lat="45.18882" lon="4.28961">
        <ele>855.23</ele>
        <time>2020-09-30T11:15:28Z</time>
      </trkpt>
      <trkpt lat="45.18881" lon="4.28963">
        <ele>856.19</ele>
        <time>2020-09-30T11:15:41Z</time>
      </trkpt>
      <trkpt lat="45.18877" lon="4.2897">
        <ele>858.11</ele>
        <time>2020-09-30T11:15:56Z</time>
      </trkpt>
      <trkpt lat="45.1887" lon="4.28983">
        <ele>860.04</ele>
        <time>2020-09-30T11:16:05Z</time>
      </trkpt>
      <trkpt lat="45.18865" lon="4.28995">
        <ele>862.92</ele>
        <time>2020-09-30T11:16:18Z</time>
      </trkpt>
      <trkpt lat="45.18863" lon="4.29001">
        <ele>862.44</ele>
        <time>2020-09-30T11:16:31Z</time>
      </trkpt>
      <trkpt lat="45.18859" lon="4.29014">
        <ele>865.32</ele>
        <time>2020-09-30T11:16:44Z</time>
      </trkpt>
      <trkpt lat="45.18857" lon="4.29026">
        <ele>866.77</ele>
        <time>2020-09-30T11:16:51Z</time>
      </trkpt>
      <trkpt lat="45.1885" lon="4.29056">
        <ele>867.25</ele>
        <time>2020-09-30T11:17:09Z</time>
      </trkpt>
      <trkpt lat="45.18843" lon="4.29077">
        <ele>872.05</ele>
        <time>2020-09-30T11:17:26Z</time>
      </trkpt>
      <trkpt lat="45.18836" lon="4.29097">
        <ele>876.86</ele>
        <time>2020-09-30T11:17:42Z</time>
      </trkpt>
      <trkpt lat="45.18831" lon="4.29123">
        <ele>881.19</ele>
        <time>2020-09-30T11:17:58Z</time>
      </trkpt>
      <trkpt lat="45.18828" lon="4.29131">
        <ele>882.63</ele>
        <time>2020-09-30T11:18:03Z</time>
      </trkpt>
      <trkpt lat="45.18819" lon="4.29158">
        <ele>881.67</ele>
        <time>2020-09-30T11:18:18Z</time>
      </trkpt>
      <trkpt lat="45.18811" lon="4.29182">
        <ele>878.3</ele>
        <time>2020-09-30T11:18:35Z</time>
      </trkpt>
      <trkpt lat="45.18806" lon="4.29211">
        <ele>876.86</ele>
        <time>2020-09-30T11:18:52Z</time>
      </trkpt>
      <trkpt lat="45.18803" lon="4.29233">
        <ele>875.9</ele>
        <time>2020-09-30T11:19:05Z</time>
      </trkpt>
      <trkpt lat="45.18803" lon="4.2924">
        <ele>876.38</ele>
        <time>2020-09-30T11:19:09Z</time>
      </trkpt>
      <trkpt lat="45.1881" lon="4.29268">
        <ele>876.38</ele>
        <time>2020-09-30T11:19:26Z</time>
      </trkpt>
      <trkpt lat="45.18811" lon="4.29271">
        <ele>875.9</ele>
        <time>2020-09-30T11:19:29Z</time>
      </trkpt>
      <trkpt lat="45.18801" lon="4.29297">
        <ele>875.42</ele>
        <time>2020-09-30T11:19:47Z</time>
      </trkpt>
      <trkpt lat="45.1879" lon="4.29316">
        <ele>876.86</ele>
        <time>2020-09-30T11:20:03Z</time>
      </trkpt>
      <trkpt lat="45.18788" lon="4.29322">
        <ele>876.86</ele>
        <time>2020-09-30T11:20:07Z</time>
      </trkpt>
      <trkpt lat="45.18784" lon="4.29333">
        <ele>876.38</ele>
        <time>2020-09-30T11:20:14Z</time>
      </trkpt>
      <trkpt lat="45.18768" lon="4.29359">
        <ele>876.86</ele>
        <time>2020-09-30T11:20:33Z</time>
      </trkpt>
      <trkpt lat="45.1875" lon="4.29393">
        <ele>877.34</ele>
        <time>2020-09-30T11:20:55Z</time>
      </trkpt>
      <trkpt lat="45.18737" lon="4.29412">
        <ele>878.3</ele>
        <time>2020-09-30T11:21:10Z</time>
      </trkpt>
      <trkpt lat="45.1872" lon="4.29438">
        <ele>880.22</ele>
        <time>2020-09-30T11:21:30Z</time>
      </trkpt>
      <trkpt lat="45.18705" lon="4.29463">
        <ele>880.22</ele>
        <time>2020-09-30T11:21:48Z</time>
      </trkpt>
      <trkpt lat="45.1869" lon="4.29481">
        <ele>881.19</ele>
        <time>2020-09-30T11:22:04Z</time>
      </trkpt>
      <trkpt lat="45.18684" lon="4.29488">
        <ele>882.63</ele>
        <time>2020-09-30T11:22:11Z</time>
      </trkpt>
      <trkpt lat="45.18682" lon="4.29517">
        <ele>883.59</ele>
        <time>2020-09-30T11:22:31Z</time>
      </trkpt>
      <trkpt lat="45.18695" lon="4.29524">
        <ele>884.55</ele>
        <time>2020-09-30T11:22:45Z</time>
      </trkpt>
      <trkpt lat="45.18698" lon="4.29526">
        <ele>885.03</ele>
        <time>2020-09-30T11:22:48Z</time>
      </trkpt>
      <trkpt lat="45.18716" lon="4.29528">
        <ele>885.03</ele>
        <time>2020-09-30T11:23:04Z</time>
      </trkpt>
      <trkpt lat="45.18731" lon="4.29531">
        <ele>885.99</ele>
        <time>2020-09-30T11:23:16Z</time>
      </trkpt>
      <trkpt lat="45.18747" lon="4.29521">
        <ele>889.36</ele>
        <time>2020-09-30T11:23:32Z</time>
      </trkpt>
      <trkpt lat="45.18769" lon="4.29509">
        <ele>892.72</ele>
        <time>2020-09-30T11:23:50Z</time>
      </trkpt>
      <trkpt lat="45.18784" lon="4.29502">
        <ele>899.45</ele>
        <time>2020-09-30T11:24:06Z</time>
      </trkpt>
      <trkpt lat="45.18799" lon="4.29495">
        <ele>901.85</ele>
        <time>2020-09-30T11:24:21Z</time>
      </trkpt>
      <trkpt lat="45.18807" lon="4.2948">
        <ele>902.33</ele>
        <time>2020-09-30T11:24:36Z</time>
      </trkpt>
      <trkpt lat="45.18807" lon="4.29478">
        <ele>901.37</ele>
        <time>2020-09-30T11:24:51Z</time>
      </trkpt>
      <trkpt lat="45.18807" lon="4.29478">
        <ele>901.85</ele>
        <time>2020-09-30T11:25:12Z</time>
      </trkpt>
      <trkpt lat="45.18809" lon="4.2948">
        <ele>903.78</ele>
        <time>2020-09-30T11:25:39Z</time>
      </trkpt>
      <trkpt lat="45.18808" lon="4.29487">
        <ele>904.26</ele>
        <time>2020-09-30T11:26:00Z</time>
      </trkpt>
      <trkpt lat="45.18808" lon="4.29487">
        <ele>904.26</ele>
        <time>2020-09-30T11:26:25Z</time>
      </trkpt>
      <trkpt lat="45.18807" lon="4.29487">
        <ele>904.26</ele>
        <time>2020-09-30T11:26:46Z</time>
      </trkpt>
      <trkpt lat="45.18808" lon="4.29487">
        <ele>903.78</ele>
        <time>2020-09-30T11:27:11Z</time>
      </trkpt>
      <trkpt lat="45.18808" lon="4.29486">
        <ele>903.78</ele>
        <time>2020-09-30T11:27:33Z</time>
      </trkpt>
      <trkpt lat="45.18808" lon="4.29484">
        <ele>903.78</ele>
        <time>2020-09-30T11:27:55Z</time>
      </trkpt>
      <trkpt lat="45.18808" lon="4.29483">
        <ele>903.3</ele>
        <time>2020-09-30T11:28:20Z</time>
      </trkpt>
      <trkpt lat="45.18808" lon="4.29481">
        <ele>902.82</ele>
        <time>2020-09-30T11:28:44Z</time>
      </trkpt>
      <trkpt lat="45.18807" lon="4.29479">
        <ele>901.85</ele>
        <time>2020-09-30T11:29:12Z</time>
      </trkpt>
      <trkpt lat="45.18807" lon="4.29478">
        <ele>902.33</ele>
        <time>2020-09-30T11:29:35Z</time>
      </trkpt>
      <trkpt lat="45.18806" lon="4.29477">
        <ele>902.33</ele>
        <time>2020-09-30T11:30:05Z</time>
      </trkpt>
      <trkpt lat="45.18806" lon="4.29476">
        <ele>902.33</ele>
        <time>2020-09-30T11:30:32Z</time>
      </trkpt>
      <trkpt lat="45.18806" lon="4.29476">
        <ele>902.33</ele>
        <time>2020-09-30T11:30:57Z</time>
      </trkpt>
      <trkpt lat="45.18808" lon="4.29475">
        <ele>900.41</ele>
        <time>2020-09-30T11:31:14Z</time>
      </trkpt>
      <trkpt lat="45.18809" lon="4.29478">
        <ele>899.93</ele>
        <time>2020-09-30T11:31:19Z</time>
      </trkpt>
      <trkpt lat="45.18805" lon="4.29484">
        <ele>897.53</ele>
        <time>2020-09-30T11:31:24Z</time>
      </trkpt>
      <trkpt lat="45.18804" lon="4.29486">
        <ele>896.57</ele>
        <time>2020-09-30T11:31:26Z</time>
      </trkpt>
      <trkpt lat="45.18803" lon="4.29491">
        <ele>897.05</ele>
        <time>2020-09-30T11:31:30Z</time>
      </trkpt>
      <trkpt lat="45.18803" lon="4.29495">
        <ele>898.49</ele>
        <time>2020-09-30T11:31:33Z</time>
      </trkpt>
      <trkpt lat="45.18807" lon="4.29506">
        <ele>898.49</ele>
        <time>2020-09-30T11:31:40Z</time>
      </trkpt>
      <trkpt lat="45.18812" lon="4.29535">
        <ele>898.01</ele>
        <time>2020-09-30T11:32:00Z</time>
      </trkpt>
      <trkpt lat="45.18818" lon="4.29552">
        <ele>903.3</ele>
        <time>2020-09-30T11:32:17Z</time>
      </trkpt>
      <trkpt lat="45.18824" lon="4.29552">
        <ele>903.78</ele>
        <time>2020-09-30T11:32:23Z</time>
      </trkpt>
      <trkpt lat="45.18849" lon="4.2956">
        <ele>906.18</ele>
        <time>2020-09-30T11:32:40Z</time>
      </trkpt>
      <trkpt lat="45.18868" lon="4.2956">
        <ele>904.74</ele>
        <time>2020-09-30T11:32:54Z</time>
      </trkpt>
      <trkpt lat="45.18888" lon="4.29561">
        <ele>900.89</ele>
        <time>2020-09-30T11:33:12Z</time>
      </trkpt>
      <trkpt lat="45.18906" lon="4.29559">
        <ele>900.89</ele>
        <time>2020-09-30T11:33:28Z</time>
      </trkpt>
      <trkpt lat="45.18923" lon="4.29558">
        <ele>903.3</ele>
        <time>2020-09-30T11:33:43Z</time>
      </trkpt>
      <trkpt lat="45.18924" lon="4.29557">
        <ele>903.3</ele>
        <time>2020-09-30T11:33:44Z</time>
      </trkpt>
      <trkpt lat="45.18943" lon="4.29553">
        <ele>904.26</ele>
        <time>2020-09-30T11:33:59Z</time>
      </trkpt>
      <trkpt lat="45.18966" lon="4.29552">
        <ele>904.26</ele>
        <time>2020-09-30T11:34:15Z</time>
      </trkpt>
      <trkpt lat="45.18979" lon="4.29548">
        <ele>902.33</ele>
        <time>2020-09-30T11:34:23Z</time>
      </trkpt>
      <trkpt lat="45.19" lon="4.2954">
        <ele>896.09</ele>
        <time>2020-09-30T11:34:38Z</time>
      </trkpt>
      <trkpt lat="45.19023" lon="4.29535">
        <ele>894.16</ele>
        <time>2020-09-30T11:34:54Z</time>
      </trkpt>
      <trkpt lat="45.19052" lon="4.29525">
        <ele>893.2</ele>
        <time>2020-09-30T11:35:11Z</time>
      </trkpt>
      <trkpt lat="45.19058" lon="4.2952">
        <ele>892.72</ele>
        <time>2020-09-30T11:35:16Z</time>
      </trkpt>
      <trkpt lat="45.19084" lon="4.29509">
        <ele>891.28</ele>
        <time>2020-09-30T11:35:35Z</time>
      </trkpt>
      <trkpt lat="45.19106" lon="4.29497">
        <ele>887.43</ele>
        <time>2020-09-30T11:35:51Z</time>
      </trkpt>
      <trkpt lat="45.19137" lon="4.29488">
        <ele>878.3</ele>
        <time>2020-09-30T11:36:11Z</time>
      </trkpt>
      <trkpt lat="45.19171" lon="4.29483">
        <ele>868.21</ele>
        <time>2020-09-30T11:36:33Z</time>
      </trkpt>
      <trkpt lat="45.19199" lon="4.29481">
        <ele>861.48</ele>
        <time>2020-09-30T11:36:52Z</time>
      </trkpt>
      <trkpt lat="45.19228" lon="4.29478">
        <ele>856.19</ele>
        <time>2020-09-30T11:37:12Z</time>
      </trkpt>
      <trkpt lat="45.19257" lon="4.29469">
        <ele>850.9</ele>
        <time>2020-09-30T11:37:32Z</time>
      </trkpt>
      <trkpt lat="45.19287" lon="4.29461">
        <ele>846.58</ele>
        <time>2020-09-30T11:37:52Z</time>
      </trkpt>
      <trkpt lat="45.1932" lon="4.29453">
        <ele>844.66</ele>
        <time>2020-09-30T11:38:14Z</time>
      </trkpt>
      <trkpt lat="45.19353" lon="4.29443">
        <ele>842.73</ele>
        <time>2020-09-30T11:38:37Z</time>
      </trkpt>
      <trkpt lat="45.19383" lon="4.29435">
        <ele>840.81</ele>
        <time>2020-09-30T11:38:59Z</time>
      </trkpt>
      <trkpt lat="45.19412" lon="4.29426">
        <ele>838.41</ele>
        <time>2020-09-30T11:39:20Z</time>
      </trkpt>
      <trkpt lat="45.19426" lon="4.29424">
        <ele>836.96</ele>
        <time>2020-09-30T11:39:32Z</time>
      </trkpt>
      <trkpt lat="45.19452" lon="4.29438">
        <ele>836</ele>
        <time>2020-09-30T11:39:54Z</time>
      </trkpt>
      <trkpt lat="45.19476" lon="4.29451">
        <ele>833.6</ele>
        <time>2020-09-30T11:40:13Z</time>
      </trkpt>
      <trkpt lat="45.19491" lon="4.2946">
        <ele>832.16</ele>
        <time>2020-09-30T11:40:28Z</time>
      </trkpt>
      <trkpt lat="45.19509" lon="4.29464">
        <ele>833.6</ele>
        <time>2020-09-30T11:40:46Z</time>
      </trkpt>
      <trkpt lat="45.19523" lon="4.29463">
        <ele>836.96</ele>
        <time>2020-09-30T11:41:01Z</time>
      </trkpt>
      <trkpt lat="45.19534" lon="4.29465">
        <ele>839.85</ele>
        <time>2020-09-30T11:41:15Z</time>
      </trkpt>
      <trkpt lat="45.19542" lon="4.29472">
        <ele>836.48</ele>
        <time>2020-09-30T11:41:33Z</time>
      </trkpt>
      <trkpt lat="45.19549" lon="4.29473">
        <ele>836.48</ele>
        <time>2020-09-30T11:41:42Z</time>
      </trkpt>
      <trkpt lat="45.19567" lon="4.29463">
        <ele>842.25</ele>
        <time>2020-09-30T11:41:56Z</time>
      </trkpt>
      <trkpt lat="45.19572" lon="4.29462">
        <ele>846.1</ele>
        <time>2020-09-30T11:42:00Z</time>
      </trkpt>
      <trkpt lat="45.19598" lon="4.29457">
        <ele>860.04</ele>
        <time>2020-09-30T11:42:15Z</time>
      </trkpt>
      <trkpt lat="45.19616" lon="4.29446">
        <ele>865.8</ele>
        <time>2020-09-30T11:42:31Z</time>
      </trkpt>
      <trkpt lat="45.19632" lon="4.29438">
        <ele>861.48</ele>
        <time>2020-09-30T11:42:46Z</time>
      </trkpt>
      <trkpt lat="45.19653" lon="4.29429">
        <ele>858.11</ele>
        <time>2020-09-30T11:43:01Z</time>
      </trkpt>
      <trkpt lat="45.19675" lon="4.2942">
        <ele>852.83</ele>
        <time>2020-09-30T11:43:16Z</time>
      </trkpt>
      <trkpt lat="45.19692" lon="4.29417">
        <ele>855.23</ele>
        <time>2020-09-30T11:43:30Z</time>
      </trkpt>
      <trkpt lat="45.19716" lon="4.29408">
        <ele>858.11</ele>
        <time>2020-09-30T11:43:48Z</time>
      </trkpt>
      <trkpt lat="45.19735" lon="4.29407">
        <ele>860.52</ele>
        <time>2020-09-30T11:44:01Z</time>
      </trkpt>
      <trkpt lat="45.19755" lon="4.29407">
        <ele>860.04</ele>
        <time>2020-09-30T11:44:16Z</time>
      </trkpt>
      <trkpt lat="45.19764" lon="4.29407">
        <ele>857.63</ele>
        <time>2020-09-30T11:44:30Z</time>
      </trkpt>
      <trkpt lat="45.19778" lon="4.29397">
        <ele>860.04</ele>
        <time>2020-09-30T11:44:42Z</time>
      </trkpt>
      <trkpt lat="45.19791" lon="4.29384">
        <ele>864.84</ele>
        <time>2020-09-30T11:44:59Z</time>
      </trkpt>
      <trkpt lat="45.19805" lon="4.29369">
        <ele>868.69</ele>
        <time>2020-09-30T11:45:14Z</time>
      </trkpt>
      <trkpt lat="45.19812" lon="4.29363">
        <ele>869.65</ele>
        <time>2020-09-30T11:45:21Z</time>
      </trkpt>
      <trkpt lat="45.19826" lon="4.29351">
        <ele>867.25</ele>
        <time>2020-09-30T11:45:38Z</time>
      </trkpt>
      <trkpt lat="45.1985" lon="4.2934">
        <ele>848.5</ele>
        <time>2020-09-30T11:45:58Z</time>
      </trkpt>
      <trkpt lat="45.19859" lon="4.29331">
        <ele>847.54</ele>
        <time>2020-09-30T11:46:09Z</time>
      </trkpt>
      <trkpt lat="45.19873" lon="4.29318">
        <ele>845.62</ele>
        <time>2020-09-30T11:46:25Z</time>
      </trkpt>
      <trkpt lat="45.19887" lon="4.29306">
        <ele>847.06</ele>
        <time>2020-09-30T11:46:43Z</time>
      </trkpt>
      <trkpt lat="45.19899" lon="4.29279">
        <ele>846.58</ele>
        <time>2020-09-30T11:47:01Z</time>
      </trkpt>
      <trkpt lat="45.19909" lon="4.29262">
        <ele>843.21</ele>
        <time>2020-09-30T11:47:16Z</time>
      </trkpt>
      <trkpt lat="45.19911" lon="4.2926">
        <ele>843.69</ele>
        <time>2020-09-30T11:47:20Z</time>
      </trkpt>
      <trkpt lat="45.19921" lon="4.29256">
        <ele>846.1</ele>
        <time>2020-09-30T11:47:35Z</time>
      </trkpt>
      <trkpt lat="45.19932" lon="4.29252">
        <ele>850.9</ele>
        <time>2020-09-30T11:47:50Z</time>
      </trkpt>
      <trkpt lat="45.19944" lon="4.29249">
        <ele>854.27</ele>
        <time>2020-09-30T11:48:06Z</time>
      </trkpt>
      <trkpt lat="45.1996" lon="4.29244">
        <ele>854.27</ele>
        <time>2020-09-30T11:48:20Z</time>
      </trkpt>
      <trkpt lat="45.19973" lon="4.29244">
        <ele>854.27</ele>
        <time>2020-09-30T11:48:33Z</time>
      </trkpt>
      <trkpt lat="45.1999" lon="4.29242">
        <ele>851.38</ele>
        <time>2020-09-30T11:48:48Z</time>
      </trkpt>
      <trkpt lat="45.20021" lon="4.29233">
        <ele>853.31</ele>
        <time>2020-09-30T11:49:10Z</time>
      </trkpt>
      <trkpt lat="45.20053" lon="4.29221">
        <ele>854.75</ele>
        <time>2020-09-30T11:49:33Z</time>
      </trkpt>
      <trkpt lat="45.20072" lon="4.29211">
        <ele>858.59</ele>
        <time>2020-09-30T11:49:49Z</time>
      </trkpt>
      <trkpt lat="45.20093" lon="4.29201">
        <ele>861.96</ele>
        <time>2020-09-30T11:50:06Z</time>
      </trkpt>
      <trkpt lat="45.201" lon="4.2919">
        <ele>866.29</ele>
        <time>2020-09-30T11:50:18Z</time>
      </trkpt>
      <trkpt lat="45.20096" lon="4.29166">
        <ele>865.32</ele>
        <time>2020-09-30T11:50:33Z</time>
      </trkpt>
      <trkpt lat="45.20095" lon="4.29151">
        <ele>864.84</ele>
        <time>2020-09-30T11:50:41Z</time>
      </trkpt>
      <trkpt lat="45.20095" lon="4.29146">
        <ele>864.36</ele>
        <time>2020-09-30T11:50:44Z</time>
      </trkpt>
      <trkpt lat="45.20094" lon="4.29129">
        <ele>862.92</ele>
        <time>2020-09-30T11:50:53Z</time>
      </trkpt>
      <trkpt lat="45.20104" lon="4.29097">
        <ele>865.32</ele>
        <time>2020-09-30T11:51:11Z</time>
      </trkpt>
      <trkpt lat="45.20119" lon="4.29072">
        <ele>864.84</ele>
        <time>2020-09-30T11:51:27Z</time>
      </trkpt>
      <trkpt lat="45.20136" lon="4.29047">
        <ele>863.4</ele>
        <time>2020-09-30T11:51:45Z</time>
      </trkpt>
      <trkpt lat="45.20147" lon="4.29032">
        <ele>868.69</ele>
        <time>2020-09-30T11:52:00Z</time>
      </trkpt>
      <trkpt lat="45.2016" lon="4.29016">
        <ele>874.94</ele>
        <time>2020-09-30T11:52:17Z</time>
      </trkpt>
      <trkpt lat="45.20163" lon="4.29015">
        <ele>875.9</ele>
        <time>2020-09-30T11:52:19Z</time>
      </trkpt>
      <trkpt lat="45.20174" lon="4.29006">
        <ele>880.22</ele>
        <time>2020-09-30T11:52:31Z</time>
      </trkpt>
      <trkpt lat="45.2018" lon="4.28997">
        <ele>882.63</ele>
        <time>2020-09-30T11:52:38Z</time>
      </trkpt>
      <trkpt lat="45.20192" lon="4.28963">
        <ele>885.99</ele>
        <time>2020-09-30T11:52:58Z</time>
      </trkpt>
      <trkpt lat="45.20205" lon="4.28935">
        <ele>883.11</ele>
        <time>2020-09-30T11:53:14Z</time>
      </trkpt>
      <trkpt lat="45.20229" lon="4.28897">
        <ele>867.25</ele>
        <time>2020-09-30T11:53:35Z</time>
      </trkpt>
      <trkpt lat="45.20249" lon="4.28858">
        <ele>861.96</ele>
        <time>2020-09-30T11:53:56Z</time>
      </trkpt>
      <trkpt lat="45.20268" lon="4.28839">
        <ele>864.36</ele>
        <time>2020-09-30T11:54:16Z</time>
      </trkpt>
      <trkpt lat="45.20278" lon="4.28834">
        <ele>865.8</ele>
        <time>2020-09-30T11:54:29Z</time>
      </trkpt>
      <trkpt lat="45.20289" lon="4.28821">
        <ele>863.88</ele>
        <time>2020-09-30T11:54:41Z</time>
      </trkpt>
      <trkpt lat="45.2031" lon="4.28803">
        <ele>864.36</ele>
        <time>2020-09-30T11:54:59Z</time>
      </trkpt>
      <trkpt lat="45.20324" lon="4.28782">
        <ele>865.8</ele>
        <time>2020-09-30T11:55:15Z</time>
      </trkpt>
      <trkpt lat="45.20339" lon="4.28759">
        <ele>868.21</ele>
        <time>2020-09-30T11:55:31Z</time>
      </trkpt>
      <trkpt lat="45.2035" lon="4.28742">
        <ele>876.86</ele>
        <time>2020-09-30T11:55:48Z</time>
      </trkpt>
      <trkpt lat="45.20364" lon="4.2873">
        <ele>883.11</ele>
        <time>2020-09-30T11:56:04Z</time>
      </trkpt>
      <trkpt lat="45.20378" lon="4.28708">
        <ele>888.4</ele>
        <time>2020-09-30T11:56:20Z</time>
      </trkpt>
      <trkpt lat="45.20393" lon="4.28689">
        <ele>892.72</ele>
        <time>2020-09-30T11:56:35Z</time>
      </trkpt>
      <trkpt lat="45.20406" lon="4.28672">
        <ele>897.05</ele>
        <time>2020-09-30T11:56:49Z</time>
      </trkpt>
      <trkpt lat="45.2042" lon="4.28656">
        <ele>898.49</ele>
        <time>2020-09-30T11:57:03Z</time>
      </trkpt>
      <trkpt lat="45.20437" lon="4.28644">
        <ele>894.16</ele>
        <time>2020-09-30T11:57:17Z</time>
      </trkpt>
      <trkpt lat="45.2045" lon="4.2862">
        <ele>884.55</ele>
        <time>2020-09-30T11:57:32Z</time>
      </trkpt>
      <trkpt lat="45.20459" lon="4.28587">
        <ele>879.26</ele>
        <time>2020-09-30T11:57:47Z</time>
      </trkpt>
      <trkpt lat="45.20465" lon="4.28563">
        <ele>880.71</ele>
        <time>2020-09-30T11:58:04Z</time>
      </trkpt>
      <trkpt lat="45.2047" lon="4.28547">
        <ele>883.59</ele>
        <time>2020-09-30T11:58:17Z</time>
      </trkpt>
      <trkpt lat="45.2048" lon="4.28534">
        <ele>888.4</ele>
        <time>2020-09-30T11:58:31Z</time>
      </trkpt>
      <trkpt lat="45.2049" lon="4.28523">
        <ele>890.32</ele>
        <time>2020-09-30T11:58:45Z</time>
      </trkpt>
      <trkpt lat="45.20507" lon="4.28503">
        <ele>891.76</ele>
        <time>2020-09-30T11:58:59Z</time>
      </trkpt>
      <trkpt lat="45.20522" lon="4.28476">
        <ele>890.32</ele>
        <time>2020-09-30T11:59:17Z</time>
      </trkpt>
      <trkpt lat="45.20534" lon="4.28459">
        <ele>891.28</ele>
        <time>2020-09-30T11:59:32Z</time>
      </trkpt>
      <trkpt lat="45.2055" lon="4.28438">
        <ele>886.47</ele>
        <time>2020-09-30T11:59:48Z</time>
      </trkpt>
      <trkpt lat="45.20556" lon="4.28422">
        <ele>886.95</ele>
        <time>2020-09-30T12:00:02Z</time>
      </trkpt>
      <trkpt lat="45.20568" lon="4.28399">
        <ele>886.47</ele>
        <time>2020-09-30T12:00:16Z</time>
      </trkpt>
      <trkpt lat="45.20572" lon="4.28371">
        <ele>876.86</ele>
        <time>2020-09-30T12:00:33Z</time>
      </trkpt>
      <trkpt lat="45.20571" lon="4.28358">
        <ele>872.05</ele>
        <time>2020-09-30T12:00:54Z</time>
      </trkpt>
      <trkpt lat="45.20574" lon="4.28355">
        <ele>869.17</ele>
        <time>2020-09-30T12:01:08Z</time>
      </trkpt>
      <trkpt lat="45.20578" lon="4.28351">
        <ele>866.29</ele>
        <time>2020-09-30T12:01:35Z</time>
      </trkpt>
      <trkpt lat="45.20577" lon="4.28339">
        <ele>865.32</ele>
        <time>2020-09-30T12:01:50Z</time>
      </trkpt>
      <trkpt lat="45.20577" lon="4.2833">
        <ele>864.84</ele>
        <time>2020-09-30T12:01:57Z</time>
      </trkpt>
      <trkpt lat="45.20574" lon="4.28321">
        <ele>864.36</ele>
        <time>2020-09-30T12:02:02Z</time>
      </trkpt>
      <trkpt lat="45.20571" lon="4.28315">
        <ele>863.88</ele>
        <time>2020-09-30T12:02:05Z</time>
      </trkpt>
      <trkpt lat="45.20571" lon="4.28305">
        <ele>861.48</ele>
        <time>2020-09-30T12:02:11Z</time>
      </trkpt>
      <trkpt lat="45.20573" lon="4.28303">
        <ele>860.52</ele>
        <time>2020-09-30T12:02:13Z</time>
      </trkpt>
      <trkpt lat="45.20576" lon="4.28301">
        <ele>856.67</ele>
        <time>2020-09-30T12:02:30Z</time>
      </trkpt>
      <trkpt lat="45.20582" lon="4.28294">
        <ele>855.23</ele>
        <time>2020-09-30T12:02:44Z</time>
      </trkpt>
      <trkpt lat="45.20585" lon="4.28289">
        <ele>854.27</ele>
        <time>2020-09-30T12:02:50Z</time>
      </trkpt>
      <trkpt lat="45.20582" lon="4.28282">
        <ele>853.31</ele>
        <time>2020-09-30T12:02:56Z</time>
      </trkpt>
      <trkpt lat="45.20577" lon="4.28277">
        <ele>851.87</ele>
        <time>2020-09-30T12:03:02Z</time>
      </trkpt>
      <trkpt lat="45.20574" lon="4.28273">
        <ele>852.83</ele>
        <time>2020-09-30T12:03:20Z</time>
      </trkpt>
      <trkpt lat="45.20575" lon="4.28272">
        <ele>853.31</ele>
        <time>2020-09-30T12:03:38Z</time>
      </trkpt>
      <trkpt lat="45.20566" lon="4.28254">
        <ele>850.9</ele>
        <time>2020-09-30T12:03:53Z</time>
      </trkpt>
      <trkpt lat="45.20553" lon="4.28218">
        <ele>845.14</ele>
        <time>2020-09-30T12:04:10Z</time>
      </trkpt>
      <trkpt lat="45.20535" lon="4.28186">
        <ele>843.21</ele>
        <time>2020-09-30T12:04:30Z</time>
      </trkpt>
      <trkpt lat="45.20519" lon="4.28162">
        <ele>841.29</ele>
        <time>2020-09-30T12:04:48Z</time>
      </trkpt>
      <trkpt lat="45.20503" lon="4.28127">
        <ele>837.45</ele>
        <time>2020-09-30T12:05:07Z</time>
      </trkpt>
      <trkpt lat="45.20492" lon="4.28085">
        <ele>837.45</ele>
        <time>2020-09-30T12:05:29Z</time>
      </trkpt>
      <trkpt lat="45.20487" lon="4.28044">
        <ele>838.41</ele>
        <time>2020-09-30T12:05:51Z</time>
      </trkpt>
      <trkpt lat="45.20483" lon="4.28024">
        <ele>839.37</ele>
        <time>2020-09-30T12:06:09Z</time>
      </trkpt>
      <trkpt lat="45.2048" lon="4.28015">
        <ele>839.37</ele>
        <time>2020-09-30T12:06:25Z</time>
      </trkpt>
      <trkpt lat="45.20481" lon="4.27984">
        <ele>836</ele>
        <time>2020-09-30T12:06:42Z</time>
      </trkpt>
      <trkpt lat="45.20484" lon="4.27951">
        <ele>834.56</ele>
        <time>2020-09-30T12:06:59Z</time>
      </trkpt>
      <trkpt lat="45.20487" lon="4.27925">
        <ele>833.6</ele>
        <time>2020-09-30T12:07:17Z</time>
      </trkpt>
      <trkpt lat="45.20485" lon="4.2792">
        <ele>836</ele>
        <time>2020-09-30T12:07:30Z</time>
      </trkpt>
      <trkpt lat="45.2048" lon="4.27905">
        <ele>837.93</ele>
        <time>2020-09-30T12:07:43Z</time>
      </trkpt>
      <trkpt lat="45.20469" lon="4.27872">
        <ele>834.56</ele>
        <time>2020-09-30T12:07:58Z</time>
      </trkpt>
      <trkpt lat="45.20456" lon="4.27847">
        <ele>831.2</ele>
        <time>2020-09-30T12:08:12Z</time>
      </trkpt>
      <trkpt lat="45.20437" lon="4.27825">
        <ele>825.91</ele>
        <time>2020-09-30T12:08:29Z</time>
      </trkpt>
      <trkpt lat="45.20414" lon="4.27807">
        <ele>821.58</ele>
        <time>2020-09-30T12:08:47Z</time>
      </trkpt>
      <trkpt lat="45.20411" lon="4.27805">
        <ele>821.1</ele>
        <time>2020-09-30T12:08:49Z</time>
      </trkpt>
      <trkpt lat="45.20392" lon="4.27792">
        <ele>818.7</ele>
        <time>2020-09-30T12:09:06Z</time>
      </trkpt>
      <trkpt lat="45.20379" lon="4.27774">
        <ele>819.18</ele>
        <time>2020-09-30T12:09:22Z</time>
      </trkpt>
      <trkpt lat="45.20378" lon="4.27767">
        <ele>819.18</ele>
        <time>2020-09-30T12:09:28Z</time>
      </trkpt>
      <trkpt lat="45.20381" lon="4.27734">
        <ele>822.06</ele>
        <time>2020-09-30T12:09:45Z</time>
      </trkpt>
      <trkpt lat="45.20386" lon="4.27705">
        <ele>823.99</ele>
        <time>2020-09-30T12:10:04Z</time>
      </trkpt>
      <trkpt lat="45.20387" lon="4.27701">
        <ele>824.95</ele>
        <time>2020-09-30T12:10:10Z</time>
      </trkpt>
      <trkpt lat="45.20387" lon="4.27672">
        <ele>827.83</ele>
        <time>2020-09-30T12:10:27Z</time>
      </trkpt>
      <trkpt lat="45.20387" lon="4.27649">
        <ele>827.83</ele>
        <time>2020-09-30T12:10:43Z</time>
      </trkpt>
      <trkpt lat="45.20383" lon="4.2763">
        <ele>827.35</ele>
        <time>2020-09-30T12:10:56Z</time>
      </trkpt>
      <trkpt lat="45.20384" lon="4.27609">
        <ele>827.83</ele>
        <time>2020-09-30T12:11:11Z</time>
      </trkpt>
      <trkpt lat="45.2039" lon="4.27581">
        <ele>827.35</ele>
        <time>2020-09-30T12:11:27Z</time>
      </trkpt>
      <trkpt lat="45.20397" lon="4.27562">
        <ele>826.87</ele>
        <time>2020-09-30T12:11:40Z</time>
      </trkpt>
      <trkpt lat="45.20406" lon="4.27535">
        <ele>826.87</ele>
        <time>2020-09-30T12:11:55Z</time>
      </trkpt>
      <trkpt lat="45.20412" lon="4.27513">
        <ele>822.55</ele>
        <time>2020-09-30T12:12:04Z</time>
      </trkpt>
      <trkpt lat="45.20423" lon="4.27474">
        <ele>817.26</ele>
        <time>2020-09-30T12:12:21Z</time>
      </trkpt>
      <trkpt lat="45.20433" lon="4.27445">
        <ele>812.93</ele>
        <time>2020-09-30T12:12:37Z</time>
      </trkpt>
      <trkpt lat="45.20442" lon="4.27427">
        <ele>810.05</ele>
        <time>2020-09-30T12:12:52Z</time>
      </trkpt>
      <trkpt lat="45.20447" lon="4.27422">
        <ele>809.57</ele>
        <time>2020-09-30T12:13:09Z</time>
      </trkpt>
      <trkpt lat="45.20456" lon="4.27411">
        <ele>808.13</ele>
        <time>2020-09-30T12:13:22Z</time>
      </trkpt>
      <trkpt lat="45.20464" lon="4.27404">
        <ele>807.64</ele>
        <time>2020-09-30T12:13:38Z</time>
      </trkpt>
      <trkpt lat="45.20477" lon="4.27397">
        <ele>806.68</ele>
        <time>2020-09-30T12:13:52Z</time>
      </trkpt>
      <trkpt lat="45.20492" lon="4.27388">
        <ele>805.72</ele>
        <time>2020-09-30T12:14:06Z</time>
      </trkpt>
      <trkpt lat="45.20504" lon="4.27382">
        <ele>805.24</ele>
        <time>2020-09-30T12:14:19Z</time>
      </trkpt>
      <trkpt lat="45.20514" lon="4.27379">
        <ele>804.76</ele>
        <time>2020-09-30T12:14:34Z</time>
      </trkpt>
      <trkpt lat="45.20527" lon="4.27375">
        <ele>805.72</ele>
        <time>2020-09-30T12:14:51Z</time>
      </trkpt>
      <trkpt lat="45.20539" lon="4.27371">
        <ele>803.32</ele>
        <time>2020-09-30T12:15:06Z</time>
      </trkpt>
      <trkpt lat="45.20547" lon="4.27366">
        <ele>801.88</ele>
        <time>2020-09-30T12:15:21Z</time>
      </trkpt>
      <trkpt lat="45.20556" lon="4.27362">
        <ele>801.88</ele>
        <time>2020-09-30T12:15:37Z</time>
      </trkpt>
      <trkpt lat="45.20567" lon="4.27357">
        <ele>804.28</ele>
        <time>2020-09-30T12:15:51Z</time>
      </trkpt>
      <trkpt lat="45.20583" lon="4.27349">
        <ele>805.72</ele>
        <time>2020-09-30T12:16:06Z</time>
      </trkpt>
      <trkpt lat="45.20611" lon="4.27335">
        <ele>813.41</ele>
        <time>2020-09-30T12:16:20Z</time>
      </trkpt>
      <trkpt lat="45.20624" lon="4.27324">
        <ele>814.37</ele>
        <time>2020-09-30T12:16:32Z</time>
      </trkpt>
      <trkpt lat="45.2064" lon="4.27307">
        <ele>815.34</ele>
        <time>2020-09-30T12:16:45Z</time>
      </trkpt>
      <trkpt lat="45.20654" lon="4.27294">
        <ele>814.85</ele>
        <time>2020-09-30T12:17:01Z</time>
      </trkpt>
      <trkpt lat="45.20674" lon="4.27286">
        <ele>813.89</ele>
        <time>2020-09-30T12:17:17Z</time>
      </trkpt>
      <trkpt lat="45.20689" lon="4.27277">
        <ele>813.41</ele>
        <time>2020-09-30T12:17:31Z</time>
      </trkpt>
      <trkpt lat="45.20698" lon="4.27287">
        <ele>813.41</ele>
        <time>2020-09-30T12:17:46Z</time>
      </trkpt>
      <trkpt lat="45.207" lon="4.27299">
        <ele>813.41</ele>
        <time>2020-09-30T12:18:00Z</time>
      </trkpt>
      <trkpt lat="45.207" lon="4.27301">
        <ele>813.89</ele>
        <time>2020-09-30T12:18:01Z</time>
      </trkpt>
      <trkpt lat="45.20702" lon="4.27315">
        <ele>812.93</ele>
        <time>2020-09-30T12:18:12Z</time>
      </trkpt>
      <trkpt lat="45.20711" lon="4.27321">
        <ele>812.45</ele>
        <time>2020-09-30T12:18:23Z</time>
      </trkpt>
      <trkpt lat="45.20723" lon="4.27341">
        <ele>800.44</ele>
        <time>2020-09-30T12:18:40Z</time>
      </trkpt>
      <trkpt lat="45.20736" lon="4.27341">
        <ele>800.44</ele>
        <time>2020-09-30T12:18:57Z</time>
      </trkpt>
      <trkpt lat="45.20751" lon="4.27336">
        <ele>798.51</ele>
        <time>2020-09-30T12:19:12Z</time>
      </trkpt>
      <trkpt lat="45.20767" lon="4.27325">
        <ele>796.59</ele>
        <time>2020-09-30T12:19:28Z</time>
      </trkpt>
      <trkpt lat="45.20778" lon="4.2731">
        <ele>792.74</ele>
        <time>2020-09-30T12:19:44Z</time>
      </trkpt>
      <trkpt lat="45.20788" lon="4.27297">
        <ele>786.98</ele>
        <time>2020-09-30T12:20:03Z</time>
      </trkpt>
      <trkpt lat="45.20791" lon="4.27292">
        <ele>782.17</ele>
        <time>2020-09-30T12:20:18Z</time>
      </trkpt>
      <trkpt lat="45.20796" lon="4.27282">
        <ele>777.84</ele>
        <time>2020-09-30T12:20:37Z</time>
      </trkpt>
      <trkpt lat="45.20798" lon="4.27275">
        <ele>776.88</ele>
        <time>2020-09-30T12:20:56Z</time>
      </trkpt>
      <trkpt lat="45.20801" lon="4.27268">
        <ele>771.6</ele>
        <time>2020-09-30T12:21:11Z</time>
      </trkpt>
      <trkpt lat="45.20803" lon="4.27265">
        <ele>766.79</ele>
        <time>2020-09-30T12:21:31Z</time>
      </trkpt>
      <trkpt lat="45.20805" lon="4.27263">
        <ele>767.75</ele>
        <time>2020-09-30T12:21:47Z</time>
      </trkpt>
      <trkpt lat="45.20811" lon="4.27258">
        <ele>769.19</ele>
        <time>2020-09-30T12:21:53Z</time>
      </trkpt>
      <trkpt lat="45.20828" lon="4.27237">
        <ele>772.08</ele>
        <time>2020-09-30T12:22:10Z</time>
      </trkpt>
      <trkpt lat="45.20842" lon="4.27208">
        <ele>770.63</ele>
        <time>2020-09-30T12:22:28Z</time>
      </trkpt>
      <trkpt lat="45.20859" lon="4.2718">
        <ele>764.39</ele>
        <time>2020-09-30T12:22:43Z</time>
      </trkpt>
      <trkpt lat="45.20875" lon="4.2715">
        <ele>759.58</ele>
        <time>2020-09-30T12:22:58Z</time>
      </trkpt>
      <trkpt lat="45.20876" lon="4.27148">
        <ele>759.58</ele>
        <time>2020-09-30T12:22:59Z</time>
      </trkpt>
      <trkpt lat="45.2088" lon="4.2714">
        <ele>760.06</ele>
        <time>2020-09-30T12:23:04Z</time>
      </trkpt>
      <trkpt lat="45.20886" lon="4.27115">
        <ele>757.18</ele>
        <time>2020-09-30T12:23:18Z</time>
      </trkpt>
      <trkpt lat="45.20886" lon="4.27098">
        <ele>754.77</ele>
        <time>2020-09-30T12:23:26Z</time>
      </trkpt>
      <trkpt lat="45.20886" lon="4.2706">
        <ele>747.56</ele>
        <time>2020-09-30T12:23:41Z</time>
      </trkpt>
      <trkpt lat="45.20885" lon="4.27054">
        <ele>745.16</ele>
        <time>2020-09-30T12:23:44Z</time>
      </trkpt>
      <trkpt lat="45.20879" lon="4.27027">
        <ele>735.55</ele>
        <time>2020-09-30T12:23:59Z</time>
      </trkpt>
      <trkpt lat="45.20867" lon="4.2701">
        <ele>735.07</ele>
        <time>2020-09-30T12:24:13Z</time>
      </trkpt>
      <trkpt lat="45.2086" lon="4.26998">
        <ele>732.66</ele>
        <time>2020-09-30T12:24:27Z</time>
      </trkpt>
      <trkpt lat="45.20857" lon="4.26979">
        <ele>731.7</ele>
        <time>2020-09-30T12:24:42Z</time>
      </trkpt>
      <trkpt lat="45.20854" lon="4.26975">
        <ele>730.74</ele>
        <time>2020-09-30T12:24:44Z</time>
      </trkpt>
      <trkpt lat="45.20852" lon="4.26963">
        <ele>729.3</ele>
        <time>2020-09-30T12:24:48Z</time>
      </trkpt>
      <trkpt lat="45.20856" lon="4.26945">
        <ele>730.74</ele>
        <time>2020-09-30T12:25:04Z</time>
      </trkpt>
      <trkpt lat="45.20862" lon="4.26945">
        <ele>733.62</ele>
        <time>2020-09-30T12:25:13Z</time>
      </trkpt>
      <trkpt lat="45.20874" lon="4.26955">
        <ele>738.43</ele>
        <time>2020-09-30T12:25:27Z</time>
      </trkpt>
      <trkpt lat="45.20884" lon="4.26955">
        <ele>739.39</ele>
        <time>2020-09-30T12:25:36Z</time>
      </trkpt>
      <trkpt lat="45.20888" lon="4.2695">
        <ele>739.87</ele>
        <time>2020-09-30T12:25:41Z</time>
      </trkpt>
      <trkpt lat="45.20902" lon="4.26934">
        <ele>736.51</ele>
        <time>2020-09-30T12:25:58Z</time>
      </trkpt>
      <trkpt lat="45.20909" lon="4.26911">
        <ele>733.14</ele>
        <time>2020-09-30T12:26:12Z</time>
      </trkpt>
      <trkpt lat="45.20915" lon="4.26885">
        <ele>726.89</ele>
        <time>2020-09-30T12:26:27Z</time>
      </trkpt>
      <trkpt lat="45.20933" lon="4.26863">
        <ele>721.61</ele>
        <time>2020-09-30T12:26:44Z</time>
      </trkpt>
      <trkpt lat="45.20944" lon="4.26846">
        <ele>720.16</ele>
        <time>2020-09-30T12:26:59Z</time>
      </trkpt>
      <trkpt lat="45.20953" lon="4.26838">
        <ele>718.72</ele>
        <time>2020-09-30T12:27:14Z</time>
      </trkpt>
      <trkpt lat="45.20974" lon="4.26832">
        <ele>720.65</ele>
        <time>2020-09-30T12:27:30Z</time>
      </trkpt>
      <trkpt lat="45.20985" lon="4.26831">
        <ele>722.57</ele>
        <time>2020-09-30T12:27:43Z</time>
      </trkpt>
      <trkpt lat="45.2099" lon="4.26831">
        <ele>719.2</ele>
        <time>2020-09-30T12:27:54Z</time>
      </trkpt>
      <trkpt lat="45.20994" lon="4.26827">
        <ele>719.2</ele>
        <time>2020-09-30T12:28:09Z</time>
      </trkpt>
      <trkpt lat="45.21001" lon="4.26823">
        <ele>719.2</ele>
        <time>2020-09-30T12:28:23Z</time>
      </trkpt>
      <trkpt lat="45.21014" lon="4.26818">
        <ele>727.37</ele>
        <time>2020-09-30T12:28:38Z</time>
      </trkpt>
      <trkpt lat="45.21029" lon="4.26819">
        <ele>737.47</ele>
        <time>2020-09-30T12:28:52Z</time>
      </trkpt>
      <trkpt lat="45.21045" lon="4.26818">
        <ele>747.08</ele>
        <time>2020-09-30T12:29:04Z</time>
      </trkpt>
      <trkpt lat="45.21052" lon="4.26819">
        <ele>750.93</ele>
        <time>2020-09-30T12:29:09Z</time>
      </trkpt>
      <trkpt lat="45.21074" lon="4.26812">
        <ele>756.69</ele>
        <time>2020-09-30T12:29:23Z</time>
      </trkpt>
      <trkpt lat="45.21086" lon="4.26804">
        <ele>754.77</ele>
        <time>2020-09-30T12:29:28Z</time>
      </trkpt>
      <trkpt lat="45.2112" lon="4.26764">
        <ele>726.89</ele>
        <time>2020-09-30T12:29:44Z</time>
      </trkpt>
      <trkpt lat="45.2114" lon="4.26754">
        <ele>717.28</ele>
        <time>2020-09-30T12:29:59Z</time>
      </trkpt>
      <trkpt lat="45.21157" lon="4.26746">
        <ele>713.92</ele>
        <time>2020-09-30T12:30:12Z</time>
      </trkpt>
      <trkpt lat="45.21166" lon="4.2674">
        <ele>709.59</ele>
        <time>2020-09-30T12:30:27Z</time>
      </trkpt>
      <trkpt lat="45.21181" lon="4.26728">
        <ele>705.26</ele>
        <time>2020-09-30T12:30:41Z</time>
      </trkpt>
      <trkpt lat="45.21189" lon="4.26718">
        <ele>704.3</ele>
        <time>2020-09-30T12:30:52Z</time>
      </trkpt>
      <trkpt lat="45.212" lon="4.26705">
        <ele>700.46</ele>
        <time>2020-09-30T12:31:03Z</time>
      </trkpt>
      <trkpt lat="45.21216" lon="4.26686">
        <ele>696.61</ele>
        <time>2020-09-30T12:31:18Z</time>
      </trkpt>
      <trkpt lat="45.2123" lon="4.26677">
        <ele>694.21</ele>
        <time>2020-09-30T12:31:32Z</time>
      </trkpt>
      <trkpt lat="45.21235" lon="4.26671">
        <ele>694.69</ele>
        <time>2020-09-30T12:31:46Z</time>
      </trkpt>
      <trkpt lat="45.21248" lon="4.26663">
        <ele>693.73</ele>
        <time>2020-09-30T12:32:01Z</time>
      </trkpt>
      <trkpt lat="45.21256" lon="4.26659">
        <ele>694.21</ele>
        <time>2020-09-30T12:32:14Z</time>
      </trkpt>
      <trkpt lat="45.2126" lon="4.26658">
        <ele>693.73</ele>
        <time>2020-09-30T12:32:30Z</time>
      </trkpt>
      <trkpt lat="45.21267" lon="4.26656">
        <ele>696.13</ele>
        <time>2020-09-30T12:32:45Z</time>
      </trkpt>
      <trkpt lat="45.21283" lon="4.26637">
        <ele>697.09</ele>
        <time>2020-09-30T12:33:00Z</time>
      </trkpt>
      <trkpt lat="45.21296" lon="4.2662">
        <ele>698.05</ele>
        <time>2020-09-30T12:33:16Z</time>
      </trkpt>
      <trkpt lat="45.21303" lon="4.26606">
        <ele>699.02</ele>
        <time>2020-09-30T12:33:27Z</time>
      </trkpt>
      <trkpt lat="45.21306" lon="4.266">
        <ele>699.98</ele>
        <time>2020-09-30T12:33:30Z</time>
      </trkpt>
      <trkpt lat="45.21319" lon="4.26585">
        <ele>701.42</ele>
        <time>2020-09-30T12:33:44Z</time>
      </trkpt>
      <trkpt lat="45.21325" lon="4.26574">
        <ele>703.82</ele>
        <time>2020-09-30T12:33:57Z</time>
      </trkpt>
      <trkpt lat="45.21337" lon="4.26557">
        <ele>706.71</ele>
        <time>2020-09-30T12:34:12Z</time>
      </trkpt>
      <trkpt lat="45.21353" lon="4.2654">
        <ele>707.67</ele>
        <time>2020-09-30T12:34:25Z</time>
      </trkpt>
      <trkpt lat="45.21367" lon="4.26531">
        <ele>711.51</ele>
        <time>2020-09-30T12:34:39Z</time>
      </trkpt>
      <trkpt lat="45.2138" lon="4.2652">
        <ele>714.88</ele>
        <time>2020-09-30T12:34:54Z</time>
      </trkpt>
      <trkpt lat="45.21382" lon="4.26518">
        <ele>714.4</ele>
        <time>2020-09-30T12:34:56Z</time>
      </trkpt>
      <trkpt lat="45.21397" lon="4.26503">
        <ele>716.8</ele>
        <time>2020-09-30T12:35:11Z</time>
      </trkpt>
      <trkpt lat="45.21407" lon="4.26494">
        <ele>718.72</ele>
        <time>2020-09-30T12:35:23Z</time>
      </trkpt>
      <trkpt lat="45.21422" lon="4.2648">
        <ele>721.13</ele>
        <time>2020-09-30T12:35:36Z</time>
      </trkpt>
      <trkpt lat="45.21442" lon="4.26465">
        <ele>719.2</ele>
        <time>2020-09-30T12:35:52Z</time>
      </trkpt>
      <trkpt lat="45.21455" lon="4.26461">
        <ele>719.2</ele>
        <time>2020-09-30T12:36:05Z</time>
      </trkpt>
      <trkpt lat="45.21468" lon="4.26462">
        <ele>719.68</ele>
        <time>2020-09-30T12:36:19Z</time>
      </trkpt>
      <trkpt lat="45.21481" lon="4.2646">
        <ele>723.05</ele>
        <time>2020-09-30T12:36:31Z</time>
      </trkpt>
      <trkpt lat="45.21488" lon="4.26461">
        <ele>726.41</ele>
        <time>2020-09-30T12:36:43Z</time>
      </trkpt>
      <trkpt lat="45.21495" lon="4.26459">
        <ele>731.22</ele>
        <time>2020-09-30T12:36:57Z</time>
      </trkpt>
      <trkpt lat="45.21506" lon="4.26462">
        <ele>735.55</ele>
        <time>2020-09-30T12:37:09Z</time>
      </trkpt>
      <trkpt lat="45.21517" lon="4.26458">
        <ele>741.79</ele>
        <time>2020-09-30T12:37:22Z</time>
      </trkpt>
      <trkpt lat="45.2153" lon="4.26459">
        <ele>742.76</ele>
        <time>2020-09-30T12:37:36Z</time>
      </trkpt>
      <trkpt lat="45.21542" lon="4.2646">
        <ele>738.43</ele>
        <time>2020-09-30T12:37:50Z</time>
      </trkpt>
      <trkpt lat="45.21544" lon="4.2646">
        <ele>737.95</ele>
        <time>2020-09-30T12:37:52Z</time>
      </trkpt>
      <trkpt lat="45.21552" lon="4.26457">
        <ele>736.51</ele>
        <time>2020-09-30T12:38:00Z</time>
      </trkpt>
      <trkpt lat="45.21563" lon="4.2646">
        <ele>736.03</ele>
        <time>2020-09-30T12:38:12Z</time>
      </trkpt>
      <trkpt lat="45.21582" lon="4.26464">
        <ele>739.39</ele>
        <time>2020-09-30T12:38:32Z</time>
      </trkpt>
      <trkpt lat="45.21594" lon="4.26453">
        <ele>743.24</ele>
        <time>2020-09-30T12:38:49Z</time>
      </trkpt>
      <trkpt lat="45.21596" lon="4.26429">
        <ele>745.64</ele>
        <time>2020-09-30T12:39:08Z</time>
      </trkpt>
      <trkpt lat="45.21588" lon="4.26413">
        <ele>744.68</ele>
        <time>2020-09-30T12:39:23Z</time>
      </trkpt>
      <trkpt lat="45.21578" lon="4.26398">
        <ele>741.31</ele>
        <time>2020-09-30T12:39:37Z</time>
      </trkpt>
      <trkpt lat="45.21569" lon="4.26386">
        <ele>743.24</ele>
        <time>2020-09-30T12:39:50Z</time>
      </trkpt>
      <trkpt lat="45.21564" lon="4.26374">
        <ele>743.24</ele>
        <time>2020-09-30T12:40:01Z</time>
      </trkpt>
      <trkpt lat="45.2156" lon="4.26355">
        <ele>744.2</ele>
        <time>2020-09-30T12:40:16Z</time>
      </trkpt>
      <trkpt lat="45.21565" lon="4.26347">
        <ele>747.08</ele>
        <time>2020-09-30T12:40:28Z</time>
      </trkpt>
      <trkpt lat="45.21572" lon="4.26343">
        <ele>747.56</ele>
        <time>2020-09-30T12:40:41Z</time>
      </trkpt>
      <trkpt lat="45.2158" lon="4.26341">
        <ele>749</ele>
        <time>2020-09-30T12:40:53Z</time>
      </trkpt>
      <trkpt lat="45.21593" lon="4.26338">
        <ele>749.49</ele>
        <time>2020-09-30T12:41:07Z</time>
      </trkpt>
      <trkpt lat="45.21604" lon="4.26336">
        <ele>751.89</ele>
        <time>2020-09-30T12:41:21Z</time>
      </trkpt>
      <trkpt lat="45.21616" lon="4.26338">
        <ele>757.66</ele>
        <time>2020-09-30T12:41:35Z</time>
      </trkpt>
      <trkpt lat="45.21628" lon="4.26337">
        <ele>763.9</ele>
        <time>2020-09-30T12:41:50Z</time>
      </trkpt>
      <trkpt lat="45.21643" lon="4.26335">
        <ele>766.79</ele>
        <time>2020-09-30T12:42:02Z</time>
      </trkpt>
      <trkpt lat="45.21655" lon="4.26332">
        <ele>771.6</ele>
        <time>2020-09-30T12:42:18Z</time>
      </trkpt>
      <trkpt lat="45.21672" lon="4.26322">
        <ele>776.4</ele>
        <time>2020-09-30T12:42:38Z</time>
      </trkpt>
      <trkpt lat="45.21676" lon="4.26322">
        <ele>776.88</ele>
        <time>2020-09-30T12:42:54Z</time>
      </trkpt>
      <trkpt lat="45.21677" lon="4.26322">
        <ele>776.88</ele>
        <time>2020-09-30T12:43:15Z</time>
      </trkpt>
      <trkpt lat="45.21679" lon="4.2632">
        <ele>775.44</ele>
        <time>2020-09-30T12:43:44Z</time>
      </trkpt>
      <trkpt lat="45.21679" lon="4.26319">
        <ele>771.11</ele>
        <time>2020-09-30T12:44:26Z</time>
      </trkpt>
      <trkpt lat="45.21682" lon="4.26323">
        <ele>771.11</ele>
        <time>2020-09-30T12:44:37Z</time>
      </trkpt>
      <trkpt lat="45.21691" lon="4.2633">
        <ele>771.6</ele>
        <time>2020-09-30T12:44:50Z</time>
      </trkpt>
      <trkpt lat="45.21693" lon="4.26334">
        <ele>772.08</ele>
        <time>2020-09-30T12:44:53Z</time>
      </trkpt>
      <trkpt lat="45.21704" lon="4.26351">
        <ele>775.44</ele>
        <time>2020-09-30T12:45:09Z</time>
      </trkpt>
      <trkpt lat="45.21715" lon="4.26352">
        <ele>774.96</ele>
        <time>2020-09-30T12:45:25Z</time>
      </trkpt>
      <trkpt lat="45.2173" lon="4.26358">
        <ele>774.96</ele>
        <time>2020-09-30T12:45:40Z</time>
      </trkpt>
      <trkpt lat="45.21743" lon="4.26359">
        <ele>773.52</ele>
        <time>2020-09-30T12:45:54Z</time>
      </trkpt>
      <trkpt lat="45.21761" lon="4.26344">
        <ele>772.56</ele>
        <time>2020-09-30T12:46:11Z</time>
      </trkpt>
      <trkpt lat="45.21778" lon="4.26329">
        <ele>770.63</ele>
        <time>2020-09-30T12:46:26Z</time>
      </trkpt>
      <trkpt lat="45.21794" lon="4.26319">
        <ele>767.27</ele>
        <time>2020-09-30T12:46:42Z</time>
      </trkpt>
      <trkpt lat="45.21812" lon="4.26312">
        <ele>768.23</ele>
        <time>2020-09-30T12:46:58Z</time>
      </trkpt>
      <trkpt lat="45.21831" lon="4.26321">
        <ele>766.79</ele>
        <time>2020-09-30T12:47:14Z</time>
      </trkpt>
      <trkpt lat="45.21845" lon="4.26339">
        <ele>762.46</ele>
        <time>2020-09-30T12:47:29Z</time>
      </trkpt>
      <trkpt lat="45.21851" lon="4.26347">
        <ele>761.02</ele>
        <time>2020-09-30T12:47:37Z</time>
      </trkpt>
      <trkpt lat="45.21859" lon="4.2636">
        <ele>761.02</ele>
        <time>2020-09-30T12:47:49Z</time>
      </trkpt>
      <trkpt lat="45.21866" lon="4.26374">
        <ele>760.54</ele>
        <time>2020-09-30T12:47:59Z</time>
      </trkpt>
      <trkpt lat="45.21873" lon="4.26391">
        <ele>757.18</ele>
        <time>2020-09-30T12:48:14Z</time>
      </trkpt>
      <trkpt lat="45.21873" lon="4.26399">
        <ele>756.21</ele>
        <time>2020-09-30T12:48:30Z</time>
      </trkpt>
      <trkpt lat="45.21872" lon="4.26401">
        <ele>755.25</ele>
        <time>2020-09-30T12:48:44Z</time>
      </trkpt>
      <trkpt lat="45.2187" lon="4.26401">
        <ele>755.73</ele>
        <time>2020-09-30T12:48:59Z</time>
      </trkpt>
      <trkpt lat="45.21871" lon="4.26393">
        <ele>757.18</ele>
        <time>2020-09-30T12:49:13Z</time>
      </trkpt>
      <trkpt lat="45.21872" lon="4.26374">
        <ele>757.66</ele>
        <time>2020-09-30T12:49:28Z</time>
      </trkpt>
      <trkpt lat="45.21872" lon="4.26357">
        <ele>756.21</ele>
        <time>2020-09-30T12:49:44Z</time>
      </trkpt>
      <trkpt lat="45.21873" lon="4.26348">
        <ele>752.85</ele>
        <time>2020-09-30T12:50:03Z</time>
      </trkpt>
      <trkpt lat="45.21873" lon="4.26347">
        <ele>751.89</ele>
        <time>2020-09-30T12:50:19Z</time>
      </trkpt>
      <trkpt lat="45.21874" lon="4.26353">
        <ele>750.45</ele>
        <time>2020-09-30T12:50:33Z</time>
      </trkpt>
      <trkpt lat="45.21876" lon="4.26361">
        <ele>749.49</ele>
        <time>2020-09-30T12:50:48Z</time>
      </trkpt>
      <trkpt lat="45.21876" lon="4.26371">
        <ele>749.97</ele>
        <time>2020-09-30T12:51:02Z</time>
      </trkpt>
      <trkpt lat="45.21875" lon="4.26375">
        <ele>751.41</ele>
        <time>2020-09-30T12:51:17Z</time>
      </trkpt>
      <trkpt lat="45.21879" lon="4.26387">
        <ele>754.77</ele>
        <time>2020-09-30T12:51:32Z</time>
      </trkpt>
      <trkpt lat="45.21883" lon="4.26412">
        <ele>758.14</ele>
        <time>2020-09-30T12:51:48Z</time>
      </trkpt>
      <trkpt lat="45.21885" lon="4.26434">
        <ele>761.02</ele>
        <time>2020-09-30T12:52:01Z</time>
      </trkpt>
      <trkpt lat="45.21885" lon="4.26474">
        <ele>761.02</ele>
        <time>2020-09-30T12:52:13Z</time>
      </trkpt>
      <trkpt lat="45.21883" lon="4.26491">
        <ele>760.06</ele>
        <time>2020-09-30T12:52:21Z</time>
      </trkpt>
      <trkpt lat="45.21876" lon="4.26511">
        <ele>757.18</ele>
        <time>2020-09-30T12:52:37Z</time>
      </trkpt>
      <trkpt lat="45.21867" lon="4.2652">
        <ele>757.66</ele>
        <time>2020-09-30T12:52:54Z</time>
      </trkpt>
      <trkpt lat="45.2187" lon="4.26522">
        <ele>758.14</ele>
        <time>2020-09-30T12:53:08Z</time>
      </trkpt>
      <trkpt lat="45.21874" lon="4.26522">
        <ele>758.62</ele>
        <time>2020-09-30T12:53:18Z</time>
      </trkpt>
      <trkpt lat="45.21886" lon="4.26522">
        <ele>759.1</ele>
        <time>2020-09-30T12:53:31Z</time>
      </trkpt>
      <trkpt lat="45.21893" lon="4.26525">
        <ele>759.58</ele>
        <time>2020-09-30T12:53:43Z</time>
      </trkpt>
      <trkpt lat="45.21898" lon="4.26534">
        <ele>756.69</ele>
        <time>2020-09-30T12:53:54Z</time>
      </trkpt>
      <trkpt lat="45.21906" lon="4.26547">
        <ele>756.21</ele>
        <time>2020-09-30T12:54:07Z</time>
      </trkpt>
      <trkpt lat="45.21911" lon="4.26564">
        <ele>754.29</ele>
        <time>2020-09-30T12:54:18Z</time>
      </trkpt>
      <trkpt lat="45.21913" lon="4.26569">
        <ele>752.85</ele>
        <time>2020-09-30T12:54:21Z</time>
      </trkpt>
      <trkpt lat="45.2192" lon="4.26588">
        <ele>750.45</ele>
        <time>2020-09-30T12:54:34Z</time>
      </trkpt>
      <trkpt lat="45.21928" lon="4.26604">
        <ele>751.41</ele>
        <time>2020-09-30T12:54:48Z</time>
      </trkpt>
      <trkpt lat="45.21929" lon="4.26604">
        <ele>751.41</ele>
        <time>2020-09-30T12:54:50Z</time>
      </trkpt>
      <trkpt lat="45.21935" lon="4.26606">
        <ele>753.81</ele>
        <time>2020-09-30T12:55:04Z</time>
      </trkpt>
      <trkpt lat="45.21946" lon="4.26603">
        <ele>761.5</ele>
        <time>2020-09-30T12:55:18Z</time>
      </trkpt>
      <trkpt lat="45.21956" lon="4.26605">
        <ele>766.31</ele>
        <time>2020-09-30T12:55:33Z</time>
      </trkpt>
      <trkpt lat="45.21969" lon="4.26602">
        <ele>773.04</ele>
        <time>2020-09-30T12:55:50Z</time>
      </trkpt>
      <trkpt lat="45.21979" lon="4.26596">
        <ele>776.88</ele>
        <time>2020-09-30T12:56:02Z</time>
      </trkpt>
      <trkpt lat="45.21987" lon="4.26592">
        <ele>779.77</ele>
        <time>2020-09-30T12:56:12Z</time>
      </trkpt>
      <trkpt lat="45.2199" lon="4.26591">
        <ele>784.09</ele>
        <time>2020-09-30T12:56:26Z</time>
      </trkpt>
      <trkpt lat="45.21994" lon="4.26587">
        <ele>790.82</ele>
        <time>2020-09-30T12:56:41Z</time>
      </trkpt>
      <trkpt lat="45.21997" lon="4.26581">
        <ele>791.3</ele>
        <time>2020-09-30T12:56:55Z</time>
      </trkpt>
      <trkpt lat="45.22009" lon="4.26568">
        <ele>791.78</ele>
        <time>2020-09-30T12:57:09Z</time>
      </trkpt>
      <trkpt lat="45.22022" lon="4.26554">
        <ele>793.71</ele>
        <time>2020-09-30T12:57:24Z</time>
      </trkpt>
      <trkpt lat="45.22038" lon="4.26539">
        <ele>782.65</ele>
        <time>2020-09-30T12:57:36Z</time>
      </trkpt>
      <trkpt lat="45.22052" lon="4.26541">
        <ele>780.25</ele>
        <time>2020-09-30T12:57:49Z</time>
      </trkpt>
      <trkpt lat="45.22061" lon="4.26544">
        <ele>779.77</ele>
        <time>2020-09-30T12:58:01Z</time>
      </trkpt>
      <trkpt lat="45.22075" lon="4.26548">
        <ele>780.25</ele>
        <time>2020-09-30T12:58:17Z</time>
      </trkpt>
      <trkpt lat="45.22088" lon="4.26553">
        <ele>783.13</ele>
        <time>2020-09-30T12:58:31Z</time>
      </trkpt>
      <trkpt lat="45.22096" lon="4.26556">
        <ele>786.5</ele>
        <time>2020-09-30T12:58:47Z</time>
      </trkpt>
      <trkpt lat="45.22107" lon="4.26559">
        <ele>791.3</ele>
        <time>2020-09-30T12:59:03Z</time>
      </trkpt>
      <trkpt lat="45.22122" lon="4.26566">
        <ele>796.59</ele>
        <time>2020-09-30T12:59:16Z</time>
      </trkpt>
      <trkpt lat="45.22134" lon="4.26568">
        <ele>801.4</ele>
        <time>2020-09-30T12:59:28Z</time>
      </trkpt>
      <trkpt lat="45.22151" lon="4.26573">
        <ele>804.28</ele>
        <time>2020-09-30T12:59:45Z</time>
      </trkpt>
      <trkpt lat="45.22161" lon="4.26569">
        <ele>808.13</ele>
        <time>2020-09-30T13:00:02Z</time>
      </trkpt>
      <trkpt lat="45.22177" lon="4.26568">
        <ele>810.05</ele>
        <time>2020-09-30T13:00:18Z</time>
      </trkpt>
      <trkpt lat="45.22186" lon="4.26567">
        <ele>810.05</ele>
        <time>2020-09-30T13:00:33Z</time>
      </trkpt>
      <trkpt lat="45.22194" lon="4.26563">
        <ele>811.49</ele>
        <time>2020-09-30T13:00:47Z</time>
      </trkpt>
      <trkpt lat="45.22206" lon="4.26561">
        <ele>812.45</ele>
        <time>2020-09-30T13:01:03Z</time>
      </trkpt>
      <trkpt lat="45.22222" lon="4.26551">
        <ele>811.01</ele>
        <time>2020-09-30T13:01:18Z</time>
      </trkpt>
      <trkpt lat="45.22232" lon="4.26551">
        <ele>812.93</ele>
        <time>2020-09-30T13:01:30Z</time>
      </trkpt>
      <trkpt lat="45.22242" lon="4.2654">
        <ele>816.3</ele>
        <time>2020-09-30T13:01:44Z</time>
      </trkpt>
      <trkpt lat="45.22249" lon="4.26529">
        <ele>814.85</ele>
        <time>2020-09-30T13:01:56Z</time>
      </trkpt>
      <trkpt lat="45.22257" lon="4.2652">
        <ele>811.97</ele>
        <time>2020-09-30T13:02:09Z</time>
      </trkpt>
      <trkpt lat="45.22267" lon="4.26513">
        <ele>811.01</ele>
        <time>2020-09-30T13:02:24Z</time>
      </trkpt>
      <trkpt lat="45.22273" lon="4.26514">
        <ele>812.93</ele>
        <time>2020-09-30T13:02:36Z</time>
      </trkpt>
      <trkpt lat="45.22279" lon="4.26515">
        <ele>813.41</ele>
        <time>2020-09-30T13:02:48Z</time>
      </trkpt>
      <trkpt lat="45.22279" lon="4.26517">
        <ele>814.85</ele>
        <time>2020-09-30T13:03:02Z</time>
      </trkpt>
      <trkpt lat="45.22269" lon="4.26507">
        <ele>816.3</ele>
        <time>2020-09-30T13:03:18Z</time>
      </trkpt>
      <trkpt lat="45.2226" lon="4.26483">
        <ele>816.78</ele>
        <time>2020-09-30T13:03:35Z</time>
      </trkpt>
      <trkpt lat="45.22253" lon="4.26451">
        <ele>815.34</ele>
        <time>2020-09-30T13:03:55Z</time>
      </trkpt>
      <trkpt lat="45.22261" lon="4.26423">
        <ele>810.05</ele>
        <time>2020-09-30T13:04:15Z</time>
      </trkpt>
      <trkpt lat="45.2227" lon="4.26405">
        <ele>808.13</ele>
        <time>2020-09-30T13:04:32Z</time>
      </trkpt>
      <trkpt lat="45.22284" lon="4.26386">
        <ele>806.2</ele>
        <time>2020-09-30T13:04:50Z</time>
      </trkpt>
      <trkpt lat="45.22298" lon="4.26368">
        <ele>808.61</ele>
        <time>2020-09-30T13:05:08Z</time>
      </trkpt>
      <trkpt lat="45.2231" lon="4.26349">
        <ele>809.09</ele>
        <time>2020-09-30T13:05:24Z</time>
      </trkpt>
      <trkpt lat="45.22315" lon="4.2633">
        <ele>806.68</ele>
        <time>2020-09-30T13:05:39Z</time>
      </trkpt>
      <trkpt lat="45.22307" lon="4.2631">
        <ele>804.28</ele>
        <time>2020-09-30T13:05:55Z</time>
      </trkpt>
      <trkpt lat="45.22304" lon="4.26304">
        <ele>804.76</ele>
        <time>2020-09-30T13:05:59Z</time>
      </trkpt>
      <trkpt lat="45.22293" lon="4.26287">
        <ele>805.72</ele>
        <time>2020-09-30T13:06:14Z</time>
      </trkpt>
      <trkpt lat="45.22283" lon="4.26268">
        <ele>804.28</ele>
        <time>2020-09-30T13:06:28Z</time>
      </trkpt>
      <trkpt lat="45.22276" lon="4.26247">
        <ele>803.8</ele>
        <time>2020-09-30T13:06:43Z</time>
      </trkpt>
      <trkpt lat="45.22271" lon="4.26229">
        <ele>802.36</ele>
        <time>2020-09-30T13:06:59Z</time>
      </trkpt>
      <trkpt lat="45.22266" lon="4.26215">
        <ele>803.32</ele>
        <time>2020-09-30T13:07:13Z</time>
      </trkpt>
      <trkpt lat="45.2226" lon="4.26204">
        <ele>803.32</ele>
        <time>2020-09-30T13:07:27Z</time>
      </trkpt>
      <trkpt lat="45.22255" lon="4.26187">
        <ele>799.47</ele>
        <time>2020-09-30T13:07:45Z</time>
      </trkpt>
      <trkpt lat="45.22249" lon="4.26173">
        <ele>798.99</ele>
        <time>2020-09-30T13:08:01Z</time>
      </trkpt>
      <trkpt lat="45.22243" lon="4.26156">
        <ele>796.11</ele>
        <time>2020-09-30T13:08:15Z</time>
      </trkpt>
      <trkpt lat="45.22236" lon="4.26142">
        <ele>794.67</ele>
        <time>2020-09-30T13:08:30Z</time>
      </trkpt>
      <trkpt lat="45.22233" lon="4.26122">
        <ele>790.82</ele>
        <time>2020-09-30T13:08:44Z</time>
      </trkpt>
      <trkpt lat="45.22229" lon="4.26107">
        <ele>789.38</ele>
        <time>2020-09-30T13:08:58Z</time>
      </trkpt>
      <trkpt lat="45.22225" lon="4.26086">
        <ele>792.26</ele>
        <time>2020-09-30T13:09:14Z</time>
      </trkpt>
      <trkpt lat="45.22222" lon="4.26071">
        <ele>795.63</ele>
        <time>2020-09-30T13:09:30Z</time>
      </trkpt>
      <trkpt lat="45.22219" lon="4.26057">
        <ele>799.95</ele>
        <time>2020-09-30T13:09:42Z</time>
      </trkpt>
      <trkpt lat="45.22213" lon="4.26046">
        <ele>799.95</ele>
        <time>2020-09-30T13:09:57Z</time>
      </trkpt>
      <trkpt lat="45.22202" lon="4.26034">
        <ele>796.11</ele>
        <time>2020-09-30T13:10:11Z</time>
      </trkpt>
      <trkpt lat="45.22193" lon="4.26027">
        <ele>797.07</ele>
        <time>2020-09-30T13:10:25Z</time>
      </trkpt>
      <trkpt lat="45.22182" lon="4.26021">
        <ele>794.67</ele>
        <time>2020-09-30T13:10:40Z</time>
      </trkpt>
      <trkpt lat="45.22173" lon="4.2601">
        <ele>789.38</ele>
        <time>2020-09-30T13:10:55Z</time>
      </trkpt>
      <trkpt lat="45.22166" lon="4.25995">
        <ele>780.73</ele>
        <time>2020-09-30T13:11:10Z</time>
      </trkpt>
      <trkpt lat="45.22158" lon="4.25977">
        <ele>768.71</ele>
        <time>2020-09-30T13:11:28Z</time>
      </trkpt>
      <trkpt lat="45.22152" lon="4.25957">
        <ele>763.42</ele>
        <time>2020-09-30T13:11:44Z</time>
      </trkpt>
      <trkpt lat="45.22156" lon="4.25946">
        <ele>761.98</ele>
        <time>2020-09-30T13:11:56Z</time>
      </trkpt>
      <trkpt lat="45.22164" lon="4.25943">
        <ele>764.87</ele>
        <time>2020-09-30T13:12:09Z</time>
      </trkpt>
      <trkpt lat="45.22172" lon="4.25938">
        <ele>768.23</ele>
        <time>2020-09-30T13:12:25Z</time>
      </trkpt>
      <trkpt lat="45.22178" lon="4.25933">
        <ele>769.67</ele>
        <time>2020-09-30T13:12:38Z</time>
      </trkpt>
      <trkpt lat="45.22186" lon="4.25926">
        <ele>772.56</ele>
        <time>2020-09-30T13:12:51Z</time>
      </trkpt>
      <trkpt lat="45.22196" lon="4.25914">
        <ele>774</ele>
        <time>2020-09-30T13:13:06Z</time>
      </trkpt>
      <trkpt lat="45.22206" lon="4.25907">
        <ele>774</ele>
        <time>2020-09-30T13:13:19Z</time>
      </trkpt>
      <trkpt lat="45.22215" lon="4.25896">
        <ele>778.32</ele>
        <time>2020-09-30T13:13:33Z</time>
      </trkpt>
      <trkpt lat="45.2223" lon="4.25884">
        <ele>782.17</ele>
        <time>2020-09-30T13:13:50Z</time>
      </trkpt>
      <trkpt lat="45.22242" lon="4.25875">
        <ele>785.53</ele>
        <time>2020-09-30T13:14:04Z</time>
      </trkpt>
      <trkpt lat="45.22254" lon="4.2587">
        <ele>788.9</ele>
        <time>2020-09-30T13:14:17Z</time>
      </trkpt>
      <trkpt lat="45.22267" lon="4.25868">
        <ele>791.3</ele>
        <time>2020-09-30T13:14:31Z</time>
      </trkpt>
      <trkpt lat="45.22277" lon="4.25867">
        <ele>793.22</ele>
        <time>2020-09-30T13:14:44Z</time>
      </trkpt>
      <trkpt lat="45.22291" lon="4.25867">
        <ele>796.59</ele>
        <time>2020-09-30T13:14:59Z</time>
      </trkpt>
      <trkpt lat="45.22298" lon="4.25867">
        <ele>797.55</ele>
        <time>2020-09-30T13:15:05Z</time>
      </trkpt>
      <trkpt lat="45.22303" lon="4.25868">
        <ele>798.03</ele>
        <time>2020-09-30T13:15:09Z</time>
      </trkpt>
      <trkpt lat="45.22317" lon="4.25877">
        <ele>800.44</ele>
        <time>2020-09-30T13:15:24Z</time>
      </trkpt>
      <trkpt lat="45.2233" lon="4.25882">
        <ele>804.28</ele>
        <time>2020-09-30T13:15:38Z</time>
      </trkpt>
      <trkpt lat="45.22342" lon="4.25892">
        <ele>807.64</ele>
        <time>2020-09-30T13:15:53Z</time>
      </trkpt>
      <trkpt lat="45.22344" lon="4.25895">
        <ele>808.13</ele>
        <time>2020-09-30T13:15:56Z</time>
      </trkpt>
      <trkpt lat="45.22353" lon="4.25912">
        <ele>812.93</ele>
        <time>2020-09-30T13:16:11Z</time>
      </trkpt>
      <trkpt lat="45.22363" lon="4.25924">
        <ele>815.82</ele>
        <time>2020-09-30T13:16:24Z</time>
      </trkpt>
      <trkpt lat="45.22367" lon="4.25927">
        <ele>818.7</ele>
        <time>2020-09-30T13:16:30Z</time>
      </trkpt>
      <trkpt lat="45.22373" lon="4.25925">
        <ele>821.1</ele>
        <time>2020-09-30T13:16:38Z</time>
      </trkpt>
      <trkpt lat="45.22376" lon="4.25918">
        <ele>824.95</ele>
        <time>2020-09-30T13:16:52Z</time>
      </trkpt>
      <trkpt lat="45.22385" lon="4.25901">
        <ele>822.06</ele>
        <time>2020-09-30T13:17:09Z</time>
      </trkpt>
      <trkpt lat="45.22396" lon="4.25891">
        <ele>820.14</ele>
        <time>2020-09-30T13:17:23Z</time>
      </trkpt>
      <trkpt lat="45.224" lon="4.25894">
        <ele>819.66</ele>
        <time>2020-09-30T13:17:34Z</time>
      </trkpt>
      <trkpt lat="45.22402" lon="4.25893">
        <ele>819.18</ele>
        <time>2020-09-30T13:17:47Z</time>
      </trkpt>
      <trkpt lat="45.224" lon="4.2589">
        <ele>818.7</ele>
        <time>2020-09-30T13:18:01Z</time>
      </trkpt>
      <trkpt lat="45.22399" lon="4.2589">
        <ele>818.7</ele>
        <time>2020-09-30T13:18:03Z</time>
      </trkpt>
      <trkpt lat="45.22394" lon="4.25886">
        <ele>818.7</ele>
        <time>2020-09-30T13:18:13Z</time>
      </trkpt>
      <trkpt lat="45.22393" lon="4.25891">
        <ele>818.22</ele>
        <time>2020-09-30T13:18:27Z</time>
      </trkpt>
      <trkpt lat="45.22393" lon="4.2589">
        <ele>817.74</ele>
        <time>2020-09-30T13:18:51Z</time>
      </trkpt>
      <trkpt lat="45.22393" lon="4.25889">
        <ele>817.74</ele>
        <time>2020-09-30T13:18:57Z</time>
      </trkpt>
      <trkpt lat="45.22393" lon="4.25887">
        <ele>818.22</ele>
        <time>2020-09-30T13:19:06Z</time>
      </trkpt>
      <trkpt lat="45.22393" lon="4.25884">
        <ele>816.78</ele>
        <time>2020-09-30T13:19:19Z</time>
      </trkpt>
      <trkpt lat="45.22394" lon="4.2588">
        <ele>816.3</ele>
        <time>2020-09-30T13:19:30Z</time>
      </trkpt>
      <trkpt lat="45.22393" lon="4.25882">
        <ele>815.82</ele>
        <time>2020-09-30T13:19:44Z</time>
      </trkpt>
      <trkpt lat="45.22393" lon="4.25883">
        <ele>816.3</ele>
        <time>2020-09-30T13:20:02Z</time>
      </trkpt>
      <trkpt lat="45.2239" lon="4.25876">
        <ele>814.37</ele>
        <time>2020-09-30T13:20:16Z</time>
      </trkpt>
      <trkpt lat="45.22387" lon="4.25872">
        <ele>814.37</ele>
        <time>2020-09-30T13:20:23Z</time>
      </trkpt>
      <trkpt lat="45.22372" lon="4.25852">
        <ele>812.93</ele>
        <time>2020-09-30T13:20:41Z</time>
      </trkpt>
      <trkpt lat="45.22371" lon="4.2585">
        <ele>812.45</ele>
        <time>2020-09-30T13:20:43Z</time>
      </trkpt>
      <trkpt lat="45.22368" lon="4.25849">
        <ele>812.45</ele>
        <time>2020-09-30T13:20:47Z</time>
      </trkpt>
      <trkpt lat="45.22355" lon="4.25831">
        <ele>815.82</ele>
        <time>2020-09-30T13:21:03Z</time>
      </trkpt>
      <trkpt lat="45.22341" lon="4.25808">
        <ele>815.34</ele>
        <time>2020-09-30T13:21:21Z</time>
      </trkpt>
      <trkpt lat="45.22327" lon="4.25778">
        <ele>815.34</ele>
        <time>2020-09-30T13:21:43Z</time>
      </trkpt>
      <trkpt lat="45.22322" lon="4.25766">
        <ele>815.82</ele>
        <time>2020-09-30T13:21:51Z</time>
      </trkpt>
      <trkpt lat="45.22313" lon="4.25739">
        <ele>816.78</ele>
        <time>2020-09-30T13:22:10Z</time>
      </trkpt>
      <trkpt lat="45.22303" lon="4.25713">
        <ele>818.22</ele>
        <time>2020-09-30T13:22:28Z</time>
      </trkpt>
      <trkpt lat="45.22295" lon="4.25692">
        <ele>817.26</ele>
        <time>2020-09-30T13:22:42Z</time>
      </trkpt>
      <trkpt lat="45.22291" lon="4.25678">
        <ele>815.82</ele>
        <time>2020-09-30T13:22:51Z</time>
      </trkpt>
      <trkpt lat="45.22279" lon="4.25647">
        <ele>814.37</ele>
        <time>2020-09-30T13:23:10Z</time>
      </trkpt>
      <trkpt lat="45.22268" lon="4.25619">
        <ele>814.37</ele>
        <time>2020-09-30T13:23:28Z</time>
      </trkpt>
      <trkpt lat="45.22258" lon="4.2559">
        <ele>811.49</ele>
        <time>2020-09-30T13:23:46Z</time>
      </trkpt>
      <trkpt lat="45.22266" lon="4.25572">
        <ele>813.41</ele>
        <time>2020-09-30T13:24:01Z</time>
      </trkpt>
      <trkpt lat="45.22267" lon="4.25569">
        <ele>813.41</ele>
        <time>2020-09-30T13:24:04Z</time>
      </trkpt>
      <trkpt lat="45.22266" lon="4.25563">
        <ele>813.89</ele>
        <time>2020-09-30T13:24:09Z</time>
      </trkpt>
      <trkpt lat="45.22265" lon="4.25544">
        <ele>816.78</ele>
        <time>2020-09-30T13:24:23Z</time>
      </trkpt>
      <trkpt lat="45.22268" lon="4.25523">
        <ele>821.58</ele>
        <time>2020-09-30T13:24:38Z</time>
      </trkpt>
      <trkpt lat="45.22266" lon="4.25498">
        <ele>830.72</ele>
        <time>2020-09-30T13:24:55Z</time>
      </trkpt>
      <trkpt lat="45.22267" lon="4.25478">
        <ele>837.45</ele>
        <time>2020-09-30T13:25:11Z</time>
      </trkpt>
      <trkpt lat="45.22266" lon="4.25469">
        <ele>838.89</ele>
        <time>2020-09-30T13:25:16Z</time>
      </trkpt>
      <trkpt lat="45.22269" lon="4.25441">
        <ele>843.69</ele>
        <time>2020-09-30T13:25:31Z</time>
      </trkpt>
      <trkpt lat="45.22272" lon="4.25431">
        <ele>843.21</ele>
        <time>2020-09-30T13:25:37Z</time>
      </trkpt>
      <trkpt lat="45.22276" lon="4.2542">
        <ele>842.73</ele>
        <time>2020-09-30T13:25:41Z</time>
      </trkpt>
      <trkpt lat="45.22276" lon="4.25416">
        <ele>842.73</ele>
        <time>2020-09-30T13:25:43Z</time>
      </trkpt>
      <trkpt lat="45.2228" lon="4.25399">
        <ele>839.37</ele>
        <time>2020-09-30T13:25:51Z</time>
      </trkpt>
      <trkpt lat="45.22285" lon="4.25369">
        <ele>837.45</ele>
        <time>2020-09-30T13:26:08Z</time>
      </trkpt>
      <trkpt lat="45.22288" lon="4.25342">
        <ele>834.08</ele>
        <time>2020-09-30T13:26:24Z</time>
      </trkpt>
      <trkpt lat="45.22291" lon="4.25315">
        <ele>830.24</ele>
        <time>2020-09-30T13:26:40Z</time>
      </trkpt>
      <trkpt lat="45.22295" lon="4.25302">
        <ele>828.31</ele>
        <time>2020-09-30T13:26:48Z</time>
      </trkpt>
      <trkpt lat="45.22297" lon="4.253">
        <ele>827.83</ele>
        <time>2020-09-30T13:26:50Z</time>
      </trkpt>
      <trkpt lat="45.22311" lon="4.25282">
        <ele>825.43</ele>
        <time>2020-09-30T13:27:06Z</time>
      </trkpt>
      <trkpt lat="45.22316" lon="4.25276">
        <ele>824.47</ele>
        <time>2020-09-30T13:27:12Z</time>
      </trkpt>
      <trkpt lat="45.22328" lon="4.2527">
        <ele>826.87</ele>
        <time>2020-09-30T13:27:25Z</time>
      </trkpt>
      <trkpt lat="45.22337" lon="4.25267">
        <ele>828.79</ele>
        <time>2020-09-30T13:27:34Z</time>
      </trkpt>
      <trkpt lat="45.22341" lon="4.25269">
        <ele>829.27</ele>
        <time>2020-09-30T13:27:38Z</time>
      </trkpt>
      <trkpt lat="45.22357" lon="4.25273">
        <ele>830.24</ele>
        <time>2020-09-30T13:27:53Z</time>
      </trkpt>
      <trkpt lat="45.22375" lon="4.25275">
        <ele>832.64</ele>
        <time>2020-09-30T13:28:09Z</time>
      </trkpt>
      <trkpt lat="45.22393" lon="4.25273">
        <ele>831.68</ele>
        <time>2020-09-30T13:28:24Z</time>
      </trkpt>
      <trkpt lat="45.22405" lon="4.25271">
        <ele>831.68</ele>
        <time>2020-09-30T13:28:38Z</time>
      </trkpt>
      <trkpt lat="45.22404" lon="4.25268">
        <ele>831.2</ele>
        <time>2020-09-30T13:28:52Z</time>
      </trkpt>
      <trkpt lat="45.22406" lon="4.25268">
        <ele>829.27</ele>
        <time>2020-09-30T13:29:05Z</time>
      </trkpt>
      <trkpt lat="45.22406" lon="4.25268">
        <ele>829.27</ele>
        <time>2020-09-30T13:29:06Z</time>
      </trkpt>
      <trkpt lat="45.22402" lon="4.25236">
        <ele>831.2</ele>
        <time>2020-09-30T13:29:25Z</time>
      </trkpt>
      <trkpt lat="45.224" lon="4.25203">
        <ele>832.64</ele>
        <time>2020-09-30T13:29:44Z</time>
      </trkpt>
      <trkpt lat="45.224" lon="4.25174">
        <ele>832.16</ele>
        <time>2020-09-30T13:30:01Z</time>
      </trkpt>
      <trkpt lat="45.22399" lon="4.25157">
        <ele>832.64</ele>
        <time>2020-09-30T13:30:14Z</time>
      </trkpt>
      <trkpt lat="45.22397" lon="4.25141">
        <ele>835.52</ele>
        <time>2020-09-30T13:30:24Z</time>
      </trkpt>
      <trkpt lat="45.22396" lon="4.25131">
        <ele>836</ele>
        <time>2020-09-30T13:30:29Z</time>
      </trkpt>
      <trkpt lat="45.2239" lon="4.25101">
        <ele>835.04</ele>
        <time>2020-09-30T13:30:46Z</time>
      </trkpt>
      <trkpt lat="45.22389" lon="4.25095">
        <ele>834.56</ele>
        <time>2020-09-30T13:30:50Z</time>
      </trkpt>
      <trkpt lat="45.22376" lon="4.25066">
        <ele>834.08</ele>
        <time>2020-09-30T13:31:09Z</time>
      </trkpt>
      <trkpt lat="45.22362" lon="4.25042">
        <ele>833.12</ele>
        <time>2020-09-30T13:31:26Z</time>
      </trkpt>
      <trkpt lat="45.22357" lon="4.25021">
        <ele>833.6</ele>
        <time>2020-09-30T13:31:39Z</time>
      </trkpt>
      <trkpt lat="45.22347" lon="4.24997">
        <ele>836</ele>
        <time>2020-09-30T13:31:56Z</time>
      </trkpt>
      <trkpt lat="45.22343" lon="4.2499">
        <ele>837.45</ele>
        <time>2020-09-30T13:32:01Z</time>
      </trkpt>
      <trkpt lat="45.22341" lon="4.24985">
        <ele>837.93</ele>
        <time>2020-09-30T13:32:05Z</time>
      </trkpt>
      <trkpt lat="45.22331" lon="4.24967">
        <ele>838.89</ele>
        <time>2020-09-30T13:32:17Z</time>
      </trkpt>
      <trkpt lat="45.22321" lon="4.2495">
        <ele>838.41</ele>
        <time>2020-09-30T13:32:30Z</time>
      </trkpt>
      <trkpt lat="45.22317" lon="4.24941">
        <ele>837.93</ele>
        <time>2020-09-30T13:32:36Z</time>
      </trkpt>
      <trkpt lat="45.22303" lon="4.24919">
        <ele>834.56</ele>
        <time>2020-09-30T13:32:52Z</time>
      </trkpt>
      <trkpt lat="45.22298" lon="4.24911">
        <ele>834.56</ele>
        <time>2020-09-30T13:32:58Z</time>
      </trkpt>
      <trkpt lat="45.22294" lon="4.24905">
        <ele>834.56</ele>
        <time>2020-09-30T13:33:02Z</time>
      </trkpt>
      <trkpt lat="45.22279" lon="4.24881">
        <ele>832.64</ele>
        <time>2020-09-30T13:33:21Z</time>
      </trkpt>
      <trkpt lat="45.22266" lon="4.24859">
        <ele>830.24</ele>
        <time>2020-09-30T13:33:38Z</time>
      </trkpt>
      <trkpt lat="45.22252" lon="4.24836">
        <ele>827.83</ele>
        <time>2020-09-30T13:33:58Z</time>
      </trkpt>
      <trkpt lat="45.22249" lon="4.24827">
        <ele>827.35</ele>
        <time>2020-09-30T13:34:08Z</time>
      </trkpt>
      <trkpt lat="45.22247" lon="4.24826">
        <ele>826.87</ele>
        <time>2020-09-30T13:34:15Z</time>
      </trkpt>
      <trkpt lat="45.22244" lon="4.24807">
        <ele>824.47</ele>
        <time>2020-09-30T13:34:28Z</time>
      </trkpt>
      <trkpt lat="45.22237" lon="4.24783">
        <ele>822.55</ele>
        <time>2020-09-30T13:34:43Z</time>
      </trkpt>
      <trkpt lat="45.22228" lon="4.2476">
        <ele>820.62</ele>
        <time>2020-09-30T13:34:58Z</time>
      </trkpt>
      <trkpt lat="45.22217" lon="4.24738">
        <ele>816.78</ele>
        <time>2020-09-30T13:35:13Z</time>
      </trkpt>
      <trkpt lat="45.22205" lon="4.2472">
        <ele>813.41</ele>
        <time>2020-09-30T13:35:30Z</time>
      </trkpt>
      <trkpt lat="45.22196" lon="4.24706">
        <ele>810.05</ele>
        <time>2020-09-30T13:35:44Z</time>
      </trkpt>
      <trkpt lat="45.22194" lon="4.24704">
        <ele>808.61</ele>
        <time>2020-09-30T13:35:55Z</time>
      </trkpt>
      <trkpt lat="45.22188" lon="4.24696">
        <ele>806.68</ele>
        <time>2020-09-30T13:36:08Z</time>
      </trkpt>
      <trkpt lat="45.2218" lon="4.24693">
        <ele>804.76</ele>
        <time>2020-09-30T13:36:18Z</time>
      </trkpt>
      <trkpt lat="45.2217" lon="4.24689">
        <ele>801.88</ele>
        <time>2020-09-30T13:36:30Z</time>
      </trkpt>
      <trkpt lat="45.22166" lon="4.24682">
        <ele>799.47</ele>
        <time>2020-09-30T13:36:38Z</time>
      </trkpt>
      <trkpt lat="45.22163" lon="4.24681">
        <ele>798.03</ele>
        <time>2020-09-30T13:36:43Z</time>
      </trkpt>
      <trkpt lat="45.22153" lon="4.24672">
        <ele>794.67</ele>
        <time>2020-09-30T13:36:57Z</time>
      </trkpt>
      <trkpt lat="45.22152" lon="4.24671">
        <ele>794.19</ele>
        <time>2020-09-30T13:36:58Z</time>
      </trkpt>
      <trkpt lat="45.22151" lon="4.24665">
        <ele>792.74</ele>
        <time>2020-09-30T13:37:04Z</time>
      </trkpt>
      <trkpt lat="45.22144" lon="4.24656">
        <ele>789.86</ele>
        <time>2020-09-30T13:37:18Z</time>
      </trkpt>
      <trkpt lat="45.22142" lon="4.24655">
        <ele>788.9</ele>
        <time>2020-09-30T13:37:22Z</time>
      </trkpt>
      <trkpt lat="45.22139" lon="4.24653">
        <ele>788.42</ele>
        <time>2020-09-30T13:37:25Z</time>
      </trkpt>
      <trkpt lat="45.22135" lon="4.2465">
        <ele>787.46</ele>
        <time>2020-09-30T13:37:29Z</time>
      </trkpt>
      <trkpt lat="45.22133" lon="4.24652">
        <ele>786.98</ele>
        <time>2020-09-30T13:37:37Z</time>
      </trkpt>
      <trkpt lat="45.22127" lon="4.24644">
        <ele>783.61</ele>
        <time>2020-09-30T13:37:47Z</time>
      </trkpt>
      <trkpt lat="45.22124" lon="4.24643">
        <ele>782.65</ele>
        <time>2020-09-30T13:37:50Z</time>
      </trkpt>
      <trkpt lat="45.22122" lon="4.24639">
        <ele>781.69</ele>
        <time>2020-09-30T13:37:54Z</time>
      </trkpt>
      <trkpt lat="45.22111" lon="4.24632">
        <ele>778.81</ele>
        <time>2020-09-30T13:38:06Z</time>
      </trkpt>
      <trkpt lat="45.22099" lon="4.24624">
        <ele>776.4</ele>
        <time>2020-09-30T13:38:18Z</time>
      </trkpt>
      <trkpt lat="45.22092" lon="4.24619">
        <ele>775.44</ele>
        <time>2020-09-30T13:38:25Z</time>
      </trkpt>
      <trkpt lat="45.22074" lon="4.24608">
        <ele>774.96</ele>
        <time>2020-09-30T13:38:42Z</time>
      </trkpt>
      <trkpt lat="45.22066" lon="4.24601">
        <ele>775.92</ele>
        <time>2020-09-30T13:38:54Z</time>
      </trkpt>
      <trkpt lat="45.22059" lon="4.24588">
        <ele>776.4</ele>
        <time>2020-09-30T13:39:08Z</time>
      </trkpt>
      <trkpt lat="45.22056" lon="4.24578">
        <ele>778.32</ele>
        <time>2020-09-30T13:39:17Z</time>
      </trkpt>
      <trkpt lat="45.22052" lon="4.24562">
        <ele>779.29</ele>
        <time>2020-09-30T13:39:32Z</time>
      </trkpt>
      <trkpt lat="45.22047" lon="4.2455">
        <ele>781.69</ele>
        <time>2020-09-30T13:39:45Z</time>
      </trkpt>
      <trkpt lat="45.22042" lon="4.24535">
        <ele>783.13</ele>
        <time>2020-09-30T13:39:59Z</time>
      </trkpt>
      <trkpt lat="45.22038" lon="4.24522">
        <ele>783.61</ele>
        <time>2020-09-30T13:40:12Z</time>
      </trkpt>
      <trkpt lat="45.22034" lon="4.24509">
        <ele>783.61</ele>
        <time>2020-09-30T13:40:30Z</time>
      </trkpt>
      <trkpt lat="45.22032" lon="4.24501">
        <ele>783.13</ele>
        <time>2020-09-30T13:40:38Z</time>
      </trkpt>
      <trkpt lat="45.22029" lon="4.24495">
        <ele>782.65</ele>
        <time>2020-09-30T13:40:43Z</time>
      </trkpt>
      <trkpt lat="45.22026" lon="4.24487">
        <ele>780.73</ele>
        <time>2020-09-30T13:40:49Z</time>
      </trkpt>
      <trkpt lat="45.22018" lon="4.24474">
        <ele>779.29</ele>
        <time>2020-09-30T13:41:03Z</time>
      </trkpt>
      <trkpt lat="45.22015" lon="4.24468">
        <ele>778.81</ele>
        <time>2020-09-30T13:41:10Z</time>
      </trkpt>
      <trkpt lat="45.22008" lon="4.24451">
        <ele>776.88</ele>
        <time>2020-09-30T13:41:23Z</time>
      </trkpt>
      <trkpt lat="45.22005" lon="4.24445">
        <ele>775.44</ele>
        <time>2020-09-30T13:41:28Z</time>
      </trkpt>
      <trkpt lat="45.22004" lon="4.2444">
        <ele>774</ele>
        <time>2020-09-30T13:41:32Z</time>
      </trkpt>
      <trkpt lat="45.21998" lon="4.24428">
        <ele>769.19</ele>
        <time>2020-09-30T13:41:42Z</time>
      </trkpt>
      <trkpt lat="45.21991" lon="4.24417">
        <ele>765.35</ele>
        <time>2020-09-30T13:41:52Z</time>
      </trkpt>
      <trkpt lat="45.21987" lon="4.24411">
        <ele>764.87</ele>
        <time>2020-09-30T13:41:58Z</time>
      </trkpt>
      <trkpt lat="45.2198" lon="4.244">
        <ele>764.87</ele>
        <time>2020-09-30T13:42:11Z</time>
      </trkpt>
      <trkpt lat="45.21974" lon="4.24385">
        <ele>765.83</ele>
        <time>2020-09-30T13:42:25Z</time>
      </trkpt>
      <trkpt lat="45.21966" lon="4.24373">
        <ele>765.35</ele>
        <time>2020-09-30T13:42:37Z</time>
      </trkpt>
      <trkpt lat="45.21964" lon="4.24366">
        <ele>763.9</ele>
        <time>2020-09-30T13:42:42Z</time>
      </trkpt>
      <trkpt lat="45.21954" lon="4.24348">
        <ele>756.69</ele>
        <time>2020-09-30T13:42:55Z</time>
      </trkpt>
      <trkpt lat="45.21942" lon="4.24329">
        <ele>748.52</ele>
        <time>2020-09-30T13:43:11Z</time>
      </trkpt>
      <trkpt lat="45.2194" lon="4.24327">
        <ele>746.6</ele>
        <time>2020-09-30T13:43:13Z</time>
      </trkpt>
      <trkpt lat="45.21937" lon="4.24321">
        <ele>742.76</ele>
        <time>2020-09-30T13:43:18Z</time>
      </trkpt>
      <trkpt lat="45.21928" lon="4.24304">
        <ele>738.43</ele>
        <time>2020-09-30T13:43:32Z</time>
      </trkpt>
      <trkpt lat="45.21926" lon="4.243">
        <ele>737.95</ele>
        <time>2020-09-30T13:43:35Z</time>
      </trkpt>
      <trkpt lat="45.21925" lon="4.24296">
        <ele>736.51</ele>
        <time>2020-09-30T13:43:38Z</time>
      </trkpt>
      <trkpt lat="45.21921" lon="4.24286">
        <ele>735.55</ele>
        <time>2020-09-30T13:43:45Z</time>
      </trkpt>
      <trkpt lat="45.21918" lon="4.24281">
        <ele>734.58</ele>
        <time>2020-09-30T13:43:49Z</time>
      </trkpt>
      <trkpt lat="45.21913" lon="4.24274">
        <ele>733.62</ele>
        <time>2020-09-30T13:43:56Z</time>
      </trkpt>
      <trkpt lat="45.21911" lon="4.24262">
        <ele>732.18</ele>
        <time>2020-09-30T13:44:10Z</time>
      </trkpt>
      <trkpt lat="45.21912" lon="4.2426">
        <ele>729.78</ele>
        <time>2020-09-30T13:44:23Z</time>
      </trkpt>
      <trkpt lat="45.21913" lon="4.24259">
        <ele>729.3</ele>
        <time>2020-09-30T13:44:36Z</time>
      </trkpt>
      <trkpt lat="45.21912" lon="4.24258">
        <ele>728.34</ele>
        <time>2020-09-30T13:44:59Z</time>
      </trkpt>
      <trkpt lat="45.21913" lon="4.24257">
        <ele>728.82</ele>
        <time>2020-09-30T13:45:20Z</time>
      </trkpt>
      <trkpt lat="45.21908" lon="4.24249">
        <ele>730.26</ele>
        <time>2020-09-30T13:45:33Z</time>
      </trkpt>
      <trkpt lat="45.21905" lon="4.24245">
        <ele>730.74</ele>
        <time>2020-09-30T13:45:37Z</time>
      </trkpt>
      <trkpt lat="45.21896" lon="4.24226">
        <ele>728.82</ele>
        <time>2020-09-30T13:45:53Z</time>
      </trkpt>
      <trkpt lat="45.21895" lon="4.2422">
        <ele>727.86</ele>
        <time>2020-09-30T13:45:57Z</time>
      </trkpt>
      <trkpt lat="45.21895" lon="4.24216">
        <ele>726.89</ele>
        <time>2020-09-30T13:45:59Z</time>
      </trkpt>
      <trkpt lat="45.21894" lon="4.2421">
        <ele>725.93</ele>
        <time>2020-09-30T13:46:03Z</time>
      </trkpt>
      <trkpt lat="45.21895" lon="4.24202">
        <ele>724.01</ele>
        <time>2020-09-30T13:46:09Z</time>
      </trkpt>
      <trkpt lat="45.21893" lon="4.24181">
        <ele>722.57</ele>
        <time>2020-09-30T13:46:24Z</time>
      </trkpt>
      <trkpt lat="45.21893" lon="4.24176">
        <ele>722.09</ele>
        <time>2020-09-30T13:46:27Z</time>
      </trkpt>
      <trkpt lat="45.2189" lon="4.24171">
        <ele>721.13</ele>
        <time>2020-09-30T13:46:31Z</time>
      </trkpt>
      <trkpt lat="45.21885" lon="4.24167">
        <ele>719.68</ele>
        <time>2020-09-30T13:46:37Z</time>
      </trkpt>
      <trkpt lat="45.21873" lon="4.24163">
        <ele>715.84</ele>
        <time>2020-09-30T13:46:50Z</time>
      </trkpt>
      <trkpt lat="45.2187" lon="4.24162">
        <ele>715.36</ele>
        <time>2020-09-30T13:46:53Z</time>
      </trkpt>
      <trkpt lat="45.21863" lon="4.24164">
        <ele>712.95</ele>
        <time>2020-09-30T13:47:02Z</time>
      </trkpt>
      <trkpt lat="45.21858" lon="4.24167">
        <ele>710.55</ele>
        <time>2020-09-30T13:47:08Z</time>
      </trkpt>
      <trkpt lat="45.21846" lon="4.2417">
        <ele>708.63</ele>
        <time>2020-09-30T13:47:23Z</time>
      </trkpt>
      <trkpt lat="45.2184" lon="4.2417">
        <ele>706.23</ele>
        <time>2020-09-30T13:47:35Z</time>
      </trkpt>
      <trkpt lat="45.21837" lon="4.24171">
        <ele>705.26</ele>
        <time>2020-09-30T13:47:38Z</time>
      </trkpt>
      <trkpt lat="45.21833" lon="4.24168">
        <ele>704.78</ele>
        <time>2020-09-30T13:47:43Z</time>
      </trkpt>
      <trkpt lat="45.21823" lon="4.24157">
        <ele>699.98</ele>
        <time>2020-09-30T13:47:58Z</time>
      </trkpt>
      <trkpt lat="45.21812" lon="4.24144">
        <ele>695.65</ele>
        <time>2020-09-30T13:48:14Z</time>
      </trkpt>
      <trkpt lat="45.21808" lon="4.24135">
        <ele>691.81</ele>
        <time>2020-09-30T13:48:27Z</time>
      </trkpt>
      <trkpt lat="45.21806" lon="4.24134">
        <ele>690.84</ele>
        <time>2020-09-30T13:48:31Z</time>
      </trkpt>
      <trkpt lat="45.21798" lon="4.24142">
        <ele>689.4</ele>
        <time>2020-09-30T13:48:41Z</time>
      </trkpt>
      <trkpt lat="45.21791" lon="4.24139">
        <ele>687</ele>
        <time>2020-09-30T13:48:48Z</time>
      </trkpt>
      <trkpt lat="45.21781" lon="4.24137">
        <ele>685.56</ele>
        <time>2020-09-30T13:48:59Z</time>
      </trkpt>
      <trkpt lat="45.21777" lon="4.24122">
        <ele>684.12</ele>
        <time>2020-09-30T13:49:11Z</time>
      </trkpt>
      <trkpt lat="45.21782" lon="4.24099">
        <ele>678.35</ele>
        <time>2020-09-30T13:49:28Z</time>
      </trkpt>
      <trkpt lat="45.21781" lon="4.24093">
        <ele>677.39</ele>
        <time>2020-09-30T13:49:33Z</time>
      </trkpt>
      <trkpt lat="45.21776" lon="4.24086">
        <ele>675.94</ele>
        <time>2020-09-30T13:49:41Z</time>
      </trkpt>
      <trkpt lat="45.21771" lon="4.24079">
        <ele>674.02</ele>
        <time>2020-09-30T13:49:53Z</time>
      </trkpt>
      <trkpt lat="45.21773" lon="4.24066">
        <ele>672.58</ele>
        <time>2020-09-30T13:50:06Z</time>
      </trkpt>
      <trkpt lat="45.21777" lon="4.24052">
        <ele>670.66</ele>
        <time>2020-09-30T13:50:19Z</time>
      </trkpt>
      <trkpt lat="45.21777" lon="4.24043">
        <ele>669.7</ele>
        <time>2020-09-30T13:50:25Z</time>
      </trkpt>
      <trkpt lat="45.2178" lon="4.24033">
        <ele>668.25</ele>
        <time>2020-09-30T13:50:33Z</time>
      </trkpt>
      <trkpt lat="45.2178" lon="4.2403">
        <ele>667.77</ele>
        <time>2020-09-30T13:50:35Z</time>
      </trkpt>
      <trkpt lat="45.21783" lon="4.24019">
        <ele>666.33</ele>
        <time>2020-09-30T13:50:47Z</time>
      </trkpt>
      <trkpt lat="45.21784" lon="4.24013">
        <ele>665.37</ele>
        <time>2020-09-30T13:50:55Z</time>
      </trkpt>
      <trkpt lat="45.21785" lon="4.24">
        <ele>663.45</ele>
        <time>2020-09-30T13:51:09Z</time>
      </trkpt>
      <trkpt lat="45.21785" lon="4.23999">
        <ele>662.97</ele>
        <time>2020-09-30T13:51:11Z</time>
      </trkpt>
      <trkpt lat="45.21789" lon="4.23982">
        <ele>658.64</ele>
        <time>2020-09-30T13:51:25Z</time>
      </trkpt>
      <trkpt lat="45.2179" lon="4.23968">
        <ele>655.28</ele>
        <time>2020-09-30T13:51:38Z</time>
      </trkpt>
      <trkpt lat="45.21792" lon="4.23957">
        <ele>654.31</ele>
        <time>2020-09-30T13:51:51Z</time>
      </trkpt>
      <trkpt lat="45.21794" lon="4.23956">
        <ele>653.35</ele>
        <time>2020-09-30T13:51:55Z</time>
      </trkpt>
      <trkpt lat="45.21803" lon="4.23948">
        <ele>649.51</ele>
        <time>2020-09-30T13:52:08Z</time>
      </trkpt>
      <trkpt lat="45.21812" lon="4.23941">
        <ele>647.1</ele>
        <time>2020-09-30T13:52:20Z</time>
      </trkpt>
      <trkpt lat="45.21819" lon="4.23934">
        <ele>647.1</ele>
        <time>2020-09-30T13:52:31Z</time>
      </trkpt>
      <trkpt lat="45.21823" lon="4.23928">
        <ele>646.62</ele>
        <time>2020-09-30T13:52:37Z</time>
      </trkpt>
      <trkpt lat="45.21825" lon="4.2392">
        <ele>646.62</ele>
        <time>2020-09-30T13:52:46Z</time>
      </trkpt>
      <trkpt lat="45.21825" lon="4.23912">
        <ele>645.18</ele>
        <time>2020-09-30T13:52:58Z</time>
      </trkpt>
      <trkpt lat="45.21826" lon="4.23911">
        <ele>643.26</ele>
        <time>2020-09-30T13:53:20Z</time>
      </trkpt>
      <trkpt lat="45.21825" lon="4.23912">
        <ele>642.3</ele>
        <time>2020-09-30T13:53:52Z</time>
      </trkpt>
      <trkpt lat="45.21825" lon="4.23911">
        <ele>641.34</ele>
        <time>2020-09-30T13:54:20Z</time>
      </trkpt>
      <trkpt lat="45.21826" lon="4.23911">
        <ele>641.34</ele>
        <time>2020-09-30T13:54:34Z</time>
      </trkpt>
      <trkpt lat="45.21827" lon="4.23909">
        <ele>642.3</ele>
        <time>2020-09-30T13:54:47Z</time>
      </trkpt>
      <trkpt lat="45.2183" lon="4.23905">
        <ele>640.38</ele>
        <time>2020-09-30T13:55:07Z</time>
      </trkpt>
      <trkpt lat="45.21834" lon="4.23903">
        <ele>639.41</ele>
        <time>2020-09-30T13:55:20Z</time>
      </trkpt>
      <trkpt lat="45.21841" lon="4.23897">
        <ele>639.89</ele>
        <time>2020-09-30T13:55:33Z</time>
      </trkpt>
      <trkpt lat="45.2185" lon="4.23883">
        <ele>639.41</ele>
        <time>2020-09-30T13:55:45Z</time>
      </trkpt>
      <trkpt lat="45.21851" lon="4.23882">
        <ele>639.41</ele>
        <time>2020-09-30T13:55:46Z</time>
      </trkpt>
      <trkpt lat="45.21854" lon="4.23876">
        <ele>639.41</ele>
        <time>2020-09-30T13:55:50Z</time>
      </trkpt>
      <trkpt lat="45.21857" lon="4.23864">
        <ele>640.38</ele>
        <time>2020-09-30T13:55:58Z</time>
      </trkpt>
      <trkpt lat="45.21855" lon="4.23858">
        <ele>641.82</ele>
        <time>2020-09-30T13:56:02Z</time>
      </trkpt>
      <trkpt lat="45.2185" lon="4.23845">
        <ele>642.3</ele>
        <time>2020-09-30T13:56:15Z</time>
      </trkpt>
      <trkpt lat="45.21848" lon="4.23842">
        <ele>642.78</ele>
        <time>2020-09-30T13:56:19Z</time>
      </trkpt>
      <trkpt lat="45.21842" lon="4.23831">
        <ele>641.82</ele>
        <time>2020-09-30T13:56:29Z</time>
      </trkpt>
      <trkpt lat="45.21851" lon="4.23817">
        <ele>637.01</ele>
        <time>2020-09-30T13:56:45Z</time>
      </trkpt>
      <trkpt lat="45.21851" lon="4.23809">
        <ele>637.49</ele>
        <time>2020-09-30T13:56:55Z</time>
      </trkpt>
      <trkpt lat="45.21855" lon="4.238">
        <ele>628.36</ele>
        <time>2020-09-30T13:57:06Z</time>
      </trkpt>
      <trkpt lat="45.21858" lon="4.23797">
        <ele>621.63</ele>
        <time>2020-09-30T13:57:22Z</time>
      </trkpt>
      <trkpt lat="45.21857" lon="4.23798">
        <ele>618.75</ele>
        <time>2020-09-30T13:57:38Z</time>
      </trkpt>
      <trkpt lat="45.21859" lon="4.23787">
        <ele>618.75</ele>
        <time>2020-09-30T13:57:45Z</time>
      </trkpt>
      <trkpt lat="45.21861" lon="4.23766">
        <ele>616.82</ele>
        <time>2020-09-30T13:58:00Z</time>
      </trkpt>
      <trkpt lat="45.21874" lon="4.23745">
        <ele>612.02</ele>
        <time>2020-09-30T13:58:18Z</time>
      </trkpt>
      <trkpt lat="45.21887" lon="4.23728">
        <ele>612.98</ele>
        <time>2020-09-30T13:58:32Z</time>
      </trkpt>
      <trkpt lat="45.21892" lon="4.23719">
        <ele>612.02</ele>
        <time>2020-09-30T13:58:39Z</time>
      </trkpt>
      <trkpt lat="45.21908" lon="4.23697">
        <ele>611.06</ele>
        <time>2020-09-30T13:58:54Z</time>
      </trkpt>
      <trkpt lat="45.21917" lon="4.23678">
        <ele>610.57</ele>
        <time>2020-09-30T13:59:06Z</time>
      </trkpt>
      <trkpt lat="45.21924" lon="4.23667">
        <ele>612.02</ele>
        <time>2020-09-30T13:59:14Z</time>
      </trkpt>
      <trkpt lat="45.21925" lon="4.23661">
        <ele>611.54</ele>
        <time>2020-09-30T13:59:18Z</time>
      </trkpt>
      <trkpt lat="45.21928" lon="4.23655">
        <ele>611.06</ele>
        <time>2020-09-30T13:59:22Z</time>
      </trkpt>
      <trkpt lat="45.21932" lon="4.23652">
        <ele>611.54</ele>
        <time>2020-09-30T13:59:26Z</time>
      </trkpt>
      <trkpt lat="45.21936" lon="4.23654">
        <ele>612.02</ele>
        <time>2020-09-30T13:59:30Z</time>
      </trkpt>
      <trkpt lat="45.21945" lon="4.23661">
        <ele>612.98</ele>
        <time>2020-09-30T13:59:39Z</time>
      </trkpt>
      <trkpt lat="45.21963" lon="4.23674">
        <ele>615.86</ele>
        <time>2020-09-30T13:59:56Z</time>
      </trkpt>
      <trkpt lat="45.21973" lon="4.23678">
        <ele>617.78</ele>
        <time>2020-09-30T14:00:10Z</time>
      </trkpt>
      <trkpt lat="45.21982" lon="4.23681">
        <ele>618.75</ele>
        <time>2020-09-30T14:00:22Z</time>
      </trkpt>
      <trkpt lat="45.21989" lon="4.23685">
        <ele>620.67</ele>
        <time>2020-09-30T14:00:36Z</time>
      </trkpt>
      <trkpt lat="45.21995" lon="4.23691">
        <ele>623.07</ele>
        <time>2020-09-30T14:00:49Z</time>
      </trkpt>
      <trkpt lat="45.21998" lon="4.23695">
        <ele>625.47</ele>
        <time>2020-09-30T14:01:00Z</time>
      </trkpt>
      <trkpt lat="45.22004" lon="4.23709">
        <ele>629.32</ele>
        <time>2020-09-30T14:01:12Z</time>
      </trkpt>
      <trkpt lat="45.22006" lon="4.23722">
        <ele>630.76</ele>
        <time>2020-09-30T14:01:24Z</time>
      </trkpt>
      <trkpt lat="45.22006" lon="4.23735">
        <ele>633.65</ele>
        <time>2020-09-30T14:01:40Z</time>
      </trkpt>
      <trkpt lat="45.2201" lon="4.23732">
        <ele>636.05</ele>
        <time>2020-09-30T14:01:53Z</time>
      </trkpt>
      <trkpt lat="45.2202" lon="4.23735">
        <ele>637.01</ele>
        <time>2020-09-30T14:02:07Z</time>
      </trkpt>
      <trkpt lat="45.22033" lon="4.23743">
        <ele>637.49</ele>
        <time>2020-09-30T14:02:23Z</time>
      </trkpt>
      <trkpt lat="45.22039" lon="4.23751">
        <ele>640.38</ele>
        <time>2020-09-30T14:02:33Z</time>
      </trkpt>
      <trkpt lat="45.22047" lon="4.23759">
        <ele>642.78</ele>
        <time>2020-09-30T14:02:46Z</time>
      </trkpt>
      <trkpt lat="45.22056" lon="4.23761">
        <ele>646.62</ele>
        <time>2020-09-30T14:02:59Z</time>
      </trkpt>
      <trkpt lat="45.22066" lon="4.23765">
        <ele>649.99</ele>
        <time>2020-09-30T14:03:13Z</time>
      </trkpt>
      <trkpt lat="45.22074" lon="4.23767">
        <ele>653.83</ele>
        <time>2020-09-30T14:03:25Z</time>
      </trkpt>
      <trkpt lat="45.22083" lon="4.23767">
        <ele>658.16</ele>
        <time>2020-09-30T14:03:38Z</time>
      </trkpt>
      <trkpt lat="45.2209" lon="4.23766">
        <ele>658.16</ele>
        <time>2020-09-30T14:03:51Z</time>
      </trkpt>
      <trkpt lat="45.22093" lon="4.23763">
        <ele>659.12</ele>
        <time>2020-09-30T14:03:57Z</time>
      </trkpt>
      <trkpt lat="45.22096" lon="4.23758">
        <ele>659.12</ele>
        <time>2020-09-30T14:04:05Z</time>
      </trkpt>
      <trkpt lat="45.22098" lon="4.2375">
        <ele>661.52</ele>
        <time>2020-09-30T14:04:17Z</time>
      </trkpt>
      <trkpt lat="45.22104" lon="4.23735">
        <ele>662.49</ele>
        <time>2020-09-30T14:04:32Z</time>
      </trkpt>
      <trkpt lat="45.2211" lon="4.23723">
        <ele>662.49</ele>
        <time>2020-09-30T14:04:44Z</time>
      </trkpt>
      <trkpt lat="45.22117" lon="4.2371">
        <ele>662.01</ele>
        <time>2020-09-30T14:04:56Z</time>
      </trkpt>
      <trkpt lat="45.22119" lon="4.23704">
        <ele>663.93</ele>
        <time>2020-09-30T14:05:08Z</time>
      </trkpt>
      <trkpt lat="45.22122" lon="4.23691">
        <ele>666.81</ele>
        <time>2020-09-30T14:05:20Z</time>
      </trkpt>
      <trkpt lat="45.22126" lon="4.23677">
        <ele>667.77</ele>
        <time>2020-09-30T14:05:32Z</time>
      </trkpt>
      <trkpt lat="45.22129" lon="4.23669">
        <ele>668.73</ele>
        <time>2020-09-30T14:05:40Z</time>
      </trkpt>
      <trkpt lat="45.22135" lon="4.23655">
        <ele>669.7</ele>
        <time>2020-09-30T14:05:53Z</time>
      </trkpt>
      <trkpt lat="45.22142" lon="4.2364">
        <ele>672.1</ele>
        <time>2020-09-30T14:06:07Z</time>
      </trkpt>
      <trkpt lat="45.22142" lon="4.23635">
        <ele>674.02</ele>
        <time>2020-09-30T14:06:21Z</time>
      </trkpt>
      <trkpt lat="45.22146" lon="4.23619">
        <ele>676.42</ele>
        <time>2020-09-30T14:06:34Z</time>
      </trkpt>
      <trkpt lat="45.22147" lon="4.23606">
        <ele>676.91</ele>
        <time>2020-09-30T14:06:45Z</time>
      </trkpt>
      <trkpt lat="45.22152" lon="4.23597">
        <ele>680.27</ele>
        <time>2020-09-30T14:06:57Z</time>
      </trkpt>
      <trkpt lat="45.22152" lon="4.23596">
        <ele>680.27</ele>
        <time>2020-09-30T14:06:58Z</time>
      </trkpt>
      <trkpt lat="45.22156" lon="4.23602">
        <ele>681.71</ele>
        <time>2020-09-30T14:07:06Z</time>
      </trkpt>
      <trkpt lat="45.22158" lon="4.23609">
        <ele>682.67</ele>
        <time>2020-09-30T14:07:10Z</time>
      </trkpt>
      <trkpt lat="45.22164" lon="4.23622">
        <ele>687</ele>
        <time>2020-09-30T14:07:22Z</time>
      </trkpt>
      <trkpt lat="45.22167" lon="4.2363">
        <ele>687.48</ele>
        <time>2020-09-30T14:07:27Z</time>
      </trkpt>
      <trkpt lat="45.22175" lon="4.23647">
        <ele>689.88</ele>
        <time>2020-09-30T14:07:41Z</time>
      </trkpt>
      <trkpt lat="45.2218" lon="4.23663">
        <ele>692.77</ele>
        <time>2020-09-30T14:07:55Z</time>
      </trkpt>
      <trkpt lat="45.22181" lon="4.23671">
        <ele>692.29</ele>
        <time>2020-09-30T14:08:02Z</time>
      </trkpt>
      <trkpt lat="45.22184" lon="4.23682">
        <ele>693.25</ele>
        <time>2020-09-30T14:08:10Z</time>
      </trkpt>
      <trkpt lat="45.22189" lon="4.237">
        <ele>696.13</ele>
        <time>2020-09-30T14:08:23Z</time>
      </trkpt>
      <trkpt lat="45.22191" lon="4.23713">
        <ele>699.5</ele>
        <time>2020-09-30T14:08:33Z</time>
      </trkpt>
      <trkpt lat="45.22193" lon="4.23721">
        <ele>699.5</ele>
        <time>2020-09-30T14:08:39Z</time>
      </trkpt>
      <trkpt lat="45.22197" lon="4.23741">
        <ele>701.42</ele>
        <time>2020-09-30T14:08:54Z</time>
      </trkpt>
      <trkpt lat="45.222" lon="4.23749">
        <ele>701.42</ele>
        <time>2020-09-30T14:08:59Z</time>
      </trkpt>
      <trkpt lat="45.22202" lon="4.23776">
        <ele>700.94</ele>
        <time>2020-09-30T14:09:14Z</time>
      </trkpt>
      <trkpt lat="45.22203" lon="4.23798">
        <ele>706.23</ele>
        <time>2020-09-30T14:09:29Z</time>
      </trkpt>
      <trkpt lat="45.22205" lon="4.23815">
        <ele>708.15</ele>
        <time>2020-09-30T14:09:42Z</time>
      </trkpt>
      <trkpt lat="45.22211" lon="4.23837">
        <ele>711.51</ele>
        <time>2020-09-30T14:09:56Z</time>
      </trkpt>
      <trkpt lat="45.22211" lon="4.23838">
        <ele>711.99</ele>
        <time>2020-09-30T14:09:57Z</time>
      </trkpt>
      <trkpt lat="45.22221" lon="4.23842">
        <ele>712.95</ele>
        <time>2020-09-30T14:10:08Z</time>
      </trkpt>
      <trkpt lat="45.22231" lon="4.23838">
        <ele>716.8</ele>
        <time>2020-09-30T14:10:20Z</time>
      </trkpt>
      <trkpt lat="45.22243" lon="4.23836">
        <ele>722.57</ele>
        <time>2020-09-30T14:10:34Z</time>
      </trkpt>
      <trkpt lat="45.22253" lon="4.23833">
        <ele>728.82</ele>
        <time>2020-09-30T14:10:48Z</time>
      </trkpt>
      <trkpt lat="45.22263" lon="4.23826">
        <ele>733.62</ele>
        <time>2020-09-30T14:11:00Z</time>
      </trkpt>
      <trkpt lat="45.22273" lon="4.23816">
        <ele>739.39</ele>
        <time>2020-09-30T14:11:14Z</time>
      </trkpt>
      <trkpt lat="45.22283" lon="4.23802">
        <ele>739.87</ele>
        <time>2020-09-30T14:11:27Z</time>
      </trkpt>
      <trkpt lat="45.22288" lon="4.23788">
        <ele>741.79</ele>
        <time>2020-09-30T14:11:42Z</time>
      </trkpt>
      <trkpt lat="45.22293" lon="4.23779">
        <ele>743.72</ele>
        <time>2020-09-30T14:11:50Z</time>
      </trkpt>
      <trkpt lat="45.22304" lon="4.23764">
        <ele>745.16</ele>
        <time>2020-09-30T14:12:05Z</time>
      </trkpt>
      <trkpt lat="45.22307" lon="4.23759">
        <ele>745.64</ele>
        <time>2020-09-30T14:12:09Z</time>
      </trkpt>
      <trkpt lat="45.22315" lon="4.23755">
        <ele>746.12</ele>
        <time>2020-09-30T14:12:17Z</time>
      </trkpt>
      <trkpt lat="45.22331" lon="4.23748">
        <ele>745.64</ele>
        <time>2020-09-30T14:12:32Z</time>
      </trkpt>
      <trkpt lat="45.22332" lon="4.23749">
        <ele>745.64</ele>
        <time>2020-09-30T14:12:33Z</time>
      </trkpt>
      <trkpt lat="45.22331" lon="4.23747">
        <ele>745.64</ele>
        <time>2020-09-30T14:12:40Z</time>
      </trkpt>
      <trkpt lat="45.2233" lon="4.23745">
        <ele>744.68</ele>
        <time>2020-09-30T14:13:11Z</time>
      </trkpt>
      <trkpt lat="45.2233" lon="4.23745">
        <ele>744.68</ele>
        <time>2020-09-30T14:13:34Z</time>
      </trkpt>
      <trkpt lat="45.2233" lon="4.23745">
        <ele>744.2</ele>
        <time>2020-09-30T14:14:06Z</time>
      </trkpt>
      <trkpt lat="45.2233" lon="4.23746">
        <ele>743.24</ele>
        <time>2020-09-30T14:14:29Z</time>
      </trkpt>
      <trkpt lat="45.2233" lon="4.23745">
        <ele>743.24</ele>
        <time>2020-09-30T14:15:08Z</time>
      </trkpt>
      <trkpt lat="45.22331" lon="4.23745">
        <ele>743.24</ele>
        <time>2020-09-30T14:15:35Z</time>
      </trkpt>
      <trkpt lat="45.22335" lon="4.23742">
        <ele>743.24</ele>
        <time>2020-09-30T14:15:39Z</time>
      </trkpt>
      <trkpt lat="45.22351" lon="4.23735">
        <ele>745.64</ele>
        <time>2020-09-30T14:15:54Z</time>
      </trkpt>
      <trkpt lat="45.22365" lon="4.23722">
        <ele>750.45</ele>
        <time>2020-09-30T14:16:10Z</time>
      </trkpt>
      <trkpt lat="45.22375" lon="4.2371">
        <ele>759.1</ele>
        <time>2020-09-30T14:16:25Z</time>
      </trkpt>
      <trkpt lat="45.22387" lon="4.237">
        <ele>762.94</ele>
        <time>2020-09-30T14:16:37Z</time>
      </trkpt>
      <trkpt lat="45.22401" lon="4.23697">
        <ele>766.31</ele>
        <time>2020-09-30T14:16:48Z</time>
      </trkpt>
      <trkpt lat="45.22414" lon="4.23708">
        <ele>768.71</ele>
        <time>2020-09-30T14:17:03Z</time>
      </trkpt>
      <trkpt lat="45.22426" lon="4.23729">
        <ele>763.42</ele>
        <time>2020-09-30T14:17:19Z</time>
      </trkpt>
      <trkpt lat="45.22435" lon="4.23748">
        <ele>761.98</ele>
        <time>2020-09-30T14:17:34Z</time>
      </trkpt>
      <trkpt lat="45.22447" lon="4.23756">
        <ele>760.54</ele>
        <time>2020-09-30T14:17:45Z</time>
      </trkpt>
      <trkpt lat="45.22463" lon="4.23754">
        <ele>761.98</ele>
        <time>2020-09-30T14:18:01Z</time>
      </trkpt>
      <trkpt lat="45.22467" lon="4.23753">
        <ele>761.5</ele>
        <time>2020-09-30T14:18:05Z</time>
      </trkpt>
      <trkpt lat="45.22478" lon="4.23747">
        <ele>763.42</ele>
        <time>2020-09-30T14:18:19Z</time>
      </trkpt>
      <trkpt lat="45.22491" lon="4.23734">
        <ele>767.27</ele>
        <time>2020-09-30T14:18:32Z</time>
      </trkpt>
      <trkpt lat="45.22502" lon="4.23724">
        <ele>769.67</ele>
        <time>2020-09-30T14:18:45Z</time>
      </trkpt>
      <trkpt lat="45.22514" lon="4.23713">
        <ele>770.63</ele>
        <time>2020-09-30T14:18:57Z</time>
      </trkpt>
      <trkpt lat="45.22517" lon="4.2371">
        <ele>771.6</ele>
        <time>2020-09-30T14:19:00Z</time>
      </trkpt>
      <trkpt lat="45.22528" lon="4.23695">
        <ele>774.48</ele>
        <time>2020-09-30T14:19:14Z</time>
      </trkpt>
      <trkpt lat="45.22536" lon="4.23682">
        <ele>778.32</ele>
        <time>2020-09-30T14:19:27Z</time>
      </trkpt>
      <trkpt lat="45.22551" lon="4.23665">
        <ele>777.36</ele>
        <time>2020-09-30T14:19:43Z</time>
      </trkpt>
      <trkpt lat="45.22567" lon="4.23654">
        <ele>780.73</ele>
        <time>2020-09-30T14:19:59Z</time>
      </trkpt>
      <trkpt lat="45.22585" lon="4.23642">
        <ele>784.57</ele>
        <time>2020-09-30T14:20:16Z</time>
      </trkpt>
      <trkpt lat="45.22605" lon="4.23625">
        <ele>782.17</ele>
        <time>2020-09-30T14:20:32Z</time>
      </trkpt>
      <trkpt lat="45.22629" lon="4.23621">
        <ele>778.32</ele>
        <time>2020-09-30T14:20:48Z</time>
      </trkpt>
      <trkpt lat="45.22634" lon="4.23621">
        <ele>776.88</ele>
        <time>2020-09-30T14:20:52Z</time>
      </trkpt>
      <trkpt lat="45.22643" lon="4.23624">
        <ele>776.4</ele>
        <time>2020-09-30T14:20:59Z</time>
      </trkpt>
      <trkpt lat="45.2266" lon="4.23634">
        <ele>775.44</ele>
        <time>2020-09-30T14:21:15Z</time>
      </trkpt>
      <trkpt lat="45.22663" lon="4.23638">
        <ele>775.92</ele>
        <time>2020-09-30T14:21:19Z</time>
      </trkpt>
      <trkpt lat="45.2268" lon="4.2365">
        <ele>778.32</ele>
        <time>2020-09-30T14:21:35Z</time>
      </trkpt>
      <trkpt lat="45.22696" lon="4.23665">
        <ele>780.25</ele>
        <time>2020-09-30T14:21:51Z</time>
      </trkpt>
      <trkpt lat="45.22714" lon="4.23673">
        <ele>781.69</ele>
        <time>2020-09-30T14:22:07Z</time>
      </trkpt>
      <trkpt lat="45.22731" lon="4.23667">
        <ele>782.65</ele>
        <time>2020-09-30T14:22:24Z</time>
      </trkpt>
      <trkpt lat="45.22748" lon="4.23656">
        <ele>783.61</ele>
        <time>2020-09-30T14:22:41Z</time>
      </trkpt>
      <trkpt lat="45.22758" lon="4.23655">
        <ele>784.57</ele>
        <time>2020-09-30T14:22:53Z</time>
      </trkpt>
      <trkpt lat="45.22757" lon="4.23665">
        <ele>784.57</ele>
        <time>2020-09-30T14:23:00Z</time>
      </trkpt>
      <trkpt lat="45.22751" lon="4.23699">
        <ele>784.09</ele>
        <time>2020-09-30T14:23:19Z</time>
      </trkpt>
      <trkpt lat="45.22756" lon="4.23728">
        <ele>786.02</ele>
        <time>2020-09-30T14:23:37Z</time>
      </trkpt>
      <trkpt lat="45.22772" lon="4.23741">
        <ele>788.42</ele>
        <time>2020-09-30T14:23:54Z</time>
      </trkpt>
      <trkpt lat="45.22793" lon="4.23747">
        <ele>789.86</ele>
        <time>2020-09-30T14:24:12Z</time>
      </trkpt>
      <trkpt lat="45.22799" lon="4.2377">
        <ele>788.9</ele>
        <time>2020-09-30T14:24:26Z</time>
      </trkpt>
      <trkpt lat="45.228" lon="4.23771">
        <ele>788.9</ele>
        <time>2020-09-30T14:24:27Z</time>
      </trkpt>
      <trkpt lat="45.22812" lon="4.23784">
        <ele>789.86</ele>
        <time>2020-09-30T14:24:42Z</time>
      </trkpt>
      <trkpt lat="45.22811" lon="4.23792">
        <ele>790.82</ele>
        <time>2020-09-30T14:24:47Z</time>
      </trkpt>
      <trkpt lat="45.22802" lon="4.23817">
        <ele>791.78</ele>
        <time>2020-09-30T14:25:05Z</time>
      </trkpt>
      <trkpt lat="45.22797" lon="4.23844">
        <ele>793.22</ele>
        <time>2020-09-30T14:25:23Z</time>
      </trkpt>
      <trkpt lat="45.22797" lon="4.23877">
        <ele>794.19</ele>
        <time>2020-09-30T14:25:42Z</time>
      </trkpt>
      <trkpt lat="45.22801" lon="4.23909">
        <ele>789.38</ele>
        <time>2020-09-30T14:26:01Z</time>
      </trkpt>
      <trkpt lat="45.22802" lon="4.23926">
        <ele>787.46</ele>
        <time>2020-09-30T14:26:11Z</time>
      </trkpt>
      <trkpt lat="45.22812" lon="4.23956">
        <ele>781.21</ele>
        <time>2020-09-30T14:26:31Z</time>
      </trkpt>
      <trkpt lat="45.22831" lon="4.23973">
        <ele>774.96</ele>
        <time>2020-09-30T14:26:48Z</time>
      </trkpt>
      <trkpt lat="45.22842" lon="4.23998">
        <ele>773.04</ele>
        <time>2020-09-30T14:27:03Z</time>
      </trkpt>
      <trkpt lat="45.22847" lon="4.24025">
        <ele>773.52</ele>
        <time>2020-09-30T14:27:19Z</time>
      </trkpt>
      <trkpt lat="45.22846" lon="4.24032">
        <ele>774.48</ele>
        <time>2020-09-30T14:27:24Z</time>
      </trkpt>
      <trkpt lat="45.22843" lon="4.24054">
        <ele>775.44</ele>
        <time>2020-09-30T14:27:38Z</time>
      </trkpt>
      <trkpt lat="45.22842" lon="4.2406">
        <ele>775.92</ele>
        <time>2020-09-30T14:27:42Z</time>
      </trkpt>
      <trkpt lat="45.22839" lon="4.24092">
        <ele>778.32</ele>
        <time>2020-09-30T14:28:00Z</time>
      </trkpt>
      <trkpt lat="45.22839" lon="4.24111">
        <ele>783.13</ele>
        <time>2020-09-30T14:28:14Z</time>
      </trkpt>
      <trkpt lat="45.2284" lon="4.2413">
        <ele>784.09</ele>
        <time>2020-09-30T14:28:25Z</time>
      </trkpt>
      <trkpt lat="45.2284" lon="4.24147">
        <ele>784.57</ele>
        <time>2020-09-30T14:28:33Z</time>
      </trkpt>
      <trkpt lat="45.22834" lon="4.24183">
        <ele>787.46</ele>
        <time>2020-09-30T14:28:53Z</time>
      </trkpt>
      <trkpt lat="45.22834" lon="4.24197">
        <ele>788.42</ele>
        <time>2020-09-30T14:29:00Z</time>
      </trkpt>
      <trkpt lat="45.2283" lon="4.24223">
        <ele>788.42</ele>
        <time>2020-09-30T14:29:15Z</time>
      </trkpt>
      <trkpt lat="45.22826" lon="4.24243">
        <ele>788.9</ele>
        <time>2020-09-30T14:29:28Z</time>
      </trkpt>
      <trkpt lat="45.22826" lon="4.24244">
        <ele>788.9</ele>
        <time>2020-09-30T14:29:29Z</time>
      </trkpt>
      <trkpt lat="45.22831" lon="4.24269">
        <ele>789.38</ele>
        <time>2020-09-30T14:29:46Z</time>
      </trkpt>
      <trkpt lat="45.22838" lon="4.24291">
        <ele>787.46</ele>
        <time>2020-09-30T14:30:02Z</time>
      </trkpt>
      <trkpt lat="45.22839" lon="4.24295">
        <ele>784.57</ele>
        <time>2020-09-30T14:30:15Z</time>
      </trkpt>
      <trkpt lat="45.2284" lon="4.24298">
        <ele>782.17</ele>
        <time>2020-09-30T14:30:31Z</time>
      </trkpt>
      <trkpt lat="45.22843" lon="4.24297">
        <ele>780.25</ele>
        <time>2020-09-30T14:30:52Z</time>
      </trkpt>
      <trkpt lat="45.22846" lon="4.24306">
        <ele>779.29</ele>
        <time>2020-09-30T14:31:00Z</time>
      </trkpt>
      <trkpt lat="45.22848" lon="4.24312">
        <ele>779.29</ele>
        <time>2020-09-30T14:31:04Z</time>
      </trkpt>
      <trkpt lat="45.2285" lon="4.24316">
        <ele>778.81</ele>
        <time>2020-09-30T14:31:07Z</time>
      </trkpt>
      <trkpt lat="45.22852" lon="4.24322">
        <ele>778.81</ele>
        <time>2020-09-30T14:31:11Z</time>
      </trkpt>
      <trkpt lat="45.22863" lon="4.24348">
        <ele>776.88</ele>
        <time>2020-09-30T14:31:27Z</time>
      </trkpt>
      <trkpt lat="45.22873" lon="4.2438">
        <ele>777.84</ele>
        <time>2020-09-30T14:31:46Z</time>
      </trkpt>
      <trkpt lat="45.22878" lon="4.24393">
        <ele>776.88</ele>
        <time>2020-09-30T14:31:55Z</time>
      </trkpt>
      <trkpt lat="45.22881" lon="4.24402">
        <ele>775.92</ele>
        <time>2020-09-30T14:32:01Z</time>
      </trkpt>
      <trkpt lat="45.22889" lon="4.24428">
        <ele>777.84</ele>
        <time>2020-09-30T14:32:17Z</time>
      </trkpt>
      <trkpt lat="45.22899" lon="4.24453">
        <ele>782.65</ele>
        <time>2020-09-30T14:32:35Z</time>
      </trkpt>
      <trkpt lat="45.22904" lon="4.24461">
        <ele>786.5</ele>
        <time>2020-09-30T14:32:44Z</time>
      </trkpt>
      <trkpt lat="45.22917" lon="4.24468">
        <ele>789.86</ele>
        <time>2020-09-30T14:33:01Z</time>
      </trkpt>
      <trkpt lat="45.22928" lon="4.2448">
        <ele>793.22</ele>
        <time>2020-09-30T14:33:18Z</time>
      </trkpt>
      <trkpt lat="45.22932" lon="4.2449">
        <ele>791.78</ele>
        <time>2020-09-30T14:33:25Z</time>
      </trkpt>
      <trkpt lat="45.22934" lon="4.245">
        <ele>791.78</ele>
        <time>2020-09-30T14:33:31Z</time>
      </trkpt>
      <trkpt lat="45.22941" lon="4.24513">
        <ele>797.07</ele>
        <time>2020-09-30T14:33:47Z</time>
      </trkpt>
      <trkpt lat="45.22942" lon="4.24514">
        <ele>797.07</ele>
        <time>2020-09-30T14:33:54Z</time>
      </trkpt>
      <trkpt lat="45.22947" lon="4.24514">
        <ele>797.07</ele>
        <time>2020-09-30T14:34:08Z</time>
      </trkpt>
      <trkpt lat="45.22954" lon="4.24519">
        <ele>799.47</ele>
        <time>2020-09-30T14:34:21Z</time>
      </trkpt>
      <trkpt lat="45.22953" lon="4.2452">
        <ele>798.99</ele>
        <time>2020-09-30T14:34:27Z</time>
      </trkpt>
      <trkpt lat="45.22948" lon="4.2452">
        <ele>797.07</ele>
        <time>2020-09-30T14:34:35Z</time>
      </trkpt>
      <trkpt lat="45.22942" lon="4.24522">
        <ele>797.07</ele>
        <time>2020-09-30T14:34:45Z</time>
      </trkpt>
      <trkpt lat="45.22941" lon="4.24524">
        <ele>797.55</ele>
        <time>2020-09-30T14:34:47Z</time>
      </trkpt>
      <trkpt lat="45.22939" lon="4.24526">
        <ele>797.55</ele>
        <time>2020-09-30T14:34:50Z</time>
      </trkpt>
      <trkpt lat="45.2293" lon="4.24535">
        <ele>799.95</ele>
        <time>2020-09-30T14:35:04Z</time>
      </trkpt>
      <trkpt lat="45.22926" lon="4.24546">
        <ele>801.4</ele>
        <time>2020-09-30T14:35:13Z</time>
      </trkpt>
      <trkpt lat="45.22923" lon="4.24561">
        <ele>801.88</ele>
        <time>2020-09-30T14:35:27Z</time>
      </trkpt>
      <trkpt lat="45.22921" lon="4.24562">
        <ele>800.92</ele>
        <time>2020-09-30T14:35:32Z</time>
      </trkpt>
      <trkpt lat="45.22917" lon="4.24555">
        <ele>802.36</ele>
        <time>2020-09-30T14:35:40Z</time>
      </trkpt>
      <trkpt lat="45.2292" lon="4.24546">
        <ele>801.88</ele>
        <time>2020-09-30T14:35:47Z</time>
      </trkpt>
      <trkpt lat="45.22929" lon="4.24532">
        <ele>800.92</ele>
        <time>2020-09-30T14:36:00Z</time>
      </trkpt>
      <trkpt lat="45.22936" lon="4.24514">
        <ele>800.92</ele>
        <time>2020-09-30T14:36:18Z</time>
      </trkpt>
      <trkpt lat="45.22934" lon="4.24511">
        <ele>800.92</ele>
        <time>2020-09-30T14:36:22Z</time>
      </trkpt>
      <trkpt lat="45.22932" lon="4.2451">
        <ele>800.44</ele>
        <time>2020-09-30T14:36:25Z</time>
      </trkpt>
      <trkpt lat="45.22929" lon="4.2449">
        <ele>798.99</ele>
        <time>2020-09-30T14:36:37Z</time>
      </trkpt>
      <trkpt lat="45.22931" lon="4.2447">
        <ele>797.07</ele>
        <time>2020-09-30T14:36:51Z</time>
      </trkpt>
      <trkpt lat="45.22935" lon="4.24449">
        <ele>796.59</ele>
        <time>2020-09-30T14:37:05Z</time>
      </trkpt>
      <trkpt lat="45.22936" lon="4.24447">
        <ele>796.59</ele>
        <time>2020-09-30T14:37:07Z</time>
      </trkpt>
      <trkpt lat="45.2294" lon="4.2444">
        <ele>796.11</ele>
        <time>2020-09-30T14:37:12Z</time>
      </trkpt>
      <trkpt lat="45.22956" lon="4.2442">
        <ele>796.11</ele>
        <time>2020-09-30T14:37:28Z</time>
      </trkpt>
      <trkpt lat="45.22959" lon="4.24416">
        <ele>796.59</ele>
        <time>2020-09-30T14:37:32Z</time>
      </trkpt>
      <trkpt lat="45.22965" lon="4.24402">
        <ele>796.11</ele>
        <time>2020-09-30T14:37:40Z</time>
      </trkpt>
      <trkpt lat="45.22967" lon="4.24391">
        <ele>796.59</ele>
        <time>2020-09-30T14:37:45Z</time>
      </trkpt>
      <trkpt lat="45.2297" lon="4.24374">
        <ele>794.19</ele>
        <time>2020-09-30T14:37:53Z</time>
      </trkpt>
      <trkpt lat="45.2297" lon="4.24349">
        <ele>793.22</ele>
        <time>2020-09-30T14:38:06Z</time>
      </trkpt>
      <trkpt lat="45.22971" lon="4.24345">
        <ele>793.71</ele>
        <time>2020-09-30T14:38:08Z</time>
      </trkpt>
      <trkpt lat="45.22969" lon="4.24317">
        <ele>795.15</ele>
        <time>2020-09-30T14:38:24Z</time>
      </trkpt>
      <trkpt lat="45.22963" lon="4.24296">
        <ele>797.07</ele>
        <time>2020-09-30T14:38:38Z</time>
      </trkpt>
      <trkpt lat="45.22959" lon="4.24272">
        <ele>798.51</ele>
        <time>2020-09-30T14:38:53Z</time>
      </trkpt>
      <trkpt lat="45.22958" lon="4.24268">
        <ele>799.47</ele>
        <time>2020-09-30T14:38:56Z</time>
      </trkpt>
      <trkpt lat="45.22959" lon="4.24263">
        <ele>798.99</ele>
        <time>2020-09-30T14:38:59Z</time>
      </trkpt>
      <trkpt lat="45.22955" lon="4.24243">
        <ele>799.95</ele>
        <time>2020-09-30T14:39:13Z</time>
      </trkpt>
      <trkpt lat="45.22958" lon="4.24231">
        <ele>802.36</ele>
        <time>2020-09-30T14:39:23Z</time>
      </trkpt>
      <trkpt lat="45.22976" lon="4.24217">
        <ele>802.84</ele>
        <time>2020-09-30T14:39:41Z</time>
      </trkpt>
      <trkpt lat="45.22986" lon="4.24207">
        <ele>803.8</ele>
        <time>2020-09-30T14:39:52Z</time>
      </trkpt>
      <trkpt lat="45.23003" lon="4.24188">
        <ele>804.76</ele>
        <time>2020-09-30T14:40:08Z</time>
      </trkpt>
      <trkpt lat="45.23019" lon="4.2417">
        <ele>803.8</ele>
        <time>2020-09-30T14:40:24Z</time>
      </trkpt>
      <trkpt lat="45.23025" lon="4.24163">
        <ele>803.32</ele>
        <time>2020-09-30T14:40:37Z</time>
      </trkpt>
      <trkpt lat="45.23026" lon="4.24162">
        <ele>804.28</ele>
        <time>2020-09-30T14:40:51Z</time>
      </trkpt>
      <trkpt lat="45.23025" lon="4.24161">
        <ele>805.24</ele>
        <time>2020-09-30T14:41:08Z</time>
      </trkpt>
      <trkpt lat="45.23026" lon="4.24161">
        <ele>804.76</ele>
        <time>2020-09-30T14:41:21Z</time>
      </trkpt>
      <trkpt lat="45.23035" lon="4.24153">
        <ele>804.76</ele>
        <time>2020-09-30T14:41:33Z</time>
      </trkpt>
      <trkpt lat="45.23053" lon="4.24135">
        <ele>803.32</ele>
        <time>2020-09-30T14:41:51Z</time>
      </trkpt>
      <trkpt lat="45.23068" lon="4.24121">
        <ele>803.8</ele>
        <time>2020-09-30T14:42:07Z</time>
      </trkpt>
      <trkpt lat="45.23087" lon="4.24104">
        <ele>802.36</ele>
        <time>2020-09-30T14:42:24Z</time>
      </trkpt>
      <trkpt lat="45.23097" lon="4.24085">
        <ele>800.92</ele>
        <time>2020-09-30T14:42:38Z</time>
      </trkpt>
      <trkpt lat="45.23099" lon="4.24083">
        <ele>799.47</ele>
        <time>2020-09-30T14:42:42Z</time>
      </trkpt>
      <trkpt lat="45.23099" lon="4.24081">
        <ele>798.51</ele>
        <time>2020-09-30T14:42:46Z</time>
      </trkpt>
      <trkpt lat="45.231" lon="4.24078">
        <ele>798.51</ele>
        <time>2020-09-30T14:42:48Z</time>
      </trkpt>
      <trkpt lat="45.23107" lon="4.24065">
        <ele>795.63</ele>
        <time>2020-09-30T14:42:58Z</time>
      </trkpt>
      <trkpt lat="45.23108" lon="4.24063">
        <ele>796.11</ele>
        <time>2020-09-30T14:43:02Z</time>
      </trkpt>
      <trkpt lat="45.23117" lon="4.24067">
        <ele>797.07</ele>
        <time>2020-09-30T14:43:10Z</time>
      </trkpt>
      <trkpt lat="45.23131" lon="4.24081">
        <ele>798.51</ele>
        <time>2020-09-30T14:43:24Z</time>
      </trkpt>
      <trkpt lat="45.23141" lon="4.24104">
        <ele>797.55</ele>
        <time>2020-09-30T14:43:39Z</time>
      </trkpt>
      <trkpt lat="45.23149" lon="4.24133">
        <ele>797.07</ele>
        <time>2020-09-30T14:43:57Z</time>
      </trkpt>
      <trkpt lat="45.23151" lon="4.24137">
        <ele>796.59</ele>
        <time>2020-09-30T14:44:00Z</time>
      </trkpt>
      <trkpt lat="45.23166" lon="4.24158">
        <ele>794.67</ele>
        <time>2020-09-30T14:44:18Z</time>
      </trkpt>
      <trkpt lat="45.23174" lon="4.24164">
        <ele>795.15</ele>
        <time>2020-09-30T14:44:25Z</time>
      </trkpt>
      <trkpt lat="45.23193" lon="4.24175">
        <ele>794.67</ele>
        <time>2020-09-30T14:44:42Z</time>
      </trkpt>
      <trkpt lat="45.23199" lon="4.24177">
        <ele>792.74</ele>
        <time>2020-09-30T14:44:48Z</time>
      </trkpt>
      <trkpt lat="45.23221" lon="4.24177">
        <ele>790.34</ele>
        <time>2020-09-30T14:45:05Z</time>
      </trkpt>
      <trkpt lat="45.23239" lon="4.24179">
        <ele>789.38</ele>
        <time>2020-09-30T14:45:19Z</time>
      </trkpt>
      <trkpt lat="45.2326" lon="4.24176">
        <ele>791.78</ele>
        <time>2020-09-30T14:45:35Z</time>
      </trkpt>
      <trkpt lat="45.23275" lon="4.24171">
        <ele>792.74</ele>
        <time>2020-09-30T14:45:49Z</time>
      </trkpt>
      <trkpt lat="45.23278" lon="4.24169">
        <ele>792.74</ele>
        <time>2020-09-30T14:45:53Z</time>
      </trkpt>
      <trkpt lat="45.23284" lon="4.2416">
        <ele>791.78</ele>
        <time>2020-09-30T14:46:00Z</time>
      </trkpt>
      <trkpt lat="45.23291" lon="4.24155">
        <ele>790.34</ele>
        <time>2020-09-30T14:46:06Z</time>
      </trkpt>
      <trkpt lat="45.23304" lon="4.24148">
        <ele>789.38</ele>
        <time>2020-09-30T14:46:18Z</time>
      </trkpt>
      <trkpt lat="45.23325" lon="4.24147">
        <ele>790.34</ele>
        <time>2020-09-30T14:46:36Z</time>
      </trkpt>
      <trkpt lat="45.23347" lon="4.24149">
        <ele>790.82</ele>
        <time>2020-09-30T14:46:53Z</time>
      </trkpt>
      <trkpt lat="45.23369" lon="4.24148">
        <ele>790.34</ele>
        <time>2020-09-30T14:47:10Z</time>
      </trkpt>
      <trkpt lat="45.23392" lon="4.2414">
        <ele>788.9</ele>
        <time>2020-09-30T14:47:26Z</time>
      </trkpt>
      <trkpt lat="45.23415" lon="4.24138">
        <ele>789.86</ele>
        <time>2020-09-30T14:47:43Z</time>
      </trkpt>
      <trkpt lat="45.23437" lon="4.24136">
        <ele>789.38</ele>
        <time>2020-09-30T14:48:01Z</time>
      </trkpt>
      <trkpt lat="45.23458" lon="4.24125">
        <ele>790.34</ele>
        <time>2020-09-30T14:48:19Z</time>
      </trkpt>
      <trkpt lat="45.23479" lon="4.24116">
        <ele>792.26</ele>
        <time>2020-09-30T14:48:37Z</time>
      </trkpt>
      <trkpt lat="45.235" lon="4.24109">
        <ele>791.3</ele>
        <time>2020-09-30T14:48:53Z</time>
      </trkpt>
      <trkpt lat="45.23522" lon="4.24103">
        <ele>790.34</ele>
        <time>2020-09-30T14:49:10Z</time>
      </trkpt>
      <trkpt lat="45.23544" lon="4.24094">
        <ele>792.74</ele>
        <time>2020-09-30T14:49:28Z</time>
      </trkpt>
      <trkpt lat="45.23569" lon="4.24082">
        <ele>793.71</ele>
        <time>2020-09-30T14:49:47Z</time>
      </trkpt>
      <trkpt lat="45.23588" lon="4.24071">
        <ele>795.63</ele>
        <time>2020-09-30T14:50:04Z</time>
      </trkpt>
      <trkpt lat="45.236" lon="4.24059">
        <ele>796.59</ele>
        <time>2020-09-30T14:50:16Z</time>
      </trkpt>
      <trkpt lat="45.23604" lon="4.24057">
        <ele>796.11</ele>
        <time>2020-09-30T14:50:19Z</time>
      </trkpt>
      <trkpt lat="45.23632" lon="4.24038">
        <ele>798.03</ele>
        <time>2020-09-30T14:50:40Z</time>
      </trkpt>
      <trkpt lat="45.23657" lon="4.24025">
        <ele>797.07</ele>
        <time>2020-09-30T14:50:59Z</time>
      </trkpt>
      <trkpt lat="45.23686" lon="4.2401">
        <ele>797.07</ele>
        <time>2020-09-30T14:51:21Z</time>
      </trkpt>
      <trkpt lat="45.23701" lon="4.23996">
        <ele>797.07</ele>
        <time>2020-09-30T14:51:39Z</time>
      </trkpt>
      <trkpt lat="45.23703" lon="4.23996">
        <ele>798.03</ele>
        <time>2020-09-30T14:51:50Z</time>
      </trkpt>
      <trkpt lat="45.23703" lon="4.23993">
        <ele>798.03</ele>
        <time>2020-09-30T14:51:56Z</time>
      </trkpt>
      <trkpt lat="45.23718" lon="4.23973">
        <ele>800.92</ele>
        <time>2020-09-30T14:52:14Z</time>
      </trkpt>
      <trkpt lat="45.23733" lon="4.23952">
        <ele>802.84</ele>
        <time>2020-09-30T14:52:30Z</time>
      </trkpt>
      <trkpt lat="45.23744" lon="4.23931">
        <ele>805.24</ele>
        <time>2020-09-30T14:52:46Z</time>
      </trkpt>
      <trkpt lat="45.2376" lon="4.23912">
        <ele>807.16</ele>
        <time>2020-09-30T14:53:03Z</time>
      </trkpt>
      <trkpt lat="45.23783" lon="4.2389">
        <ele>808.61</ele>
        <time>2020-09-30T14:53:23Z</time>
      </trkpt>
      <trkpt lat="45.23806" lon="4.23869">
        <ele>810.53</ele>
        <time>2020-09-30T14:53:44Z</time>
      </trkpt>
      <trkpt lat="45.23816" lon="4.23867">
        <ele>810.53</ele>
        <time>2020-09-30T14:54:00Z</time>
      </trkpt>
      <trkpt lat="45.23819" lon="4.23871">
        <ele>810.05</ele>
        <time>2020-09-30T14:54:06Z</time>
      </trkpt>
      <trkpt lat="45.23837" lon="4.23885">
        <ele>810.05</ele>
        <time>2020-09-30T14:54:23Z</time>
      </trkpt>
      <trkpt lat="45.23858" lon="4.23902">
        <ele>810.05</ele>
        <time>2020-09-30T14:54:43Z</time>
      </trkpt>
      <trkpt lat="45.23882" lon="4.23912">
        <ele>810.05</ele>
        <time>2020-09-30T14:55:02Z</time>
      </trkpt>
      <trkpt lat="45.23905" lon="4.23915">
        <ele>811.49</ele>
        <time>2020-09-30T14:55:20Z</time>
      </trkpt>
      <trkpt lat="45.23926" lon="4.23902">
        <ele>813.89</ele>
        <time>2020-09-30T14:55:39Z</time>
      </trkpt>
      <trkpt lat="45.23934" lon="4.23896">
        <ele>814.37</ele>
        <time>2020-09-30T14:55:46Z</time>
      </trkpt>
      <trkpt lat="45.23939" lon="4.23891">
        <ele>814.85</ele>
        <time>2020-09-30T14:55:51Z</time>
      </trkpt>
      <trkpt lat="45.23943" lon="4.23885">
        <ele>815.82</ele>
        <time>2020-09-30T14:55:57Z</time>
      </trkpt>
      <trkpt lat="45.23955" lon="4.23875">
        <ele>817.26</ele>
        <time>2020-09-30T14:56:10Z</time>
      </trkpt>
      <trkpt lat="45.23949" lon="4.23879">
        <ele>816.3</ele>
        <time>2020-09-30T14:56:17Z</time>
      </trkpt>
      <trkpt lat="45.23922" lon="4.23873">
        <ele>816.78</ele>
        <time>2020-09-30T14:56:39Z</time>
      </trkpt>
      <trkpt lat="45.23907" lon="4.23853">
        <ele>819.66</ele>
        <time>2020-09-30T14:56:56Z</time>
      </trkpt>
      <trkpt lat="45.23902" lon="4.23828">
        <ele>821.1</ele>
        <time>2020-09-30T14:57:13Z</time>
      </trkpt>
      <trkpt lat="45.23911" lon="4.23798">
        <ele>822.55</ele>
        <time>2020-09-30T14:57:32Z</time>
      </trkpt>
      <trkpt lat="45.23922" lon="4.23769">
        <ele>823.51</ele>
        <time>2020-09-30T14:57:51Z</time>
      </trkpt>
      <trkpt lat="45.23929" lon="4.23736">
        <ele>824.95</ele>
        <time>2020-09-30T14:58:10Z</time>
      </trkpt>
      <trkpt lat="45.2394" lon="4.23705">
        <ele>826.39</ele>
        <time>2020-09-30T14:58:29Z</time>
      </trkpt>
      <trkpt lat="45.23951" lon="4.23673">
        <ele>827.83</ele>
        <time>2020-09-30T14:58:49Z</time>
      </trkpt>
      <trkpt lat="45.23963" lon="4.2364">
        <ele>826.87</ele>
        <time>2020-09-30T14:59:11Z</time>
      </trkpt>
      <trkpt lat="45.23969" lon="4.2362">
        <ele>826.87</ele>
        <time>2020-09-30T14:59:23Z</time>
      </trkpt>
      <trkpt lat="45.23972" lon="4.23594">
        <ele>824.47</ele>
        <time>2020-09-30T14:59:42Z</time>
      </trkpt>
      <trkpt lat="45.23971" lon="4.23591">
        <ele>824.47</ele>
        <time>2020-09-30T14:59:44Z</time>
      </trkpt>
      <trkpt lat="45.23974" lon="4.23583">
        <ele>823.99</ele>
        <time>2020-09-30T14:59:57Z</time>
      </trkpt>
    </trkseg>
  </trk>
</gpx>